GFSSW_850_thetae_000.txt.gz
Theta_e
319 317 315 314 304 303 305 308 308 306 314 319 321 317 316 320 320 321 320 319 319 319 318 318 318 318 319 321 322 326 323 324 322 321 321 321 320 321 322 321 322 323 323 324 324
319 318 316 314 313 303 305 308 307 306 308 318 321 321 321 323 323 321 321 321 320 318 318 320 319 317 319 323 322 324 324 324 320 319 321 321 321 321 321 321 322 323 324 324 325
316 319 316 315 314 309 305 308 308 307 308 311 320 322 322 324 322 321 321 320 321 321 321 320 319 316 319 322 322 323 325 323 323 323 323 322 321 323 321 321 323 323 324 324 325
314 318 318 316 315 311 304 308 308 311 313 309 313 319 321 322 322 319 317 319 321 321 322 321 320 317 318 320 322 323 323 324 325 326 325 324 324 321 321 322 323 323 324 323 324
314 315 317 317 315 313 304 307 308 310 311 310 310 311 316 319 320 314 315 315 318 320 322 321 321 319 317 317 318 320 320 323 323 324 324 325 325 324 324 326 326 325 325 324 323
311 314 315 317 315 314 308 306 307 309 312 310 311 313 312 313 314 317 314 314 317 321 321 321 319 319 319 318 317 318 318 318 319 321 322 323 323 324 324 325 325 324 323 324 324
315 314 315 317 316 315 312 306 308 310 311 311 310 311 313 310 310 310 316 315 314 315 316 316 318 319 320 319 318 318 318 317 318 319 320 322 323 322 323 324 325 325 325 325 325
315 312 315 315 317 315 313 310 311 313 313 312 308 310 311 311 310 310 311 314 315 314 315 314 315 313 317 318 316 318 317 319 316 317 319 322 323 320 321 321 322 323 325 326 326
311 314 314 315 317 316 313 310 311 313 311 313 313 309 310 311 312 310 311 311 312 314 314 314 313 312 315 315 315 316 315 317 317 317 318 320 320 320 322 321 321 322 323 323 324
308 312 314 315 317 317 312 309 308 310 310 311 311 310 311 311 311 310 310 310 312 312 313 313 312 312 312 313 312 314 317 317 318 317 316 318 320 319 319 320 321 322 322 323 323
305 308 313 314 316 317 311 309 310 309 310 310 310 310 310 311 310 311 310 310 311 311 311 311 312 314 312 312 312 314 315 316 315 315 316 315 315 315 315 317 318 319 320 322 323
305 305 311 314 316 317 312 309 310 308 309 309 311 310 311 311 311 311 310 311 311 310 309 311 311 310 311 311 314 314 315 315 313 314 315 314 314 313 312 315 316 317 319 320 322
303 304 305 313 315 315 313 309 309 309 308 308 309 310 311 310 310 311 311 311 309 309 310 310 310 309 311 311 312 311 312 312 312 311 311 311 311 311 311 313 314 315 316 318 320
302 301 304 312 315 314 310 310 309 309 299 304 309 309 310 310 310 311 311 311 309 310 309 310 309 310 309 310 310 312 310 312 312 312 311 310 312 311 310 312 312 314 315 317 319
301 302 304 307 312 312 312 310 309 309 302 307 309 311 311 310 311 311 311 310 309 308 309 309 309 309 310 310 309 310 310 311 312 313 312 312 313 309 309 311 313 313 316 318 319
302 302 305 305 311 313 312 308 309 301 301 310 310 312 312 310 313 311 311 310 310 310 309 307 308 308 308 308 308 309 309 309 309 312 313 310 312 310 309 309 312 312 315 318 320
303 303 305 305 310 312 309 309 308 304 309 311 311 312 313 313 312 312 311 312 313 313 312 312 310 309 308 309 308 309 311 311 314 313 311 309 310 310 309 309 310 312 314 317 317
304 305 305 305 307 311 307 308 307 307 308 310 310 310 312 312 312 313 313 313 311 311 312 309 307 310 308 309 309 309 309 309 310 314 308 308 311 310 310 310 310 311 313 316 317
305 306 306 304 309 310 308 310 307 307 311 310 310 310 311 310 311 312 313 312 310 311 312 311 308 308 308 309 310 312 311 308 310 309 311 309 309 310 312 312 312 311 312 313 314
306 305 304 304 309 307 308 309 306 309 309 310 311 311 312 311 311 312 311 308 312 310 309 309 311 307 309 309 309 311 309 313 311 311 310 309 309 310 311 312 311 311 311 313 314
305 305 304 303 307 308 309 308 307 311 310 311 311 311 312 311 311 312 308 307 308 308 308 308 310 308 310 310 310 310 311 310 310 311 308 310 308 309 310 313 311 310 312 314 316
304 307 307 306 308 308 307 306 307 311 312 313 311 313 311 309 310 307 307 307 308 308 309 310 312 310 309 308 308 308 309 309 310 305 308 305 309 311 314 311 310 312 312 313 314
305 310 309 307 309 310 308 309 310 312 312 313 313 312 312 312 310 308 308 308 308 309 310 310 312 313 311 310 310 312 310 309 308 310 307 307 308 307 310 312 312 312 313 313 314
304 309 308 308 308 309 309 309 310 311 312 313 313 311 312 313 309 310 309 309 308 309 310 310 313 312 312 313 312 313 311 310 310 311 310 310 310 309 311 313 312 313 313 313 313
308 307 305 306 310 308 309 309 310 312 312 313 314 313 314 316 313 311 309 309 309 310 312 311 312 312 312 311 311 314 313 311 311 310 310 309 309 311 310 311 313 313 312 313 312
309 308 306 307 308 306 307 310 311 311 313 314 312 313 313 315 313 310 311 311 312 310 311 311 312 312 313 313 313 314 313 314 313 311 310 309 310 310 311 312 313 311 312 312 313
304 307 308 309 310 308 308 310 310 313 311 312 313 314 314 314 313 313 311 311 312 313 313 311 311 314 315 315 316 315 313 313 313 313 311 312 310 310 311 313 309 309 311 312 313

GFSSW_850_thetae_003.txt.gz
Theta_e
317 316 319 316 315 313 304 304 308 308 307 312 320 320 315 313 319 321 318 316 318 317 318 318 318 318 318 320 322 325 326 327 324 322 322 320 320 321 321 321 321 322 322 323 323
314 316 315 319 316 315 313 304 308 308 306 313 319 321 317 321 321 321 321 321 320 318 318 318 319 318 318 321 322 325 327 326 321 320 321 321 320 321 322 321 322 323 323 323 323
311 315 315 319 317 315 314 306 307 308 307 308 318 320 322 322 323 322 321 321 320 320 321 320 319 317 318 322 321 323 325 323 323 322 322 322 321 322 321 322 322 323 323 323 323
317 311 315 315 317 315 315 310 306 309 310 309 312 317 320 322 322 318 319 318 319 321 323 320 319 316 317 320 321 323 322 323 324 324 325 324 324 324 321 322 324 322 323 325 324
315 314 314 315 316 316 314 311 305 308 310 309 308 312 317 319 320 315 316 315 317 321 321 321 320 316 317 316 318 321 320 322 323 323 323 324 324 325 325 326 326 326 326 326 325
312 315 313 315 315 317 314 314 305 307 311 311 309 311 311 316 316 317 314 314 317 322 321 320 319 319 318 318 317 317 317 318 319 319 320 322 323 323 323 323 323 324 325 325 324
308 311 313 314 315 317 315 314 305 307 310 311 309 310 312 310 309 309 315 316 318 321 320 320 319 319 319 319 318 317 318 317 317 318 319 320 322 322 322 322 323 322 322 322 323
304 307 311 314 315 316 316 314 308 310 312 312 309 310 311 311 310 310 314 314 315 314 314 314 316 316 317 317 315 317 317 319 316 316 317 319 320 320 320 320 321 322 321 322 322
304 304 307 312 314 315 317 314 310 312 312 314 313 310 310 310 310 311 310 314 313 313 314 313 313 312 315 314 314 314 315 318 317 316 317 319 320 318 319 319 319 320 320 321 322
303 303 305 308 313 315 317 314 310 311 311 311 311 311 311 311 311 311 310 311 311 312 312 312 312 311 312 312 312 312 316 315 316 316 315 316 317 316 316 317 318 317 318 320 321
302 302 303 304 312 315 316 312 309 310 310 309 309 311 310 311 310 310 310 310 311 311 311 310 312 312 312 311 310 313 314 315 314 314 314 315 316 315 314 313 314 315 315 316 318
300 301 301 302 308 313 315 311 312 311 309 309 310 311 311 311 311 310 310 310 310 310 309 311 311 310 309 310 312 313 314 314 312 313 314 313 313 312 312 312 313 313 314 315 316
300 302 302 302 306 312 313 312 312 312 307 308 309 310 311 311 311 311 310 310 309 309 310 310 309 309 310 311 312 312 313 312 312 312 311 311 311 310 309 310 311 312 313 313 314
301 301 303 301 304 309 312 311 310 311 300 305 308 309 310 311 310 311 311 310 309 310 310 310 309 310 310 311 311 312 310 312 312 312 312 309 312 310 310 310 309 310 311 312 313
301 301 302 302 306 310 311 310 310 307 302 307 309 310 310 310 310 311 311 310 309 309 309 309 308 309 310 310 309 310 309 310 311 313 312 311 312 310 308 310 310 310 310 312 314
300 301 303 303 305 308 309 310 309 306 303 309 309 312 311 309 312 310 311 310 310 309 309 307 307 307 308 308 308 309 309 309 309 310 312 309 311 311 309 309 309 309 310 312 314
300 301 302 304 305 306 309 308 308 307 308 311 311 313 312 311 312 311 311 311 312 312 311 310 310 308 308 308 307 309 311 313 313 313 311 308 310 310 308 309 309 309 311 313 314
299 303 303 305 305 310 309 307 311 307 308 310 310 313 313 311 312 312 311 312 311 310 310 306 307 309 308 309 309 309 310 311 311 310 310 307 311 311 308 309 309 310 311 310 312
304 304 304 306 306 306 307 312 308 307 310 311 310 312 312 311 312 312 313 313 312 311 313 309 309 306 307 308 309 311 311 309 311 309 311 309 308 307 306 308 308 309 309 310 310
305 305 306 305 305 306 308 311 307 310 309 310 312 311 312 311 311 313 313 309 311 310 310 310 311 307 308 307 308 310 309 311 311 312 311 308 307 309 307 306 307 310 310 312 312
305 304 304 305 306 308 309 310 308 310 310 310 311 311 310 312 310 311 309 307 308 308 309 310 310 309 310 310 310 311 311 311 311 312 312 310 308 305 307 307 311 309 312 313 313
301 306 303 306 306 303 309 307 309 310 312 313 311 311 310 310 311 310 308 306 308 308 311 309 311 312 309 308 309 309 310 310 311 309 310 308 310 308 308 310 309 310 312 313 314
304 308 304 306 309 309 308 309 310 313 313 313 312 312 311 310 311 308 307 307 308 308 309 309 312 310 307 310 309 311 310 309 309 309 310 309 309 306 305 310 311 311 312 313 313
305 309 308 307 308 307 308 309 310 311 312 313 312 311 312 313 309 310 308 308 307 309 310 310 312 309 312 312 311 312 311 310 310 312 309 309 309 308 308 309 310 310 311 312 312
308 306 305 308 309 308 309 309 310 311 311 312 313 313 313 315 313 313 309 309 308 309 310 311 311 311 312 311 311 312 312 311 312 310 310 309 308 308 308 309 309 311 312 311 311
304 308 307 307 308 307 308 308 308 310 313 313 312 313 314 315 312 311 310 309 311 309 312 312 314 312 313 313 312 312 313 311 311 311 309 309 309 308 308 309 313 313 312 310 311
302 306 309 309 308 307 306 308 309 310 311 311 312 313 314 313 312 312 312 311 311 311 312 312 311 313 314 314 315 314 313 312 312 311 310 311 310 309 308 309 310 311 310 310 311

GFSSW_850_thetae_006.txt.gz
Theta_e
316 314 316 316 318 317 316 313 304 306 308 307 316 319 320 316 315 321 321 319 317 317 318 319 319 319 320 322 324 325 325 325 324 324 323 322 322 322 321 321 323 323 323 323 323
317 316 314 316 316 319 316 314 311 305 308 307 316 320 318 313 317 319 319 321 319 318 319 320 319 319 320 321 322 324 325 323 323 324 323 322 323 323 323 323 323 324 324 323 323
314 317 315 315 315 319 317 315 314 305 309 307 314 319 320 320 322 322 322 322 321 320 322 320 320 319 319 321 322 323 325 323 324 323 323 323 323 323 323 324 323 324 324 324 324
309 313 315 314 315 316 318 316 314 306 309 309 309 318 320 322 324 320 320 319 322 321 322 322 320 319 320 322 321 322 322 322 322 324 326 326 325 325 324 323 323 324 323 324 326
306 308 312 314 314 315 317 315 314 305 308 310 308 311 318 320 320 316 316 316 320 322 322 322 320 319 320 319 320 323 321 322 322 324 323 323 324 325 324 324 325 325 326 326 326
304 305 308 312 314 315 316 316 314 306 308 311 309 309 315 320 318 320 314 314 318 322 322 321 321 320 319 318 319 319 320 320 320 321 321 322 322 322 323 323 323 323 323 325 325
303 303 305 308 313 314 315 317 314 306 307 313 311 309 312 313 312 313 317 314 318 323 321 320 320 319 319 320 319 319 320 319 319 319 320 320 322 321 320 320 321 322 322 322 323
301 302 303 305 309 314 315 318 314 306 308 311 310 309 312 311 310 310 314 317 320 320 320 319 319 318 317 318 318 319 319 321 319 318 318 318 320 319 322 322 321 321 321 320 321
302 301 302 302 306 311 315 317 313 308 312 313 312 311 313 310 311 310 312 314 314 314 314 316 314 315 316 316 317 317 319 319 318 317 319 319 321 320 319 320 321 320 321 322 322
302 302 300 302 304 310 314 316 313 311 312 313 312 311 311 311 311 311 310 312 312 313 313 313 314 315 315 317 318 317 318 316 316 316 317 318 318 318 318 318 318 318 320 321 321
300 300 301 301 303 305 313 315 313 312 311 310 311 311 311 311 311 310 310 311 312 313 315 313 315 316 315 315 314 313 315 316 315 315 315 315 316 316 316 316 316 317 317 318 319
300 300 301 303 300 301 308 312 310 311 311 310 310 311 311 311 311 310 310 311 311 313 313 313 314 314 312 312 313 313 314 315 314 313 314 314 315 315 314 314 314 315 316 316 317
299 301 302 302 302 301 306 312 312 309 311 311 311 311 311 311 312 311 310 311 312 313 313 314 312 311 312 313 313 314 315 314 314 313 313 313 315 315 314 313 312 312 312 313 314
300 301 301 302 302 302 305 307 311 311 310 310 311 310 310 311 312 311 311 311 311 312 312 313 312 311 312 313 313 314 312 312 313 313 315 311 316 314 314 313 313 313 313 313 313
300 300 300 300 301 304 307 306 309 309 318 309 309 310 311 310 310 311 310 311 312 311 311 312 311 311 311 311 311 312 311 311 312 313 312 313 314 313 313 313 313 313 313 313 313
299 299 299 301 301 302 304 309 309 309 316 311 310 311 312 310 311 311 311 310 310 311 311 311 309 310 311 311 311 310 311 311 311 311 314 313 312 313 313 313 312 312 312 312 313
299 298 299 300 301 303 304 308 309 316 309 312 311 311 311 310 312 312 312 312 313 313 313 311 311 310 309 310 310 311 311 313 314 314 313 310 311 312 311 311 312 313 312 312 313
300 304 305 303 302 304 306 307 315 311 311 310 312 311 312 311 313 312 312 313 311 311 312 313 314 311 310 310 311 311 312 313 312 311 311 310 312 311 311 311 311 311 311 310 312
302 304 303 303 302 304 304 311 314 311 311 311 312 313 312 310 313 312 312 312 311 311 313 313 311 309 310 310 310 311 312 311 313 313 314 311 311 311 311 310 310 310 310 314 314
302 305 305 304 306 305 306 313 310 310 311 311 312 311 312 312 313 312 313 312 312 312 311 311 313 309 310 309 310 311 310 313 313 313 313 311 311 311 310 310 310 310 312 313 313
301 304 303 306 304 303 311 310 311 310 310 312 312 312 312 312 312 312 313 311 311 312 311 311 310 311 310 310 311 311 311 312 312 313 312 311 310 310 310 310 313 312 312 313 314
302 304 304 305 305 304 310 307 311 311 313 313 312 312 312 312 312 312 313 310 309 311 313 311 312 313 312 310 310 310 311 310 313 313 313 312 312 310 309 309 311 311 311 312 314
302 304 305 306 310 310 308 309 312 313 314 314 313 312 311 312 313 312 311 309 309 311 312 312 313 313 314 312 310 311 311 311 312 312 313 313 311 308 309 309 309 310 310 312 314
304 306 306 306 309 309 311 311 313 312 314 313 313 312 312 312 311 312 311 310 309 310 310 310 312 314 314 316 313 315 312 312 312 314 313 314 312 310 310 310 310 309 310 315 314
303 307 307 308 310 310 310 312 312 313 313 313 313 312 313 313 313 313 311 311 309 310 311 312 314 313 312 312 312 313 314 314 312 312 313 313 312 311 310 310 310 309 311 315 313
302 307 308 309 308 310 310 311 312 313 312 313 314 313 313 313 313 314 313 312 313 311 312 312 314 313 313 313 313 314 314 314 314 313 312 312 312 311 311 310 310 313 314 313 313
302 305 309 308 309 310 311 310 310 311 312 312 312 313 313 313 312 312 311 311 311 313 313 312 313 314 315 315 315 318 316 315 314 313 312 313 312 311 310 310 311 312 312 312 312

GFSSW_850_thetae_009.txt.gz
Theta_e
315 316 317 314 316 317 318 317 315 312 305 308 308 314 319 320 320 320 319 321 322 320 318 321 320 321 321 322 322 325 328 326 326 324 324 323 324 323 322 323 323 323 323 325 328
314 314 316 317 315 316 316 318 316 314 305 308 308 316 321 318 321 320 319 320 319 317 320 321 320 320 321 321 322 325 325 324 323 323 324 323 323 324 324 323 322 323 324 325 326
305 308 313 314 315 315 316 319 316 315 308 308 307 317 322 315 320 321 321 320 321 318 321 320 320 319 319 321 322 323 325 322 323 324 324 324 323 323 323 324 324 323 324 325 325
304 304 306 311 314 314 316 318 318 315 309 307 309 315 321 320 325 323 322 322 322 323 323 322 321 320 321 322 321 322 321 321 322 322 324 324 323 323 323 323 323 323 324 325 325
303 304 305 306 310 314 314 315 318 315 308 308 309 310 319 322 321 319 318 318 321 323 323 323 322 321 322 322 322 323 322 321 321 322 323 323 324 324 325 324 324 324 324 325 325
303 303 303 305 307 311 314 315 318 315 309 308 310 309 316 321 319 320 316 318 321 323 322 322 322 321 321 321 321 321 321 321 322 322 322 323 322 322 322 322 323 323 324 325 325
303 303 303 302 303 308 312 314 315 315 309 309 312 310 314 317 315 315 317 319 321 323 323 322 321 321 321 321 320 320 322 321 320 320 321 320 322 322 321 321 321 322 322 322 323
303 302 302 303 302 304 310 314 314 316 309 310 312 312 314 313 313 311 315 318 320 321 321 321 320 320 319 320 319 320 321 323 321 320 319 319 322 321 321 322 322 321 321 321 321
302 302 302 302 302 302 307 313 314 316 308 310 311 313 314 312 312 312 314 317 316 318 320 320 319 318 317 318 319 319 322 323 322 319 319 320 322 321 320 320 320 321 322 322 322
301 301 301 301 301 301 304 311 313 313 310 313 313 313 312 313 313 313 313 315 315 315 315 315 315 317 317 319 321 321 321 319 318 317 318 319 319 319 318 318 320 320 320 320 321
300 299 299 299 302 301 304 309 314 313 314 313 313 313 313 313 312 312 312 314 314 315 316 314 315 318 318 318 318 317 316 316 317 316 316 316 316 316 316 316 317 318 318 319 319
299 300 300 301 302 303 301 306 311 311 313 313 311 312 313 312 313 312 312 313 314 316 315 315 316 316 316 315 316 316 316 316 316 315 315 315 316 316 316 316 316 316 316 316 317
299 300 300 301 302 302 304 303 309 311 313 312 311 312 312 313 313 312 312 312 314 315 315 317 315 313 315 315 315 315 316 316 316 315 314 315 316 317 317 316 315 315 314 314 315
300 300 300 301 302 303 304 304 304 310 310 314 312 312 312 313 314 312 312 312 313 315 314 315 314 312 313 314 314 316 314 314 314 314 317 314 318 315 315 315 315 315 314 314 314
300 300 299 300 301 303 305 307 304 309 319 311 312 311 312 312 312 312 312 312 313 313 313 315 312 313 313 313 313 314 312 313 313 314 313 314 315 314 314 314 314 315 315 315 315
299 300 300 300 301 302 303 304 304 309 318 312 310 312 312 311 312 312 312 312 312 312 312 312 311 312 313 312 312 312 312 311 311 311 314 313 314 314 313 312 312 313 313 313 314
301 302 301 301 300 302 302 305 308 312 311 312 311 312 312 311 312 313 312 312 313 313 313 312 312 311 311 312 311 312 312 315 316 316 316 312 312 313 312 312 312 312 312 313 313
303 303 304 305 303 301 302 308 314 314 314 311 311 311 312 311 311 312 312 312 312 312 314 314 317 313 311 311 313 311 312 314 314 313 313 312 312 312 312 312 311 312 312 312 312
303 304 304 304 303 302 301 310 310 314 312 312 311 312 313 311 313 313 313 313 312 312 315 315 314 311 311 311 311 312 313 312 314 312 313 312 312 312 311 311 312 311 311 311 311
301 304 304 303 303 303 307 313 311 312 312 311 313 312 312 311 314 313 313 313 312 312 312 313 315 311 311 311 311 312 311 313 314 313 313 312 312 312 311 311 311 311 311 311 312
302 304 306 304 304 304 310 310 312 311 312 313 313 313 312 311 313 313 313 313 313 313 312 312 312 313 311 311 312 312 312 312 312 314 315 315 313 311 311 311 312 313 312 312 313
302 306 305 304 305 307 312 309 311 311 313 313 313 313 313 313 314 314 314 312 311 312 313 312 312 314 313 311 311 311 312 311 314 314 314 314 314 311 311 311 311 311 310 311 310
304 304 305 305 310 311 308 310 312 312 314 314 313 313 313 313 314 314 313 311 310 312 313 312 313 314 316 314 312 312 312 312 313 313 315 316 314 310 310 310 310 310 310 310 311
302 307 305 305 309 311 311 313 314 313 314 314 313 313 313 313 313 314 313 312 310 311 311 312 313 315 315 318 314 315 314 313 314 316 315 315 313 312 312 312 311 311 310 310 311
303 308 308 310 310 311 312 313 314 314 314 313 313 313 313 314 313 313 313 313 311 311 311 312 315 314 313 313 314 314 314 314 314 315 316 314 313 313 312 312 312 311 310 312 314
303 306 308 309 310 311 311 313 313 313 313 313 313 313 313 313 314 314 314 313 313 312 312 312 314 314 313 313 314 316 315 316 316 315 315 314 314 312 312 311 311 311 312 314 312
304 305 307 308 310 311 312 312 313 313 313 313 313 314 314 314 313 313 313 312 313 313 313 313 313 313 315 314 315 320 318 318 316 315 315 316 314 313 312 312 312 310 311 311 312

GFSSW_850_thetae_012.txt.gz
Theta_e
305 313 315 315 316 315 316 317 318 317 314 307 307 308 313 318 318 318 320 319 318 322 318 324 321 320 320 321 322 324 326 326 325 324 324 323 323 324 323 323 323 323 323 326 335
305 305 305 313 313 316 315 316 316 318 315 313 306 308 315 320 322 322 320 321 322 322 319 322 320 320 321 321 322 323 326 327 324 322 322 324 323 323 323 323 322 322 323 325 325
305 305 305 306 310 312 314 315 316 318 316 315 306 308 317 319 320 320 320 318 321 320 315 322 321 319 320 321 322 322 324 323 322 322 323 324 324 324 323 323 323 323 322 324 325
305 304 304 304 306 309 312 314 316 318 317 315 307 308 317 318 322 322 322 320 320 319 322 321 320 320 320 320 320 322 322 322 322 322 322 323 324 323 323 322 322 323 323 324 325
304 304 304 304 304 305 308 313 314 316 317 315 307 309 315 321 321 321 321 322 322 322 323 321 321 320 321 320 320 321 320 321 321 321 321 322 323 323 324 324 324 324 323 324 324
304 304 304 304 304 303 305 311 314 315 316 314 307 310 312 320 320 320 317 319 320 322 323 322 322 322 321 321 321 321 321 322 322 322 322 322 322 322 322 322 322 323 324 324 325
304 304 304 303 303 304 303 307 312 314 316 313 307 310 314 317 317 318 318 319 321 322 322 323 322 322 321 322 321 320 321 321 321 321 321 321 321 321 321 321 322 322 322 323 323
303 302 302 303 302 302 303 305 310 314 315 312 311 311 314 314 314 315 317 319 321 322 322 322 321 320 320 319 320 320 320 322 320 320 320 320 321 319 320 321 320 320 321 321 322
302 301 301 301 299 301 302 302 308 313 313 312 312 313 313 313 314 313 316 319 320 321 321 321 321 320 318 319 319 319 320 321 322 320 320 319 320 319 320 320 321 321 321 321 321
301 299 299 299 300 299 302 301 307 312 314 312 313 313 312 314 313 313 315 317 317 319 318 319 318 317 317 317 319 320 320 319 319 318 317 317 318 317 318 318 318 319 320 321 321
299 299 300 301 300 301 303 304 308 312 313 313 313 313 312 314 313 313 314 316 316 317 316 316 316 317 317 317 318 318 318 316 315 315 314 314 314 314 315 315 315 316 318 318 319
299 300 300 300 301 301 302 303 308 310 312 313 313 313 314 313 313 313 314 315 315 316 315 315 315 315 316 317 316 317 317 316 315 315 315 314 314 313 314 314 315 315 315 316 317
299 299 300 300 301 301 303 304 304 307 313 312 313 313 313 313 314 313 313 315 314 315 316 316 315 315 316 316 315 315 316 315 315 314 313 313 314 313 315 314 314 314 314 315 315
299 300 299 300 302 302 303 305 305 304 310 313 312 313 313 314 314 313 313 313 314 316 315 315 314 313 314 315 315 315 314 314 315 314 314 313 314 313 312 312 314 315 315 315 315
300 299 300 300 300 302 303 304 303 303 317 312 312 312 313 314 313 313 313 313 314 314 314 315 314 314 314 313 313 314 313 313 313 313 311 312 312 311 311 311 312 311 313 314 314
300 301 303 303 301 300 303 302 303 307 316 312 311 312 313 313 313 312 313 312 312 313 313 313 311 312 313 313 312 311 313 312 311 311 309 311 312 310 310 312 311 311 311 312 313
301 302 303 303 302 301 302 302 308 311 311 313 314 313 312 313 313 313 313 313 313 313 313 312 312 311 311 312 312 312 312 312 313 312 310 312 311 310 310 311 310 309 310 311 311
302 304 304 305 304 301 302 305 311 311 315 310 313 313 312 312 312 313 313 313 312 312 313 312 316 312 311 311 312 312 312 312 315 312 313 311 311 310 311 311 312 311 311 311 311
302 304 303 305 305 301 301 308 310 314 312 312 313 314 312 312 312 312 312 312 311 311 314 315 315 312 311 311 311 312 311 311 313 311 310 309 310 310 310 310 310 310 311 311 311
303 305 302 304 303 301 305 311 310 310 311 312 312 312 312 312 313 313 313 312 311 311 311 313 314 311 311 311 311 311 311 313 311 307 311 310 310 310 309 309 309 309 310 312 312
303 305 304 303 303 305 309 309 310 311 311 313 312 312 311 312 313 312 312 313 311 312 311 311 312 312 311 311 312 311 312 312 311 312 311 313 310 310 309 309 310 310 312 311 312
302 306 305 305 306 306 310 307 311 312 314 313 313 312 311 311 313 312 314 313 312 312 312 311 313 310 312 310 310 311 311 311 313 309 311 312 312 311 310 309 308 308 311 310 310
304 305 305 306 309 310 308 310 312 313 314 314 313 314 311 312 314 313 313 310 312 312 312 311 312 310 313 313 311 312 311 311 311 311 312 313 312 311 311 310 311 310 310 310 310
304 306 305 305 308 309 310 313 314 313 314 313 313 313 313 313 313 313 313 311 310 312 311 312 313 310 311 312 312 312 313 313 313 315 313 314 313 312 312 312 311 310 311 311 311
306 308 307 311 311 310 311 313 314 314 314 313 313 313 313 314 313 313 312 312 311 311 311 311 311 310 312 312 311 312 312 313 314 314 315 314 314 313 313 312 312 311 311 312 314
306 306 308 310 311 310 312 313 314 313 314 312 313 313 312 313 314 313 313 312 313 311 311 311 312 312 310 311 311 312 312 313 315 316 317 317 317 314 313 312 311 311 311 312 312
304 306 307 309 311 311 313 312 313 313 313 313 314 313 315 314 314 313 313 313 313 312 312 313 313 312 310 313 312 316 316 317 317 316 316 317 316 314 314 312 311 311 311 311 310

GFSSW_850_thetae_015.txt.gz
Theta_e
305 306 306 307 309 313 314 316 316 317 318 317 313 305 308 312 316 318 317 316 316 321 321 322 320 318 320 320 321 323 322 323 324 323 322 323 320 323 323 323 323 323 322 333 337
305 305 305 305 305 308 311 313 315 316 317 317 315 306 308 316 320 320 317 319 319 317 320 321 322 320 320 320 321 320 321 323 322 320 320 322 323 323 322 322 322 322 322 332 328
305 306 305 305 305 305 308 310 313 316 317 318 315 307 309 318 319 320 320 319 322 322 322 319 321 320 320 320 321 320 321 322 323 323 322 323 322 323 321 321 322 322 322 324 324
304 305 305 305 304 304 305 306 310 315 316 318 315 308 311 319 319 321 319 321 320 320 321 318 321 320 318 319 320 320 321 321 321 321 321 321 323 323 323 322 323 322 322 323 323
305 305 305 304 305 304 305 304 307 312 315 318 315 309 310 318 319 322 322 321 320 320 317 320 321 320 319 318 318 318 319 320 321 320 320 320 321 321 322 323 323 323 323 324 323
304 304 304 304 304 304 304 305 304 309 314 317 315 310 310 317 319 320 319 322 322 321 319 322 321 320 321 319 318 319 319 320 320 320 320 320 320 321 322 322 322 323 323 323 324
304 303 302 303 303 303 303 302 303 305 311 316 315 310 311 314 318 319 320 318 319 321 321 321 322 321 321 320 320 320 320 319 319 320 319 321 319 320 322 322 322 321 321 322 322
302 301 300 300 302 301 301 302 302 303 310 315 314 310 313 310 315 317 318 319 320 321 322 322 322 321 320 320 319 319 319 321 318 319 319 320 320 318 320 320 320 321 320 321 321
301 301 300 301 301 300 300 299 301 300 309 314 313 312 312 313 314 315 317 319 320 321 322 322 321 320 319 319 317 318 318 319 319 318 319 318 319 318 319 319 317 318 320 320 320
300 300 300 300 300 301 300 302 303 302 309 313 312 312 312 313 314 314 317 319 320 321 320 319 319 316 316 318 320 316 318 317 317 317 318 317 316 315 318 316 315 316 317 320 320
299 299 299 300 300 301 301 302 304 307 309 313 310 311 313 313 313 313 317 318 319 318 316 317 316 317 314 314 314 316 317 316 314 313 313 312 312 311 312 313 313 314 314 316 318
299 299 299 300 300 301 301 302 304 306 309 311 312 313 313 313 313 313 315 316 317 317 313 313 314 313 315 315 316 315 316 315 313 313 313 312 312 312 312 312 313 313 313 314 315
299 300 300 300 300 302 302 303 304 303 308 313 313 313 313 314 313 313 315 315 314 315 315 313 314 314 314 315 315 314 314 314 314 312 310 310 311 311 311 311 312 312 313 313 314
300 300 300 300 301 301 302 303 305 303 307 313 313 313 313 313 314 313 314 314 315 316 314 315 313 314 314 315 314 315 312 313 313 311 312 309 312 309 310 310 311 313 313 314 314
300 301 301 302 304 301 301 302 303 303 313 311 312 313 312 313 313 312 314 313 314 314 314 315 313 314 313 313 312 313 311 311 311 310 308 309 310 308 309 310 310 309 311 312 313
300 301 302 303 303 301 301 302 302 305 311 313 312 313 313 313 313 312 312 312 312 313 313 312 311 311 312 312 311 311 310 310 309 308 305 307 309 307 308 310 311 309 310 311 312
302 303 304 303 303 302 301 303 305 306 310 313 315 313 313 313 313 313 313 312 311 312 313 312 311 310 310 311 311 310 308 304 310 312 309 309 310 309 308 308 309 308 309 311 311
304 303 303 304 304 302 301 305 307 312 312 312 314 313 314 313 312 313 313 312 311 310 307 307 309 310 309 310 310 310 309 307 313 311 311 309 311 309 308 309 309 310 310 310 311
303 302 304 304 303 301 303 304 307 310 312 313 313 314 313 313 312 312 312 312 310 309 309 307 311 310 309 310 310 310 309 308 308 308 302 307 307 307 308 307 308 308 310 310 311
303 303 302 303 301 301 305 310 307 306 312 312 312 311 313 313 311 312 312 310 310 309 309 312 310 311 311 310 310 309 309 307 302 304 310 308 308 309 307 308 307 309 310 311 311
304 303 302 301 302 305 309 308 309 310 311 313 311 311 311 313 311 312 311 310 309 310 309 311 310 311 311 310 310 310 308 309 307 307 307 311 309 306 307 308 307 305 309 310 311
304 305 304 305 306 305 309 308 309 310 311 313 311 310 309 312 311 310 310 311 310 310 311 311 311 309 309 308 308 309 309 309 307 305 307 305 311 308 308 307 308 309 310 310 310
305 305 305 305 309 308 308 311 312 314 314 314 313 311 310 309 313 311 311 309 311 311 310 310 309 306 312 311 310 310 309 309 309 309 310 311 310 307 307 309 311 311 310 311 312
304 302 304 306 307 309 309 313 312 312 313 313 312 310 310 312 311 312 311 310 311 311 311 310 311 305 309 307 311 309 311 310 311 313 312 311 311 310 311 312 313 312 312 311 311
306 306 307 302 307 307 311 312 313 314 313 312 312 312 312 312 312 311 311 310 310 311 311 311 307 307 310 310 310 310 311 311 311 312 314 313 313 313 314 315 313 312 311 311 312
306 305 306 308 308 309 311 312 314 313 313 312 312 312 313 313 313 312 312 311 310 310 310 309 309 310 308 309 310 310 310 310 311 311 312 313 314 314 314 314 313 310 310 310 311
304 305 305 307 307 310 310 312 313 313 312 312 312 313 314 313 313 313 312 312 310 311 311 312 309 305 304 310 310 312 312 312 314 315 316 318 316 315 314 312 310 308 309 310 310

GFSSW_850_thetae_018.txt.gz
Theta_e
306 306 306 306 306 306 308 312 313 315 317 319 317 315 306 308 312 314 315 313 313 320 319 321 322 320 318 320 321 322 320 322 322 321 320 321 321 322 322 322 322 322 324 327 336
305 306 306 305 306 306 305 307 309 313 315 317 318 315 308 308 314 316 313 315 315 320 319 321 323 319 320 320 320 319 319 322 320 320 321 320 321 322 321 320 322 321 325 335 337
306 305 306 306 304 305 305 305 305 308 313 317 319 316 310 312 318 317 316 318 317 317 320 321 321 320 320 319 320 319 319 320 322 323 322 320 320 322 321 320 320 320 330 335 338
306 306 305 305 305 304 304 304 305 305 312 315 316 317 311 314 318 320 319 319 321 320 319 321 320 320 318 319 320 320 319 321 320 321 320 319 321 321 322 322 322 323 322 329 337
304 306 305 305 304 304 304 303 304 305 310 314 315 317 311 313 317 321 320 319 322 321 321 320 319 320 317 317 319 317 318 320 320 320 320 320 319 319 321 323 322 323 323 323 323
303 304 303 303 304 304 304 303 303 302 305 313 315 315 311 314 315 318 321 321 321 319 319 317 320 320 320 318 317 317 318 319 319 319 319 319 319 320 321 321 321 322 322 322 322
302 302 301 301 302 301 303 302 301 302 298 312 315 315 310 311 319 319 319 321 321 320 318 316 321 320 320 320 320 319 319 318 318 319 319 320 319 318 321 321 321 320 320 320 320
302 301 301 300 300 301 299 301 300 299 297 311 315 314 310 308 317 319 319 318 319 321 319 320 322 321 320 319 318 319 318 320 318 318 318 319 320 317 319 320 320 321 320 320 318
301 301 300 300 300 301 301 300 298 301 299 306 312 311 309 310 313 317 319 319 319 321 321 321 322 320 318 317 317 315 318 318 318 317 317 317 319 317 318 318 317 318 319 318 319
301 300 300 300 300 300 301 301 301 302 300 307 312 310 311 312 313 315 318 319 320 321 321 321 320 319 316 318 318 316 317 316 317 315 315 315 317 315 317 316 316 316 316 316 317
301 300 300 300 301 300 301 301 303 304 305 310 311 311 311 312 313 314 317 318 320 319 320 318 319 321 318 316 314 316 316 315 314 313 312 312 310 311 312 311 311 312 314 315 316
300 300 300 300 300 300 302 302 303 304 305 308 310 312 312 313 314 314 316 318 319 317 314 315 319 316 314 315 316 317 315 314 312 312 312 311 311 311 310 311 312 312 313 313 314
299 300 300 300 301 302 301 303 303 303 306 307 311 312 313 313 313 313 315 316 317 315 314 315 314 313 314 314 315 313 313 313 313 311 310 309 310 309 309 310 311 312 313 312 313
300 300 300 302 302 301 302 302 304 303 303 311 311 313 313 313 313 313 315 315 315 315 314 314 313 314 313 315 313 314 311 312 312 311 311 309 311 308 308 308 309 310 311 313 313
301 302 302 302 303 302 301 301 303 303 309 311 312 312 313 313 313 313 314 313 314 315 315 315 313 312 313 314 312 312 310 311 310 309 308 308 310 307 306 308 307 307 312 312 312
302 302 303 303 303 302 302 301 303 304 307 311 312 313 313 312 313 313 313 313 313 315 313 311 311 311 312 310 310 311 309 307 307 306 304 306 309 307 306 309 310 309 309 310 311
304 303 303 304 302 302 301 303 301 304 305 313 314 313 313 313 313 314 313 312 314 314 315 312 310 309 310 310 310 308 307 304 303 301 307 307 308 307 306 306 307 306 308 310 310
302 304 303 304 302 301 302 302 306 308 311 313 313 312 314 312 313 314 313 313 310 308 311 309 309 310 309 310 310 309 307 306 309 309 308 307 310 308 307 308 308 308 309 309 309
303 303 304 302 301 302 303 305 306 308 313 313 312 313 313 312 313 312 312 312 310 309 309 307 310 309 309 309 309 309 306 307 306 305 301 306 305 305 306 307 307 308 310 311 311
302 301 303 302 301 302 305 309 307 306 311 311 312 311 313 312 312 312 312 310 310 308 309 310 309 310 310 309 309 308 307 305 298 301 308 307 306 308 307 308 306 306 306 309 310
303 303 303 304 305 304 308 308 309 311 311 312 310 310 311 311 310 311 310 309 308 309 308 310 307 309 310 309 309 309 306 306 305 304 306 310 309 304 306 307 306 305 309 310 311
304 299 304 306 306 306 307 306 308 311 311 312 309 309 311 311 310 310 310 309 309 309 310 310 308 303 309 308 307 308 308 307 302 303 304 305 309 306 305 306 307 309 311 312 312
304 304 305 305 308 309 308 311 312 314 313 313 311 309 309 309 310 309 310 309 309 309 309 309 308 304 309 310 309 309 308 308 307 305 302 310 309 306 305 309 310 311 313 313 312
304 299 305 306 307 308 310 310 312 312 312 311 309 310 310 310 310 311 310 309 310 310 310 310 308 304 307 305 308 307 310 308 308 310 309 309 309 309 309 311 312 314 314 313 312
306 306 306 304 306 308 310 311 312 313 312 311 311 310 311 312 311 311 310 309 310 312 312 309 306 306 308 308 308 309 309 309 308 310 311 311 311 311 311 312 314 313 311 310 310
304 305 305 305 308 308 309 311 312 312 312 312 313 312 311 313 312 311 310 309 309 309 309 309 310 309 310 307 308 308 309 309 310 310 311 311 311 311 313 314 312 309 308 308 309
304 305 305 306 305 308 308 311 312 312 311 312 312 313 313 313 312 311 310 310 309 308 308 309 308 307 303 307 308 310 309 310 310 309 310 315 314 315 315 313 308 305 302 304 307

GFSSW_850_thetae_021.txt.gz
Theta_e
307 307 306 306 305 305 305 306 307 312 313 316 317 319 316 309 308 312 314 309 310 317 318 319 322 320 322 319 320 321 319 321 319 318 318 319 320 321 322 320 321 321 325 327 332
307 308 307 307 307 305 304 305 305 307 311 312 315 318 317 314 311 313 308 311 311 319 321 321 321 321 321 319 320 319 319 321 319 318 320 319 320 320 321 320 320 321 323 326 337
306 306 306 307 306 307 306 304 304 306 306 311 314 318 317 314 312 310 307 310 314 320 319 321 322 320 319 319 319 318 319 319 321 322 322 320 320 321 321 320 319 320 333 338 338
303 302 303 305 306 306 304 305 304 304 305 308 313 316 318 313 315 321 318 313 315 319 321 321 321 319 317 318 319 319 318 320 320 321 321 319 320 320 321 321 321 322 323 336 339
304 304 303 303 304 304 304 304 303 304 304 306 312 314 317 312 311 321 320 318 318 318 319 321 322 319 318 317 318 317 318 319 320 320 319 319 318 318 319 320 320 322 322 322 327
303 302 302 302 302 302 304 303 303 301 302 303 311 313 314 312 311 313 319 320 321 321 321 320 319 320 318 317 317 317 318 318 318 318 319 319 318 319 319 320 320 320 320 321 322
303 303 302 302 302 301 301 303 303 302 303 303 308 311 313 312 313 314 318 319 322 321 320 321 319 320 319 318 319 319 318 318 317 318 318 319 318 317 319 320 320 320 320 320 319
302 302 302 301 301 302 300 301 302 301 300 302 304 310 312 314 315 319 318 320 319 318 318 317 321 320 320 319 317 318 316 319 317 317 318 319 320 316 318 319 319 320 319 319 319
302 301 301 301 301 300 300 301 301 299 301 304 306 312 312 312 310 317 318 319 320 321 320 316 320 320 318 316 316 315 317 318 317 316 317 317 318 316 318 318 317 318 318 318 318
301 301 300 299 300 301 300 301 301 301 303 302 308 311 311 311 310 317 318 318 319 320 320 320 320 316 314 315 318 316 317 316 317 315 314 313 313 315 317 316 316 317 318 318 318
301 300 301 300 301 300 300 301 303 302 304 307 311 311 311 312 310 316 317 319 319 320 321 318 321 321 317 314 314 313 315 316 314 313 312 311 310 310 310 311 310 312 314 316 317
300 299 300 300 301 301 302 302 302 303 303 308 310 311 312 313 312 314 314 318 319 319 316 317 320 319 317 316 317 318 318 315 312 311 312 310 310 310 310 311 312 312 313 313 314
301 301 300 301 302 301 300 302 303 304 305 307 309 311 312 313 313 313 314 317 315 317 317 319 317 315 316 316 317 315 314 313 313 310 309 308 309 309 308 309 310 311 312 312 312
301 302 302 302 302 301 301 301 303 303 299 308 308 312 313 313 313 313 316 316 315 315 315 315 312 317 314 314 312 313 311 312 311 311 311 308 311 308 307 307 306 308 310 311 312
302 301 301 301 303 302 301 302 304 303 300 309 309 312 313 313 312 313 314 315 315 315 315 314 312 314 314 314 311 313 310 310 309 308 308 308 309 307 304 307 307 305 308 310 310
304 303 303 302 303 303 302 301 303 297 310 310 312 314 313 312 313 313 313 314 314 315 312 310 310 311 311 309 310 309 308 306 305 305 304 306 308 307 305 307 306 305 310 310 310
303 302 303 302 302 302 301 302 298 303 305 312 314 313 313 314 314 314 313 312 314 316 315 312 309 309 309 310 309 307 307 303 303 302 306 306 307 307 306 306 305 305 308 309 309
303 303 302 301 301 301 303 302 306 308 307 312 313 313 314 313 314 314 313 312 309 309 311 312 311 310 309 310 311 309 308 304 307 306 307 306 309 308 306 306 306 308 308 310 310
301 301 301 301 303 303 303 306 307 307 308 314 312 313 314 312 314 313 313 312 310 308 309 306 310 309 309 309 308 309 305 306 305 302 300 305 304 304 304 305 306 307 308 309 310
302 302 301 302 302 304 305 309 307 306 311 309 311 311 313 312 313 312 312 311 310 308 308 308 309 310 309 309 308 308 306 306 298 300 307 306 305 306 307 307 305 304 307 309 311
303 304 304 305 305 305 308 307 311 312 311 310 310 310 310 311 311 311 310 309 308 308 308 308 307 310 309 309 309 309 306 305 304 303 304 308 307 303 305 306 306 305 308 310 312
304 299 305 306 304 304 307 306 308 311 310 311 308 310 311 309 310 309 309 308 308 307 309 309 306 304 309 307 306 307 308 306 303 301 302 303 308 305 304 305 307 308 310 312 313
304 304 306 307 309 310 308 311 310 312 312 312 309 310 309 308 310 308 309 308 308 308 308 308 305 302 309 309 308 309 307 306 304 302 301 307 308 305 304 307 308 310 312 313 312
305 300 306 307 307 308 309 309 311 311 311 309 309 309 309 310 308 309 309 309 308 309 309 309 306 303 306 304 306 306 308 307 306 306 307 308 308 309 308 308 310 313 311 311 311
305 305 306 307 309 309 309 310 311 312 311 310 309 309 310 310 310 310 309 309 310 311 310 308 306 304 307 307 307 308 309 308 305 309 308 309 308 309 309 310 313 311 309 308 306
304 305 305 305 305 306 307 310 311 311 311 312 311 311 310 311 310 310 309 308 311 309 310 308 310 307 308 307 307 308 308 308 308 309 308 309 309 309 310 314 314 309 305 304 303
303 304 305 305 303 306 307 310 311 311 311 311 311 311 312 312 311 309 309 309 308 308 308 308 308 307 305 305 307 309 308 308 308 308 308 309 310 312 314 315 310 306 303 302 301

GFSSW_850_thetae_024.txt.gz
Theta_e
306 307 308 308 309 308 307 306 306 307 308 312 314 316 318 317 313 311 313 311 310 317 318 317 323 322 322 319 320 320 318 319 318 318 318 318 319 320 321 321 320 320 320 326 329
305 305 306 306 305 307 307 308 305 303 305 308 312 313 316 317 315 313 307 307 310 319 323 318 322 323 322 319 320 319 318 320 317 316 317 319 320 320 321 320 320 320 325 325 331
305 305 305 305 305 305 306 307 305 303 303 305 307 311 314 316 315 315 315 307 310 318 322 321 321 321 320 318 318 317 319 318 320 320 321 320 321 320 320 320 319 319 322 335 336
304 304 304 303 304 304 305 304 304 305 305 304 304 309 312 315 314 319 316 309 308 317 323 322 321 319 317 317 318 319 318 319 320 321 321 319 320 318 320 320 320 321 321 326 336
304 304 304 302 302 302 303 303 305 305 305 304 304 307 311 315 314 319 320 319 310 319 323 322 321 318 317 317 317 317 317 319 320 320 319 319 318 318 318 320 320 320 320 322 323
303 303 303 303 302 302 302 302 303 302 304 303 304 307 311 314 315 315 316 319 314 318 321 322 321 319 318 316 317 317 318 318 318 318 318 317 317 318 319 320 320 320 320 320 320
302 303 302 302 302 301 302 301 302 302 304 305 305 306 309 313 313 314 311 318 316 318 320 321 320 319 318 316 318 317 318 317 316 317 317 318 317 316 319 319 319 319 319 319 320
302 302 302 299 300 301 300 301 301 301 302 304 305 306 310 313 313 317 318 318 318 320 318 319 318 320 319 318 316 317 316 319 317 316 318 318 317 316 318 318 318 318 318 318 319
302 302 302 301 300 299 300 300 300 301 302 304 304 305 311 312 313 315 318 319 320 320 318 318 319 319 317 314 317 316 317 317 318 315 316 316 317 316 316 316 316 317 317 317 317
303 301 301 301 301 301 300 300 301 301 301 302 303 310 311 312 314 314 318 319 319 318 317 318 319 316 313 317 316 316 317 316 316 314 314 314 312 311 313 313 315 315 316 317 318
302 300 301 300 301 300 301 301 302 301 303 303 307 310 311 313 312 310 317 318 319 318 317 318 320 320 317 314 313 313 314 316 314 313 313 312 310 309 311 310 311 312 314 315 317
301 300 301 300 301 302 301 302 302 301 302 304 308 309 311 312 312 314 317 318 319 320 317 319 321 317 314 314 315 315 316 316 313 311 311 309 309 309 310 310 312 313 314 315 315
304 299 301 302 302 302 301 301 302 303 304 307 309 311 312 312 313 313 315 317 317 318 318 319 318 318 317 317 318 316 317 314 314 310 308 307 309 308 307 308 308 309 310 310 311
304 305 302 302 302 302 300 301 302 303 296 304 309 312 313 312 313 313 315 315 315 314 312 315 313 318 317 318 314 315 311 312 311 311 313 307 311 307 307 305 305 306 307 308 310
302 302 303 301 301 301 302 302 303 303 294 306 308 311 312 312 312 313 314 315 315 315 314 314 313 317 316 315 311 313 309 309 308 307 307 307 308 307 304 305 307 304 307 307 307
302 303 302 301 302 302 301 302 303 296 304 310 311 313 312 312 313 313 313 314 314 313 312 311 310 311 311 309 310 307 307 305 304 305 304 305 306 306 306 306 304 304 306 309 310
302 302 302 302 303 302 301 302 297 303 305 312 313 312 312 314 314 314 313 312 315 315 314 311 310 309 309 310 308 307 307 304 302 302 307 305 307 305 305 305 305 304 307 309 310
301 301 302 302 302 302 303 299 307 308 308 312 313 312 314 313 314 314 312 312 309 310 310 312 314 310 309 310 310 309 307 305 304 304 306 305 308 307 305 306 305 306 307 309 310
302 303 303 302 302 302 303 301 304 307 307 313 312 313 314 313 314 314 312 311 309 308 309 307 310 308 308 308 308 309 305 305 303 300 300 304 303 302 304 304 304 306 309 311 312
303 303 304 305 304 304 304 310 308 306 310 308 311 310 313 313 313 314 312 310 309 308 307 307 309 309 309 308 307 308 306 307 299 301 306 305 304 306 306 305 303 304 307 310 312
304 304 305 305 305 306 307 308 312 311 311 309 309 310 310 311 311 311 310 308 308 307 307 306 307 310 309 309 309 308 307 304 303 302 304 306 306 302 304 305 306 304 308 310 312
304 300 306 307 306 305 309 308 309 311 311 310 308 309 309 309 309 309 309 308 308 307 309 308 306 304 310 307 306 307 307 304 301 301 303 302 307 305 304 304 305 307 309 311 312
304 304 307 308 309 309 307 310 309 311 311 311 309 309 308 308 310 308 308 308 308 307 308 308 305 303 309 308 307 308 306 304 302 300 300 304 307 304 304 305 307 309 312 313 310
306 301 307 308 307 309 309 309 310 310 310 308 308 308 308 309 307 308 308 309 308 308 309 308 305 304 305 304 306 306 307 305 304 301 305 305 306 307 307 308 309 310 313 309 307
305 304 305 305 305 306 307 308 310 311 310 309 308 309 309 310 310 309 309 309 309 310 309 307 304 303 306 307 306 308 308 306 305 305 304 307 307 307 308 309 309 312 310 308 306
303 303 304 304 304 304 305 308 310 310 310 310 309 311 309 309 309 309 308 308 310 309 308 307 307 305 303 306 306 307 307 307 306 307 307 308 308 308 308 309 312 313 307 305 304
302 302 302 303 302 305 306 309 310 309 310 310 310 310 311 311 310 309 308 308 308 307 308 309 307 304 305 305 306 308 306 307 307 307 308 309 308 309 309 311 314 310 306 303 302

GFSSW_850_thetae_027.txt.gz
Theta_e
305 306 306 305 306 306 306 308 308 307 305 307 308 311 314 316 319 316 313 310 307 313 318 316 325 322 319 319 320 320 321 320 321 318 318 317 317 319 319 320 320 319 319 324 327
305 305 304 304 304 304 306 305 307 308 306 305 305 308 311 313 318 317 315 311 308 320 320 315 324 323 322 318 319 319 321 320 316 317 317 318 319 320 320 319 320 319 325 324 327
304 305 305 305 304 304 304 305 305 305 306 306 305 306 308 312 315 317 316 315 307 311 320 319 322 323 321 318 318 318 320 318 319 317 319 319 320 320 319 320 319 319 324 332 332
304 305 304 303 303 304 303 303 305 305 305 305 305 305 306 310 317 316 317 314 313 313 320 322 321 321 318 318 318 319 318 318 320 321 320 320 320 318 320 320 320 320 320 321 334
304 304 304 303 303 304 303 303 302 302 304 304 305 305 306 309 313 316 318 318 317 318 320 321 320 320 319 317 317 318 317 319 320 319 319 319 318 319 318 319 319 320 320 320 322
304 303 303 302 302 301 302 302 302 301 302 304 304 304 305 311 313 314 315 314 314 318 320 320 319 319 318 317 317 317 318 318 318 318 318 317 317 317 318 318 318 318 319 319 320
303 303 303 303 302 302 301 301 300 300 302 303 303 304 306 310 313 313 315 314 317 317 319 320 319 318 317 316 317 316 317 316 316 316 317 317 317 316 318 318 318 317 318 319 319
302 303 303 302 302 301 301 300 300 301 301 302 303 304 305 309 313 313 316 315 319 317 319 320 320 319 318 316 316 317 317 320 317 316 316 317 315 316 317 318 318 318 318 318 318
301 302 301 301 301 301 301 301 300 300 302 302 303 303 308 309 313 313 315 317 318 318 318 318 320 319 316 316 317 316 318 317 318 316 316 317 318 316 316 315 315 316 317 317 317
303 302 301 301 300 301 301 301 301 301 301 302 302 305 308 311 312 312 314 318 319 318 318 318 318 318 316 317 319 318 317 316 317 314 314 315 315 313 314 312 312 313 316 317 317
305 304 301 301 300 301 301 301 301 301 302 301 302 307 311 312 313 312 314 319 319 318 319 317 318 317 317 315 312 313 315 317 315 312 313 313 312 311 311 310 311 312 314 316 317
303 303 302 302 301 302 301 301 302 301 301 300 304 305 308 312 313 312 316 319 312 317 317 318 319 316 315 313 313 314 314 315 313 310 311 310 310 311 311 310 311 311 311 312 312
303 302 304 301 302 302 301 300 302 302 303 307 309 306 311 312 313 314 316 316 312 312 314 318 319 315 316 316 317 315 315 314 315 310 307 308 311 309 308 307 307 306 306 308 309
303 302 304 301 301 301 300 301 302 303 295 307 309 310 312 312 313 313 315 315 315 314 316 316 315 317 317 317 317 318 313 312 311 312 315 307 316 309 306 306 306 304 305 305 306
302 303 303 301 301 301 301 302 302 303 298 306 308 309 312 311 313 314 313 315 314 312 314 313 315 319 319 318 313 314 309 309 308 308 308 308 310 309 304 307 306 304 306 308 309
301 302 302 301 301 301 301 302 302 297 302 309 308 312 312 313 313 312 312 313 313 313 312 311 312 312 313 313 312 307 306 305 305 306 310 306 308 307 306 306 306 304 306 308 311
302 302 301 302 301 301 301 302 297 304 304 311 313 312 313 314 313 313 313 312 315 315 314 312 310 309 309 310 309 308 310 310 308 308 312 305 308 307 305 305 305 304 307 311 313
302 304 304 303 302 302 302 298 302 307 307 311 312 311 314 313 313 313 313 313 308 310 312 314 315 310 308 310 311 308 309 310 310 307 308 305 310 308 304 303 304 306 309 312 313
303 303 305 305 304 303 302 304 301 307 307 313 311 311 313 313 314 314 311 311 309 308 311 310 311 308 307 307 308 309 307 304 304 300 305 304 304 303 304 304 304 306 309 310 311
304 304 305 306 305 305 305 311 310 307 309 308 311 310 312 313 313 313 311 310 309 307 306 307 310 309 308 308 306 308 305 309 303 304 307 305 305 307 306 305 305 306 306 310 312
306 305 307 308 307 307 308 310 311 311 310 309 309 309 310 311 310 311 310 308 308 307 306 306 308 310 309 309 309 308 307 304 304 304 308 308 307 303 305 305 306 306 308 310 313
304 302 308 308 306 307 310 308 309 310 311 308 308 308 308 308 309 309 309 308 308 307 309 307 306 309 310 306 306 307 307 304 306 305 303 305 308 305 304 303 305 306 308 312 312
305 305 308 308 309 309 307 308 309 310 310 310 309 309 307 308 309 308 308 307 307 307 308 307 305 305 310 308 307 308 306 304 302 302 305 309 309 304 303 304 307 307 310 313 310
305 300 307 308 307 308 308 308 309 310 309 307 308 307 307 308 307 308 308 308 307 308 309 307 305 304 306 305 307 308 307 305 305 306 306 306 306 307 306 306 307 309 311 312 308
305 304 304 304 304 304 306 308 309 310 309 308 308 308 308 309 309 309 308 309 308 310 308 307 305 303 306 306 306 307 308 306 305 306 307 306 306 307 307 307 307 309 312 309 306
302 303 304 304 303 303 304 308 310 310 310 309 309 310 308 308 307 308 308 308 308 308 308 306 308 304 303 306 306 308 307 306 307 307 306 307 308 308 308 308 311 313 308 306 304
300 301 302 303 300 303 304 308 310 308 310 310 310 310 310 310 310 309 308 308 307 307 307 308 307 302 305 305 306 308 306 307 307 306 307 309 308 307 308 309 312 310 307 304 302

GFSSW_850_thetae_030.txt.gz
Theta_e
306 306 306 305 305 305 304 305 306 307 309 306 304 307 309 312 314 319 317 316 312 316 312 314 323 325 320 320 320 321 326 328 327 326 324 320 321 320 319 320 321 320 322 327 326
305 306 305 305 305 305 305 305 304 305 308 307 305 304 307 309 311 315 318 316 312 317 319 317 323 324 321 320 320 320 324 324 323 323 323 320 320 321 321 321 321 321 323 324 323
305 305 305 304 304 304 303 303 303 305 305 305 306 304 304 307 311 312 316 317 314 319 319 318 322 323 321 320 320 319 321 321 320 320 319 320 321 321 321 322 321 321 323 331 328
304 304 305 304 303 304 303 303 303 303 305 305 305 306 303 307 311 314 316 317 317 315 319 320 322 323 322 321 320 321 318 319 320 321 321 321 321 321 321 320 321 322 321 322 336
304 304 304 303 303 301 301 302 303 302 302 305 305 304 303 307 308 314 317 317 320 317 319 320 320 322 322 321 319 320 320 319 320 321 322 320 321 321 321 321 320 320 320 321 322
303 303 302 303 303 302 301 301 301 301 301 303 303 303 305 307 307 310 314 315 320 316 318 320 318 320 320 321 320 319 319 319 320 320 320 321 321 320 320 320 319 319 318 320 321
303 303 302 303 303 303 302 302 302 303 301 301 303 303 304 305 311 311 312 315 318 317 319 320 318 319 319 319 319 319 320 319 319 319 320 319 320 320 319 318 318 318 318 319 319
304 304 303 303 301 301 301 301 301 302 302 301 302 303 304 305 311 312 313 314 317 318 319 319 318 318 318 317 318 319 318 320 318 319 318 318 318 317 317 318 318 317 317 317 317
304 305 304 303 302 301 301 301 302 302 302 302 303 304 305 307 310 313 314 315 318 318 319 318 318 319 317 319 319 318 317 317 318 318 317 318 316 316 316 317 317 317 317 317 317
303 303 304 301 301 301 301 301 301 301 302 302 303 304 305 309 312 313 313 315 318 317 319 318 318 320 318 318 317 318 316 317 316 317 318 320 318 319 318 317 316 316 316 316 317
303 302 303 300 300 301 301 301 302 303 303 302 302 305 309 310 312 313 313 314 318 318 318 317 320 321 317 317 316 317 316 316 316 315 317 317 318 317 316 316 315 316 316 316 316
303 303 303 302 301 302 301 302 302 302 302 301 303 304 306 310 313 313 314 315 318 318 318 319 320 318 316 316 317 318 317 317 317 313 315 316 316 316 316 316 315 315 315 315 315
303 303 300 302 302 301 301 301 301 302 305 307 305 306 308 312 313 314 313 312 317 318 318 318 318 315 317 316 318 318 317 317 317 315 312 314 317 315 311 310 308 307 307 308 310
302 303 301 302 301 300 301 301 302 303 308 307 308 309 311 312 315 314 312 314 313 313 317 317 316 316 315 317 317 318 317 316 315 318 318 312 317 316 311 310 310 308 308 309 310
303 301 301 301 301 302 301 302 302 302 312 307 307 309 311 313 313 312 311 314 313 310 314 313 317 318 318 317 317 317 314 314 313 315 314 313 316 313 310 311 310 310 310 310 311
304 305 301 301 301 301 301 301 302 309 312 310 309 312 313 314 313 312 313 312 312 312 312 313 311 312 314 313 315 310 312 312 312 313 319 312 313 312 311 311 310 309 310 311 312
302 303 305 304 302 302 302 303 311 312 306 313 313 313 314 315 313 312 313 314 315 316 316 312 311 310 310 313 310 311 315 320 320 321 319 309 311 313 310 309 309 310 312 312 313
303 303 304 305 304 303 304 307 314 310 311 311 313 313 314 314 313 314 314 314 311 313 317 318 317 311 309 312 314 313 316 320 318 315 313 308 312 312 309 308 307 309 309 312 313
304 304 305 306 305 304 305 313 311 309 310 312 311 313 314 314 314 314 314 314 311 311 316 315 314 309 308 309 312 313 317 308 312 307 313 311 310 308 308 307 308 309 311 313 313
305 305 306 307 307 306 311 312 311 308 310 311 313 312 312 313 313 314 314 312 311 309 309 311 315 310 309 309 309 312 309 314 314 316 315 310 309 312 310 309 309 311 313 313 315
305 307 308 308 308 310 312 312 312 311 311 311 312 312 313 313 313 314 312 311 310 310 309 310 314 312 311 312 312 310 312 309 311 311 314 311 312 310 311 311 312 311 312 312 314
304 312 308 308 312 311 312 310 310 312 311 310 310 311 312 311 312 313 311 312 309 310 312 309 312 313 313 309 308 309 311 310 313 313 310 312 313 309 310 309 309 310 311 312 313
305 306 309 308 314 313 310 311 310 312 311 311 311 310 309 311 312 311 311 308 309 310 311 310 311 313 312 311 309 311 310 308 307 309 312 314 313 308 308 309 310 310 312 313 310
305 311 309 308 307 311 312 312 312 310 310 309 310 309 310 310 310 311 310 310 308 309 309 309 309 312 312 313 311 312 311 309 310 313 311 311 311 310 310 312 313 312 312 312 309
305 305 305 311 310 309 309 311 312 313 311 309 310 310 310 311 311 311 310 309 309 310 309 310 313 309 309 309 310 311 311 309 310 311 313 311 310 311 311 312 312 312 313 311 308
303 304 304 305 304 308 308 312 312 312 312 311 311 310 310 311 310 311 311 311 311 310 310 309 313 309 310 308 309 310 310 310 310 310 310 311 311 311 311 310 312 314 310 309 305
300 301 302 304 306 308 309 310 311 310 311 311 312 312 312 312 311 310 309 310 310 310 310 311 310 311 313 308 309 311 310 311 310 310 310 311 311 311 311 311 312 312 309 305 304

GFSSW_850_thetae_033.txt.gz
Theta_e
307 306 306 306 306 305 305 306 305 304 306 310 308 304 305 309 312 313 317 319 318 314 311 315 323 326 322 321 321 323 328 331 330 328 327 325 325 323 322 321 321 322 325 332 340
306 306 305 306 306 305 304 305 305 306 305 307 308 306 304 306 309 312 315 319 318 315 320 315 322 325 321 321 321 323 329 329 327 326 326 325 323 322 322 321 321 322 326 334 333
306 305 305 305 305 305 304 304 303 303 305 307 306 307 306 302 308 309 314 316 318 315 321 315 320 324 321 320 320 320 323 324 324 322 323 324 322 321 322 322 321 321 324 335 337
305 304 304 304 304 304 302 302 303 302 303 305 305 305 306 307 309 309 314 315 318 318 319 318 319 323 322 321 320 320 319 320 322 320 320 321 321 322 322 322 322 323 323 325 337
305 306 303 303 303 303 303 302 302 303 302 303 305 306 305 307 307 313 315 316 316 317 318 319 317 321 323 321 320 320 320 319 320 321 320 320 321 321 321 322 322 322 322 323 324
305 305 305 304 303 303 303 302 302 301 301 303 303 304 305 308 306 307 315 317 314 317 317 317 316 321 321 320 320 320 320 320 320 321 321 322 321 321 321 321 321 320 320 321 322
304 305 306 304 303 302 303 302 302 302 302 302 303 305 305 306 308 308 310 315 317 317 315 317 317 320 319 320 320 319 321 320 319 320 321 321 322 322 321 321 320 320 320 319 319
304 304 304 305 303 301 302 302 301 301 301 302 301 305 305 304 305 308 311 310 313 319 315 317 317 318 318 318 319 319 320 321 319 320 320 320 321 321 321 320 320 319 319 318 318
304 303 303 304 302 300 301 301 301 302 302 302 303 305 305 307 305 306 311 313 313 318 316 320 318 318 318 319 320 319 318 319 318 318 320 320 320 319 318 317 319 319 319 318 318
303 303 303 301 301 301 301 301 301 301 302 304 305 304 304 307 309 310 312 312 316 317 318 319 318 317 317 318 318 317 317 316 317 319 318 319 319 318 318 317 317 317 317 317 317
304 303 301 301 301 301 302 303 304 304 304 304 303 305 307 308 310 311 310 316 317 317 319 320 321 321 318 316 315 315 316 315 316 316 318 318 318 317 318 318 317 317 317 317 317
303 301 302 301 301 302 303 303 303 303 304 303 303 304 306 308 313 313 313 314 316 318 316 318 322 317 317 316 317 317 316 316 317 317 316 316 317 317 317 317 316 316 316 316 316
301 302 302 301 301 303 303 303 302 303 306 306 305 305 309 311 313 314 313 312 315 316 318 319 318 317 317 317 317 317 317 316 317 316 316 316 316 316 316 314 314 311 311 312 314
302 301 300 301 304 303 303 302 303 303 309 309 308 309 311 312 314 312 311 310 309 317 318 317 317 318 318 318 316 317 316 317 317 317 316 316 314 317 314 312 312 311 311 311 312
303 304 301 300 301 304 302 302 303 304 316 310 307 309 311 314 312 311 311 313 311 312 315 314 317 318 317 317 316 318 317 317 317 318 317 317 317 317 314 312 312 312 312 313 313
303 302 304 304 302 301 301 302 304 311 315 311 309 312 314 314 313 313 312 311 310 312 312 313 312 314 315 316 316 315 316 316 316 317 321 318 316 315 313 313 313 312 313 313 313
303 303 303 305 305 303 303 306 312 315 308 313 314 314 315 314 314 313 311 312 312 315 314 310 310 311 311 315 314 316 318 322 322 322 321 313 314 316 313 313 312 312 313 313 314
304 305 305 305 305 304 306 310 318 312 314 313 314 314 316 314 313 314 315 316 314 316 317 319 317 311 308 314 315 316 318 322 321 321 319 310 313 314 311 310 311 312 312 314 315
305 306 306 306 306 305 309 315 315 313 312 313 313 315 315 314 316 317 316 314 315 314 318 318 316 311 309 311 315 316 317 312 315 311 315 313 312 310 309 309 309 311 312 315 315
305 306 308 307 307 307 313 313 312 310 312 312 314 313 313 314 315 316 316 314 313 311 311 314 316 312 310 311 311 314 314 317 317 320 315 313 311 314 311 310 310 311 314 315 316
305 309 309 308 310 312 312 314 313 312 312 313 313 313 313 313 314 314 314 313 313 311 312 314 315 313 312 314 315 312 314 313 314 314 318 314 312 313 311 312 313 313 313 314 315
306 315 309 308 314 314 314 312 311 313 312 311 312 312 314 313 314 314 314 314 312 312 313 311 315 315 314 311 311 312 314 314 316 316 313 314 314 312 313 312 311 312 313 313 315
308 310 309 309 316 314 313 313 312 313 312 312 312 312 312 313 314 314 313 310 311 312 313 312 314 315 313 313 311 313 312 312 311 312 316 316 314 312 312 311 313 314 314 314 314
308 313 313 312 312 313 313 313 314 312 311 311 311 311 312 312 312 313 313 311 310 311 309 310 312 314 316 316 314 313 313 312 312 315 314 312 313 312 312 313 315 314 314 315 313
307 307 307 315 313 313 313 313 314 314 313 311 312 311 312 312 312 312 312 311 310 310 311 312 316 311 311 311 312 313 313 312 312 312 314 313 312 313 312 314 314 315 315 314 311
303 304 305 310 309 311 310 314 314 313 313 312 312 311 311 312 312 312 312 312 311 311 311 311 313 312 312 311 311 312 312 312 312 311 311 312 312 312 312 312 314 315 313 311 309
299 301 302 307 310 312 313 312 313 312 312 312 313 312 312 312 312 312 311 311 312 312 312 312 313 313 314 310 310 312 312 312 312 312 312 312 312 313 312 312 313 314 312 309 307

GFSSW_850_thetae_036.txt.gz
Theta_e
309 308 307 306 307 306 305 305 305 306 306 305 307 310 305 304 310 311 315 319 318 318 310 311 322 325 325 325 323 324 327 327 329 330 328 326 325 324 322 322 322 323 331 341 341
307 307 306 305 305 306 305 305 305 305 306 305 306 310 307 306 304 309 313 317 319 320 318 315 322 324 324 323 323 323 326 327 324 327 328 326 325 324 322 322 321 323 331 337 330
307 306 306 306 304 304 304 305 304 304 304 305 307 308 307 306 307 307 309 316 319 321 319 315 320 323 324 321 321 322 324 325 325 326 323 325 324 323 321 321 321 322 329 336 332
306 307 306 306 304 304 304 304 302 302 304 304 306 307 306 307 310 314 305 315 317 320 319 317 317 322 323 322 321 321 321 321 322 322 321 322 322 322 322 322 322 321 326 334 335
307 305 305 307 305 304 303 304 302 302 304 303 304 306 305 307 307 309 312 314 316 319 318 320 316 321 323 322 320 321 320 319 320 321 320 321 321 321 322 322 323 323 323 323 328
306 306 305 305 305 303 303 304 303 303 302 302 303 305 306 307 307 308 313 316 317 318 317 319 316 319 321 321 320 320 320 320 320 321 321 321 320 320 321 322 322 322 321 322 323
307 306 304 304 304 302 303 303 302 302 303 301 302 303 306 306 309 310 308 314 317 317 317 317 317 318 321 321 320 320 320 320 319 321 321 321 321 320 321 321 321 321 321 320 320
304 304 303 305 303 301 302 302 302 301 301 301 300 305 304 304 305 306 309 310 315 315 317 317 318 317 320 319 320 320 319 321 320 319 320 320 321 319 321 321 321 321 320 320 319
303 304 304 301 301 300 301 301 301 302 302 302 302 305 305 307 305 305 307 311 313 315 315 316 317 317 320 319 321 320 320 321 320 319 319 319 320 319 320 320 320 320 320 319 319
302 301 300 300 301 301 301 301 301 300 301 304 305 304 304 305 307 305 306 309 314 315 314 317 318 318 319 319 322 321 319 318 319 319 319 319 319 317 318 317 317 318 317 318 318
302 302 302 301 301 301 304 305 305 305 305 304 304 304 305 306 308 308 312 312 312 316 319 318 318 319 318 318 318 316 317 316 316 319 318 318 319 318 317 318 318 318 318 317 317
301 301 301 301 301 303 304 303 304 304 305 304 303 303 305 307 309 310 311 311 314 318 318 318 318 317 317 316 316 316 316 315 316 316 317 316 317 316 315 317 318 317 317 316 316
303 302 301 301 303 304 304 304 303 305 306 307 305 307 308 308 311 311 310 309 314 317 317 318 318 317 316 315 316 316 316 314 316 316 315 315 315 315 315 316 316 315 313 314 314
302 303 302 302 305 304 303 303 303 303 308 309 309 309 309 308 313 310 309 311 313 317 317 317 317 318 318 317 316 316 315 316 317 316 316 314 310 314 314 313 312 311 311 311 312
303 303 303 303 302 306 303 302 303 305 313 309 309 308 311 312 310 312 312 311 312 316 316 315 318 319 319 318 317 317 316 316 317 317 316 316 315 316 311 311 310 311 313 313 313
303 304 303 306 306 304 301 302 305 310 316 311 310 312 314 313 313 311 312 310 310 313 312 313 313 314 316 317 316 317 316 316 317 316 315 316 315 313 312 311 310 312 312 313 313
303 305 306 305 307 305 304 306 311 313 309 313 315 314 314 314 314 312 311 311 312 314 314 312 310 311 312 316 316 316 315 318 317 316 316 313 314 313 312 310 310 310 313 313 314
303 306 308 307 305 305 306 309 313 312 314 314 315 315 315 314 314 313 312 313 313 314 315 317 314 311 310 315 316 316 315 318 318 317 314 311 313 312 309 311 312 313 313 314 315
304 307 308 308 307 307 308 312 312 309 313 313 314 316 316 315 315 316 316 316 315 314 317 317 315 309 310 311 314 317 316 311 314 311 311 309 310 310 309 308 311 311 312 314 315
304 308 309 308 308 308 313 311 312 311 313 313 314 313 315 315 316 317 316 315 313 312 312 314 316 312 311 312 313 314 313 316 313 314 315 311 311 310 308 308 308 309 310 314 315
308 310 311 308 311 311 312 314 313 312 312 312 313 313 313 314 314 314 315 313 313 311 312 314 314 315 312 313 314 313 314 314 312 313 316 312 310 309 308 308 308 309 312 314 314
309 313 310 309 314 315 315 313 312 313 312 312 312 313 313 313 314 314 314 314 312 312 313 312 313 315 316 312 312 314 315 315 317 314 310 310 310 309 308 309 311 312 313 313 314
308 310 311 309 315 313 312 313 313 313 313 312 312 312 312 313 314 313 313 311 311 312 312 311 313 313 313 313 311 312 312 314 311 312 315 312 309 310 309 310 311 312 314 314 314
308 311 313 313 313 314 314 313 314 312 312 311 312 311 312 312 312 313 312 312 310 311 309 310 312 312 311 312 313 312 313 311 310 311 313 312 311 310 309 310 314 314 315 315 313
306 307 306 313 313 313 313 314 314 315 313 311 312 312 312 312 312 312 312 311 311 310 311 312 310 309 311 312 312 313 313 312 310 313 310 312 310 310 309 311 313 315 315 314 311
303 303 304 308 310 311 310 313 314 313 313 312 312 312 311 312 312 312 312 311 311 310 311 311 310 310 309 311 311 311 311 311 312 311 311 311 311 311 311 313 314 315 314 311 309
297 301 302 308 311 311 311 312 312 313 312 312 313 314 312 313 312 312 311 311 311 311 310 311 309 308 310 310 310 309 310 311 311 310 310 311 310 312 311 312 313 314 313 310 308

GFSSW_850_thetae_039.txt.gz
Theta_e
308 308 308 307 306 305 305 306 305 305 306 306 306 306 311 308 309 308 313 318 318 316 316 314 319 326 325 325 324 322 324 324 325 327 327 326 324 323 323 322 325 335 339 342 344
307 307 307 307 307 305 304 305 305 305 304 306 306 305 309 307 306 305 307 315 318 319 313 314 322 326 325 324 323 324 326 324 322 323 324 324 324 322 322 321 326 332 340 340 341
308 307 306 306 307 306 304 304 305 305 303 304 305 306 309 307 305 306 305 312 318 320 320 312 319 324 323 323 323 323 325 323 323 323 324 325 325 324 320 320 321 332 328 330 333
307 306 306 305 305 306 304 304 305 302 302 303 305 308 307 306 309 310 311 306 317 319 319 315 320 322 323 321 322 321 322 323 323 325 325 323 323 321 321 321 322 324 324 327 327
307 307 306 304 305 305 303 303 304 303 303 303 304 306 306 305 306 308 312 308 316 318 318 316 319 321 322 321 320 320 320 322 321 323 321 322 321 320 320 323 322 329 333 330 330
305 305 304 304 305 303 303 304 303 303 302 301 303 305 305 307 307 309 312 314 316 317 318 316 315 320 321 320 319 320 320 320 319 321 321 321 320 320 320 322 322 322 322 324 325
304 305 304 304 303 300 303 304 303 302 302 301 302 304 306 306 309 311 310 313 315 316 317 317 315 319 320 320 320 319 320 319 319 320 320 320 320 319 320 320 321 321 321 320 321
303 302 300 301 300 300 300 301 301 301 301 301 301 303 304 303 304 306 308 311 315 316 317 318 317 317 319 319 319 319 318 320 318 319 320 318 319 318 320 320 320 320 320 320 320
302 303 300 300 301 300 300 301 300 300 301 301 301 303 304 305 305 305 305 309 313 316 317 317 317 317 316 318 319 319 319 319 320 318 319 318 319 318 319 319 320 321 321 320 320
301 301 301 301 301 301 302 304 303 302 302 303 304 304 305 305 307 304 305 307 313 314 315 316 317 315 316 319 321 321 318 317 319 318 318 318 318 317 317 319 320 320 319 319 318
306 301 301 301 301 302 304 304 304 304 304 304 304 304 304 304 307 305 306 307 313 314 315 316 319 318 317 317 316 317 318 317 317 317 319 318 318 318 317 317 316 316 317 317 317
302 304 300 301 302 303 303 303 303 303 304 304 304 303 304 305 309 307 307 310 313 315 315 316 317 315 315 316 317 315 316 316 315 317 317 316 316 316 315 315 317 317 317 317 316
302 302 303 301 302 302 301 302 304 304 305 307 305 307 307 308 309 310 310 310 312 314 316 315 315 315 316 315 316 314 314 314 315 315 314 314 313 313 313 315 316 317 316 315 315
300 303 303 303 304 305 304 303 303 303 306 309 309 307 306 307 310 310 310 312 314 314 315 316 316 316 315 315 314 314 313 314 316 315 315 313 312 310 312 314 312 313 312 313 313
300 303 303 305 304 305 305 302 303 304 310 309 309 308 307 310 309 309 310 311 314 314 316 316 317 317 317 316 314 315 314 315 315 315 315 315 312 311 311 311 309 309 310 310 311
300 304 305 305 306 306 305 302 306 306 312 310 310 310 312 309 310 309 311 311 312 313 312 314 312 313 315 316 316 315 314 314 314 313 314 313 313 311 311 311 308 310 312 313 313
302 304 307 305 306 306 305 306 306 306 308 313 314 313 314 314 313 311 311 313 314 312 315 312 311 311 311 315 315 315 312 313 314 312 313 310 313 313 310 308 308 309 312 312 313
303 305 307 307 307 305 306 306 309 312 313 313 314 314 314 314 313 312 313 315 312 311 315 315 317 313 310 314 314 315 313 314 316 313 314 308 313 311 307 309 311 312 312 313 314
304 307 309 308 308 307 306 304 306 308 310 313 314 315 315 315 314 315 314 315 314 314 313 314 311 310 310 311 313 316 316 311 310 309 306 309 308 308 307 308 309 311 313 314 315
305 309 309 308 310 309 305 306 308 309 311 313 314 312 314 314 316 317 315 314 314 312 313 314 315 311 312 312 313 313 312 315 310 311 312 309 309 309 307 308 309 309 311 314 314
308 309 311 308 310 309 304 304 311 312 312 312 313 312 311 312 313 313 312 313 313 313 311 312 313 314 312 314 315 314 313 313 312 308 311 308 308 306 307 307 308 308 310 311 315
310 311 310 308 310 308 305 311 312 313 312 311 311 311 311 312 312 312 312 312 311 311 314 312 312 315 316 313 313 313 313 312 312 312 307 307 310 307 305 305 307 308 310 313 315
307 309 311 310 313 308 311 312 312 312 312 311 311 311 311 311 313 311 311 311 311 310 311 311 311 312 313 313 312 313 313 314 311 310 311 308 307 307 307 308 309 311 312 313 314
307 308 310 312 312 313 312 312 313 311 312 311 311 310 311 311 310 311 311 311 310 310 309 310 311 308 310 309 311 311 313 314 313 313 312 313 309 308 308 309 309 311 313 314 313
304 305 305 309 309 308 312 313 313 314 312 311 311 311 311 311 311 311 310 310 310 310 310 309 306 306 310 311 311 311 311 310 309 310 310 311 308 308 307 307 311 314 314 313 312
302 301 303 304 308 309 309 313 313 312 311 311 312 311 310 313 310 311 310 309 309 309 310 308 306 305 303 310 310 310 310 310 311 310 310 310 309 308 308 310 313 314 314 313 311
295 300 302 305 306 309 310 310 312 310 312 312 312 313 311 311 311 311 310 309 308 308 308 309 303 301 305 309 309 308 308 309 310 310 310 310 309 310 309 311 313 314 314 312 310

GFSSW_850_thetae_042.txt.gz
Theta_e
309 309 308 308 306 307 307 305 306 307 305 305 306 307 306 311 309 311 308 315 318 317 316 314 313 326 326 324 323 322 324 325 324 325 326 324 324 325 321 324 328 334 340 341 342
308 309 308 308 306 306 307 304 305 305 305 304 305 306 306 309 307 308 308 310 316 317 319 316 314 325 326 324 323 322 324 323 321 322 324 324 324 324 321 323 337 340 342 343 343
308 307 306 306 305 305 306 304 304 305 305 303 304 305 307 309 307 308 308 306 316 318 316 315 313 323 323 323 323 323 324 322 321 321 323 323 323 324 322 318 330 338 342 343 341
307 305 305 305 304 306 305 304 304 304 302 303 304 306 308 307 308 309 312 307 311 318 318 314 317 322 321 321 323 324 322 322 322 324 323 324 324 323 321 319 322 322 328 337 336
307 304 304 304 304 303 303 303 304 303 302 303 304 306 307 306 307 306 308 312 306 317 319 314 318 321 320 320 322 320 322 322 323 323 324 324 323 323 322 321 321 324 328 326 333
303 303 302 302 300 301 303 304 303 303 301 302 304 306 306 307 306 309 312 310 309 317 319 315 318 320 321 320 321 321 320 322 322 324 323 322 322 322 321 321 325 331 333 331 330
302 301 300 300 300 300 302 303 303 303 302 301 303 303 305 306 308 310 313 311 315 317 318 315 317 320 318 319 320 320 320 319 318 320 320 321 322 320 320 320 322 323 322 323 325
300 301 301 300 300 300 300 300 301 300 300 301 301 304 303 305 305 307 309 313 315 315 317 314 316 318 318 319 319 318 318 319 318 319 320 320 322 320 320 319 319 320 320 320 320
304 300 301 301 301 301 302 301 299 301 301 301 303 303 303 305 305 305 307 309 314 315 317 316 317 317 317 318 317 318 319 319 319 319 319 318 319 318 319 319 319 320 320 320 319
302 301 300 301 301 301 302 304 303 300 302 303 304 304 304 305 305 304 305 307 312 315 316 317 317 314 314 319 320 319 318 319 319 319 319 319 318 317 318 317 318 319 320 320 320
302 303 300 301 302 303 303 304 304 303 304 304 304 303 303 303 307 305 306 307 312 315 312 316 316 317 315 316 316 316 316 318 318 317 318 319 317 318 317 315 315 318 318 319 318
296 302 303 301 301 303 303 302 303 303 304 304 304 304 303 306 308 307 306 306 312 313 310 316 317 313 314 316 316 316 316 316 315 316 318 318 318 317 316 315 315 316 316 317 316
296 302 303 302 302 302 301 302 303 304 305 306 305 306 307 307 308 308 307 306 313 313 312 316 315 314 315 316 317 315 315 314 315 315 314 314 314 315 314 314 317 316 317 316 316
294 302 303 304 303 304 304 303 303 303 306 308 308 307 306 308 309 310 309 311 313 315 314 314 315 315 316 316 314 315 312 313 315 315 317 313 315 309 313 313 312 315 315 316 315
294 302 305 304 303 303 305 302 303 304 310 308 309 307 306 308 308 309 310 311 314 314 312 313 316 316 317 316 312 314 312 313 313 313 314 313 312 310 309 310 311 309 312 313 313
295 303 306 305 306 305 305 301 305 301 309 309 307 306 307 308 309 310 311 312 312 312 314 313 311 313 314 315 313 312 312 312 311 311 312 313 311 311 310 310 308 307 310 311 311
297 303 307 306 306 306 305 305 301 307 307 313 314 305 307 309 311 310 311 313 315 313 315 313 313 311 311 315 314 312 311 310 315 310 313 310 311 314 310 308 306 307 309 311 313
301 305 307 307 306 305 306 305 305 310 312 314 314 313 313 312 312 312 313 314 312 310 315 315 318 313 310 312 315 312 311 309 314 312 312 308 313 310 307 307 309 311 312 312 313
303 307 308 307 306 306 306 299 303 303 308 313 312 314 315 314 314 314 313 314 314 312 314 311 312 311 311 310 312 315 314 310 308 305 305 308 307 307 307 307 308 310 311 312 312
306 309 309 308 307 307 301 304 305 308 310 312 313 311 314 315 316 315 315 313 314 311 311 311 313 312 312 312 312 312 311 313 306 310 311 308 308 309 307 308 308 309 310 312 314
309 309 310 307 308 307 300 301 309 311 311 311 311 311 311 312 313 313 313 313 313 312 311 310 311 313 313 316 315 313 312 312 312 310 311 310 308 304 305 307 309 309 311 314 315
310 306 309 307 308 305 303 310 312 312 311 311 310 311 311 311 311 311 311 312 313 312 314 312 312 314 315 314 313 313 312 313 316 312 306 305 308 305 304 305 308 309 311 311 313
308 309 310 310 305 305 309 312 311 312 311 310 310 310 310 310 311 310 310 309 312 311 312 310 310 311 313 312 312 315 313 313 310 308 306 307 307 306 304 305 308 309 309 311 314
307 307 308 310 311 310 311 311 312 311 311 310 310 309 310 310 309 311 310 310 310 309 310 310 309 307 311 310 312 313 313 312 311 308 311 308 309 308 308 306 307 308 311 313 314
305 305 304 308 310 308 310 312 313 313 311 310 311 310 310 310 310 310 310 310 309 309 309 308 306 305 309 311 309 310 312 313 313 314 315 314 313 310 308 308 308 310 312 313 312
301 301 303 303 305 307 309 311 313 312 311 311 313 311 310 311 310 310 309 308 309 308 309 306 305 303 303 309 309 310 309 312 314 314 313 309 309 307 308 308 309 312 313 313 312
297 300 302 303 302 309 309 310 310 308 311 311 312 311 310 309 309 310 309 309 307 307 307 308 303 300 302 308 308 307 308 308 310 310 311 310 310 308 307 308 311 313 313 313 313

GFSSW_850_thetae_045.txt.gz
Theta_e
308 307 308 307 308 306 305 306 307 306 307 306 305 306 307 309 311 312 309 310 315 318 317 313 316 323 326 325 324 323 324 324 324 325 326 324 323 324 323 322 328 335 339 340 342
307 308 308 308 306 305 305 307 305 305 306 305 305 305 306 306 310 312 311 306 314 318 318 313 314 317 324 323 322 323 324 323 321 323 324 324 323 323 323 323 331 339 341 342 342
307 308 307 306 306 305 306 304 304 304 305 304 303 305 306 307 308 309 311 308 311 317 318 318 313 317 323 323 323 322 324 321 321 322 323 323 323 323 323 320 321 324 341 341 342
304 305 305 305 303 302 303 303 304 304 302 302 303 305 307 307 309 309 311 313 308 316 317 318 316 318 320 323 323 323 321 322 323 322 321 323 323 323 323 322 323 321 339 339 340
305 302 300 299 299 303 303 303 304 303 302 303 303 306 308 306 307 307 308 310 312 314 317 317 315 319 319 320 322 322 322 322 323 323 323 323 323 324 322 323 320 320 336 336 336
301 302 301 300 300 301 303 304 303 303 301 301 305 306 306 306 306 307 308 310 311 314 317 316 314 318 320 319 321 320 322 323 322 322 322 323 322 322 322 322 320 325 334 334 336
305 300 300 300 300 300 301 303 303 302 301 300 303 304 306 306 306 308 312 311 310 312 317 316 316 319 319 317 320 320 322 322 323 322 324 323 323 323 321 322 321 322 331 330 334
305 305 301 301 301 300 300 300 300 300 300 300 302 301 303 304 307 306 311 312 312 309 316 318 317 317 318 318 319 317 320 322 320 322 322 320 322 321 320 320 320 320 323 328 329
304 305 305 301 301 301 302 301 299 300 301 301 302 303 303 305 305 306 307 312 313 314 315 316 316 317 316 315 316 317 318 318 319 320 320 319 320 319 319 321 319 320 318 319 319
302 303 303 304 301 301 302 303 301 300 302 303 304 304 304 303 306 304 306 309 313 311 316 315 316 313 312 315 319 318 316 318 319 319 320 321 318 319 320 320 316 317 319 319 319
299 301 302 301 302 303 302 303 303 302 303 303 304 303 302 304 307 304 304 307 313 314 314 315 315 317 314 316 315 315 316 317 317 317 319 321 318 318 319 319 314 315 317 319 319
300 298 302 302 301 302 302 301 302 302 303 304 303 304 303 305 307 306 306 309 312 313 309 313 315 313 314 316 314 315 315 317 316 317 319 318 318 318 317 317 316 316 315 317 318
301 295 302 303 302 301 301 302 303 304 305 306 305 306 307 307 308 308 305 306 310 311 311 313 315 313 315 317 316 314 314 314 316 315 314 315 316 317 316 315 316 317 317 315 316
300 295 302 303 303 303 303 303 302 303 303 308 307 307 307 308 308 309 307 308 312 312 311 310 314 314 315 317 315 316 312 313 314 315 318 315 319 312 315 314 312 316 317 317 315
299 295 303 303 304 303 304 303 302 304 310 308 308 306 306 308 308 309 307 308 313 313 312 313 315 314 315 315 313 315 311 312 313 313 313 313 314 313 309 309 313 311 316 317 316
298 297 304 304 306 305 305 301 304 299 304 307 307 307 307 308 308 309 309 310 312 313 313 313 311 314 314 313 313 311 311 310 309 310 313 313 313 312 310 309 309 309 312 314 314
296 302 305 305 306 305 304 304 302 303 307 310 309 307 308 309 310 310 310 312 313 314 314 314 314 312 311 314 312 313 311 317 315 310 312 309 312 314 310 308 307 307 310 312 312
299 305 307 305 306 305 305 303 302 309 313 313 309 308 310 310 309 309 310 312 312 311 314 317 316 313 310 312 313 311 310 310 315 313 312 308 312 312 308 308 310 310 310 309 310
304 306 308 307 306 306 306 296 302 301 307 312 309 311 313 313 310 310 310 312 313 311 314 311 315 311 310 311 311 314 309 307 306 303 304 307 307 306 305 306 306 307 309 309 311
306 308 308 307 307 306 301 303 303 307 309 311 312 311 315 313 312 314 313 313 314 311 310 310 313 312 312 312 311 312 309 311 304 305 310 308 307 309 308 307 306 307 308 311 313
308 309 308 306 307 306 299 301 308 310 310 311 311 310 310 314 314 313 314 313 313 311 310 309 309 313 313 315 314 312 312 310 309 306 308 311 308 303 305 304 307 307 309 310 312
309 304 307 307 308 305 300 308 311 311 311 310 309 310 310 310 311 310 313 312 312 311 311 310 310 312 315 313 313 312 311 310 309 309 304 304 308 305 303 302 307 309 310 311 312
308 308 308 308 304 304 306 311 311 310 310 309 310 309 309 309 311 310 310 309 312 311 311 309 308 314 314 314 312 315 313 311 309 306 306 309 311 305 304 304 308 309 311 313 314
307 302 307 308 310 309 309 310 312 311 310 309 309 308 309 309 308 309 310 309 311 311 311 310 309 307 310 309 313 314 315 312 310 309 313 311 310 308 307 305 306 309 311 310 310
305 303 303 302 308 307 308 310 312 312 310 309 310 309 309 309 310 309 309 309 309 309 308 308 310 305 308 310 309 309 312 314 312 314 312 315 309 309 307 305 306 309 309 310 312
301 302 303 303 303 307 309 311 312 312 309 310 312 309 309 310 309 310 308 308 309 307 308 305 305 303 302 308 309 309 308 312 313 313 313 312 312 308 309 309 307 308 309 311 312
298 302 302 300 301 309 304 308 308 308 311 310 311 310 309 308 309 309 308 307 307 306 306 306 302 300 302 305 306 307 307 307 310 312 312 313 313 308 307 305 308 309 310 312 313

GFSSW_850_thetae_048.txt.gz
Theta_e
308 308 309 307 307 305 304 305 307 306 306 306 307 307 305 307 310 312 313 310 312 317 318 312 320 321 323 323 322 323 325 326 324 325 325 323 323 323 323 323 325 337 339 339 341
308 306 307 307 307 306 306 305 304 304 305 306 306 306 305 307 308 310 313 311 309 315 318 314 317 319 323 323 323 323 325 324 321 322 324 323 322 323 323 322 321 324 336 340 342
308 305 305 304 303 303 305 303 304 304 304 304 304 304 305 307 307 308 311 312 308 316 317 316 315 318 320 323 323 323 325 321 321 321 322 323 323 323 322 322 318 322 320 334 341
304 307 304 302 303 305 304 304 303 303 303 302 302 303 305 307 308 308 309 311 311 313 317 318 316 316 320 321 322 322 322 322 322 322 322 323 323 323 322 323 323 322 321 329 339
308 302 306 303 300 302 304 304 303 303 302 303 303 305 307 307 307 307 307 309 309 314 316 318 317 314 318 320 322 322 321 322 322 322 322 322 322 323 322 323 323 322 322 330 337
306 308 301 305 301 299 302 303 302 302 301 302 305 306 307 306 306 306 307 309 310 313 315 317 316 315 317 319 322 322 321 323 323 323 323 322 322 322 322 323 324 322 322 328 335
306 306 307 301 301 300 299 301 302 301 301 300 303 303 306 306 305 307 308 311 309 311 316 316 315 316 318 319 321 320 323 322 322 322 323 321 322 322 322 322 322 322 322 323 334
304 305 305 305 301 300 301 301 299 300 300 300 301 302 303 304 306 306 307 311 309 310 314 316 314 316 317 318 318 319 322 325 323 321 322 320 324 321 321 321 322 322 321 319 331
305 303 304 304 305 300 301 302 299 300 300 302 303 304 303 305 306 305 306 312 310 310 314 316 315 316 316 315 316 317 319 320 323 321 322 319 320 319 320 322 321 321 321 319 319
304 304 302 304 304 304 301 303 301 300 301 303 303 303 303 302 305 304 306 311 313 311 315 316 315 314 312 315 318 318 315 318 320 322 321 320 318 318 319 322 321 320 320 318 319
305 304 300 304 302 302 302 302 303 302 303 303 304 303 302 306 306 304 304 308 312 313 311 311 314 316 313 313 313 313 315 317 317 319 320 321 320 318 319 320 320 319 319 317 317
305 304 298 302 302 301 302 301 302 302 302 304 303 304 304 306 306 306 305 310 312 312 305 310 313 312 313 314 314 314 313 316 316 317 319 320 321 316 318 318 320 320 318 317 316
304 304 299 303 302 301 301 301 303 302 304 305 304 305 306 307 308 307 305 308 308 309 306 314 313 313 315 315 314 313 314 314 316 315 314 316 318 318 315 317 318 319 319 317 317
303 303 296 304 303 302 303 303 302 303 304 306 307 306 306 308 308 307 306 310 311 309 310 312 313 314 315 317 313 316 312 312 314 316 318 315 319 314 317 316 314 316 317 317 318
303 299 296 304 304 303 303 303 302 304 310 307 307 306 307 308 308 308 307 310 310 311 311 312 315 314 315 316 314 314 310 311 313 312 313 313 315 315 309 313 316 316 316 318 318
297 295 301 305 305 304 304 301 305 298 309 308 306 307 307 308 308 309 308 310 311 312 312 313 312 312 313 311 312 309 310 310 309 309 311 311 314 314 310 311 310 310 314 316 317
296 301 304 305 306 304 304 304 301 304 306 309 309 307 307 309 309 310 310 309 313 313 314 313 314 311 311 313 311 311 311 310 311 309 311 307 311 315 311 308 308 309 311 311 312
301 305 305 305 306 305 305 301 302 307 312 308 307 308 308 309 308 308 310 312 311 313 312 317 314 313 310 311 311 312 311 310 315 313 311 307 311 311 308 307 308 309 310 310 311
305 307 306 305 306 305 305 295 300 299 308 311 309 311 309 311 309 308 309 311 312 311 313 315 315 311 310 311 311 312 309 306 304 302 303 308 306 305 305 305 307 307 307 308 309
307 307 307 306 306 306 303 304 303 305 308 310 314 312 313 312 308 309 309 311 313 310 309 309 315 313 312 312 311 310 308 314 304 306 311 307 306 308 307 307 305 306 307 308 308
307 308 307 306 306 306 298 302 306 309 310 310 310 310 313 312 311 312 310 312 312 310 308 308 311 314 314 314 313 311 309 308 308 305 308 309 309 302 305 304 303 304 307 308 309
308 306 307 307 308 305 299 305 310 310 310 309 308 309 309 312 312 309 311 312 312 310 311 309 309 314 316 313 311 311 311 309 308 308 304 304 308 305 303 302 302 305 308 310 311
307 307 307 307 308 303 304 310 310 309 309 308 309 308 308 308 310 309 309 309 312 310 310 309 310 313 312 313 312 315 313 310 307 304 305 308 311 304 304 304 306 307 308 310 311
306 301 306 307 307 307 309 309 311 310 309 308 308 307 308 308 306 309 309 310 311 311 311 309 307 307 310 308 310 312 314 312 310 314 315 312 311 310 308 306 305 308 309 310 311
304 302 302 301 306 305 307 309 311 311 309 309 309 308 309 309 309 309 308 308 309 311 310 309 306 305 307 308 309 310 311 313 314 313 314 315 313 312 310 308 308 308 309 310 312
301 301 303 301 302 305 304 308 310 310 310 310 311 308 308 309 308 309 308 307 308 307 307 305 306 303 303 307 309 309 308 310 312 313 313 313 313 310 309 308 307 308 308 309 310
300 302 301 298 300 308 301 305 303 305 309 310 311 309 308 308 309 308 307 306 306 306 306 305 301 299 302 304 306 306 307 307 309 311 312 313 313 310 309 307 309 310 308 309 310

GFSSW_850_thetae_051.txt.gz
Theta_e
307 308 307 305 305 304 306 306 305 304 305 306 307 307 308 307 305 309 313 312 311 316 316 316 320 321 322 322 323 321 325 326 325 325 325 323 323 323 322 325 327 329 329 337 341
307 305 305 305 304 305 306 305 305 304 304 304 305 305 306 305 306 310 311 312 309 314 317 318 319 319 322 322 323 322 321 324 321 323 324 323 323 322 323 319 320 323 322 335 343
309 307 306 305 305 304 305 305 305 303 303 302 304 304 304 305 307 307 308 311 312 313 315 317 317 318 321 322 322 322 324 322 321 322 323 323 323 323 323 323 321 322 321 328 338
307 308 306 307 304 300 305 304 305 304 302 303 302 303 304 307 308 308 309 311 311 313 315 317 316 318 318 322 322 323 320 320 322 323 322 322 322 323 322 323 323 323 321 323 336
306 307 308 304 306 300 301 305 304 304 300 303 304 304 305 307 307 308 308 310 312 313 315 317 315 316 319 319 322 322 321 322 322 322 322 322 322 323 322 321 322 322 322 322 330
305 305 306 307 303 302 300 302 303 301 301 302 303 305 306 306 305 306 307 308 310 313 314 316 316 315 317 319 320 321 321 320 321 321 322 323 322 321 321 321 322 322 323 322 325
306 305 304 305 306 301 300 304 300 300 299 299 303 304 305 305 305 306 307 309 310 311 312 316 316 314 317 317 320 320 322 322 322 322 323 322 322 323 321 321 321 322 323 322 319
305 305 305 305 304 305 300 303 301 299 300 300 300 302 304 305 305 307 307 310 310 309 311 315 315 314 317 318 319 321 322 324 322 322 322 321 324 321 320 321 321 321 322 323 321
304 304 304 303 304 304 302 302 301 299 300 302 302 303 303 304 306 305 307 311 311 309 310 315 315 315 316 317 319 320 322 323 324 321 322 321 322 319 319 321 321 321 322 323 322
304 304 303 302 304 303 304 302 303 300 301 302 303 302 302 303 305 305 306 311 310 310 312 316 315 314 313 317 319 320 319 319 323 322 321 321 319 318 320 320 321 321 322 322 322
303 303 303 302 304 301 303 302 302 302 302 303 303 303 302 306 306 305 306 310 310 312 314 313 316 316 316 313 313 313 316 317 318 321 322 321 319 318 319 319 321 322 322 322 322
303 303 303 302 304 302 302 301 302 303 302 303 303 303 303 306 306 305 308 307 312 311 309 309 314 312 314 313 313 314 315 317 315 320 321 321 321 319 318 319 320 321 322 322 322
303 302 303 300 304 302 301 301 303 302 304 305 304 305 306 307 307 307 308 307 309 309 310 314 313 313 315 314 314 313 314 314 316 318 316 320 321 320 317 317 319 320 320 321 321
303 303 302 299 304 302 302 303 302 302 304 306 305 305 306 307 307 307 309 309 308 309 309 310 313 315 316 315 313 316 312 313 315 319 320 316 321 316 319 318 317 318 320 321 320
302 301 296 301 304 303 303 302 302 304 306 307 307 305 307 307 307 306 309 310 310 309 310 311 315 315 316 316 312 314 310 312 312 313 314 314 319 317 314 318 317 316 317 318 318
297 297 298 305 304 304 303 301 305 298 307 308 306 306 307 307 308 308 309 310 311 310 310 312 312 313 313 313 311 308 310 310 310 313 318 313 317 316 313 312 312 315 316 317 318
298 304 305 305 305 304 304 304 302 301 306 308 308 306 306 308 309 308 311 311 312 313 313 313 314 311 310 313 311 310 311 316 317 315 317 307 311 316 312 309 309 309 312 313 316
304 306 306 306 305 304 304 301 305 306 311 307 307 307 308 308 308 308 310 313 311 311 314 317 316 313 309 312 314 312 310 313 315 315 314 307 314 314 309 308 308 308 309 310 310
306 307 306 306 305 305 304 296 299 302 310 308 307 307 308 309 307 307 309 311 312 311 313 315 315 311 310 311 310 313 314 306 305 302 308 309 307 306 305 306 306 307 308 309 310
307 307 307 306 306 305 303 303 304 303 308 307 312 309 307 310 306 308 308 310 313 311 308 310 315 314 312 311 310 310 308 312 307 309 312 308 307 310 308 307 305 305 306 308 308
308 308 306 306 306 306 303 303 306 308 309 310 311 312 312 309 306 308 307 311 312 310 308 307 311 315 313 314 312 311 310 308 308 307 312 310 310 304 306 305 305 304 305 307 308
308 308 307 307 307 305 302 303 309 309 309 309 308 309 312 312 309 310 310 310 311 310 310 308 310 315 316 313 311 310 310 308 311 310 305 306 311 305 303 303 302 305 308 308 308
308 307 307 307 307 302 303 308 309 308 308 308 308 308 307 310 311 309 309 309 311 309 310 309 308 314 314 312 310 315 312 309 306 305 306 312 312 304 304 304 306 307 309 310 310
307 301 306 306 307 306 307 309 310 310 308 308 307 307 306 308 306 309 309 311 311 311 310 309 307 307 310 308 309 312 313 311 309 309 311 312 312 311 310 309 308 309 310 310 311
305 301 303 308 306 304 306 308 311 311 308 309 308 307 307 309 308 308 308 309 310 311 309 307 306 305 307 308 310 310 311 313 313 313 315 314 313 312 311 310 311 312 309 309 310
302 302 303 300 301 305 303 306 308 308 309 310 310 306 306 308 307 308 307 307 310 307 311 305 306 304 304 306 308 310 308 309 312 312 312 313 313 312 312 311 309 310 309 307 309
303 303 302 297 299 305 301 303 303 305 308 310 310 308 308 309 309 308 307 305 305 305 305 306 306 304 306 304 305 307 307 307 308 310 311 313 312 311 310 309 310 311 310 309 311

GFSSW_850_thetae_054.txt.gz
Theta_e
310 308 308 307 305 306 308 306 306 305 304 305 307 307 307 307 308 306 311 312 313 316 315 318 319 320 319 324 324 323 326 327 325 324 325 324 325 323 324 329 327 325 324 329 340
307 308 307 307 305 304 306 306 305 303 303 303 304 305 306 307 307 309 311 311 312 315 316 318 318 321 320 323 324 324 326 325 324 325 326 324 325 324 325 325 325 325 324 335 341
306 308 308 307 306 303 305 305 305 305 303 302 302 303 304 305 308 308 308 311 313 313 317 318 318 319 319 321 324 323 326 323 323 324 324 324 325 324 324 326 325 324 323 333 340
306 306 308 308 305 304 300 305 304 305 301 303 303 303 304 306 309 309 308 309 310 313 314 317 317 318 319 320 322 323 323 322 321 324 324 323 324 324 324 325 324 323 323 326 337
307 306 305 307 307 303 300 301 303 303 301 303 304 304 305 307 308 308 309 309 311 312 315 316 316 316 318 320 321 322 321 321 321 323 323 323 323 323 323 323 322 322 323 323 329
306 305 305 305 305 306 301 301 303 300 299 300 303 305 307 307 306 305 308 308 309 310 312 316 315 316 316 319 321 321 322 320 320 322 321 323 323 322 321 322 322 323 323 323 323
305 305 305 303 304 305 303 300 304 299 299 300 302 304 306 306 305 305 306 308 310 309 311 316 315 316 316 318 319 321 323 322 321 320 320 320 324 324 323 322 322 322 322 322 322
305 304 304 304 303 304 305 300 303 299 299 300 300 302 305 305 305 305 306 307 309 309 311 315 315 316 317 318 319 320 321 324 322 322 322 321 323 322 322 322 322 322 322 322 322
304 304 304 303 303 304 304 302 301 299 300 301 302 303 305 304 305 306 307 310 309 309 313 314 315 315 317 318 319 320 322 323 324 322 323 322 323 322 321 321 322 322 322 322 322
304 304 304 304 303 304 303 302 302 301 300 301 302 303 303 304 305 306 306 310 311 311 313 313 315 316 316 317 318 318 320 322 325 323 323 324 323 321 320 321 322 322 322 322 322
304 304 303 303 301 304 302 301 303 303 301 304 304 303 303 306 305 306 306 311 310 311 314 313 315 318 316 316 315 317 319 322 321 322 323 324 323 322 321 321 321 321 322 322 323
303 303 303 303 301 304 302 301 302 302 303 303 304 303 303 306 306 307 308 308 311 313 311 311 314 315 315 316 317 318 319 320 320 322 322 322 323 322 320 320 320 321 321 323 323
303 303 302 303 303 303 301 301 303 302 306 305 305 306 306 306 307 308 308 305 311 311 311 313 314 314 316 317 316 317 318 319 319 321 321 321 323 322 321 319 320 320 320 322 323
303 302 302 299 304 302 301 302 302 302 310 307 306 306 307 306 308 306 308 305 309 311 311 312 313 315 315 316 315 316 316 318 318 319 319 320 318 320 320 321 320 320 320 320 322
302 301 301 301 304 303 303 303 302 304 313 307 307 305 307 308 307 308 309 308 310 310 312 312 315 316 317 316 315 316 315 317 317 317 318 319 320 316 318 320 320 319 319 319 320
299 302 300 305 304 303 303 302 304 309 312 308 306 307 308 308 309 308 310 310 310 311 311 312 313 315 315 314 315 313 316 316 317 318 320 318 319 317 318 316 317 318 319 319 319
304 305 306 306 305 304 302 304 310 314 307 307 306 307 308 309 310 308 311 311 313 315 316 314 314 313 314 314 313 315 317 319 319 320 318 314 318 317 316 316 314 314 314 316 318
305 306 306 305 305 304 305 305 314 310 309 307 307 308 308 308 308 309 311 313 312 313 314 318 317 314 313 315 315 315 315 317 317 317 317 311 318 316 314 311 311 310 311 311 310
306 306 306 305 305 305 305 312 311 310 309 308 308 309 308 309 308 309 311 312 312 312 317 316 316 313 313 313 314 315 317 310 314 309 316 315 314 313 312 312 311 310 309 310 310
307 307 306 306 305 306 307 310 310 306 308 307 311 308 309 309 308 309 311 312 313 312 311 313 317 315 313 313 312 315 312 316 316 318 315 313 313 313 313 313 312 311 309 309 309
307 307 307 306 306 306 309 309 309 308 309 310 312 311 310 309 308 309 310 312 313 312 310 313 315 315 315 316 317 314 316 315 314 314 316 313 313 312 313 312 312 310 309 310 309
308 309 307 306 309 307 308 308 309 310 309 311 310 311 312 310 308 311 312 312 312 312 313 311 315 316 316 314 313 313 315 315 317 317 314 314 314 310 311 310 308 311 311 310 310
308 306 307 307 311 310 308 309 310 310 309 310 310 310 311 312 312 311 312 311 312 312 313 312 314 316 316 314 313 316 314 313 313 313 316 316 315 309 308 309 309 310 311 311 311
307 308 306 307 307 307 311 311 312 309 310 308 309 309 310 310 309 312 312 312 311 312 310 311 312 314 316 315 315 315 315 314 314 317 316 316 315 313 313 314 313 314 313 312 311
306 307 306 308 309 308 309 310 312 312 310 310 310 310 310 311 311 312 311 311 311 312 310 311 314 310 310 311 313 314 315 316 315 315 317 315 315 314 314 314 313 312 312 311 310
303 305 304 303 303 308 308 309 311 311 311 312 311 310 309 311 310 311 311 311 313 311 312 309 313 309 310 308 311 312 312 313 314 315 315 314 315 313 313 312 312 312 312 312 310
301 304 304 299 304 309 307 306 307 307 310 310 311 311 312 311 310 309 307 309 310 313 311 312 311 311 312 307 308 310 309 310 311 312 313 315 313 312 312 311 311 311 311 311 311

GFSSW_850_thetae_057.txt.gz
Theta_e
307 309 308 307 306 306 306 306 307 305 303 303 304 307 307 307 308 309 309 312 314 315 314 319 320 320 321 326 326 325 327 328 326 324 325 326 325 324 326 330 331 328 330 332 341
307 307 310 309 307 306 304 306 307 306 305 303 303 304 305 306 309 310 311 311 312 314 317 318 319 320 321 324 325 325 328 327 326 325 326 326 325 325 328 328 329 327 329 338 341
309 308 306 309 308 306 305 306 305 305 303 302 302 303 304 305 310 309 309 309 311 314 316 318 319 320 316 323 324 324 327 325 324 324 325 325 325 325 327 328 328 326 328 338 342
306 307 307 305 308 307 304 305 304 305 302 301 304 303 304 309 310 310 307 308 311 312 315 317 319 319 320 320 322 325 323 324 325 325 324 325 325 325 326 326 325 325 325 332 338
306 306 306 305 305 307 307 300 305 301 300 299 303 304 307 308 308 309 308 308 309 311 314 316 318 319 319 320 317 323 323 323 323 324 324 324 324 323 324 325 324 323 325 325 335
307 307 305 305 303 305 307 302 302 304 300 299 301 304 308 308 307 307 308 309 309 309 314 315 317 318 317 319 319 319 322 323 323 323 324 324 324 323 323 323 324 323 324 324 324
307 306 305 304 304 304 305 306 300 304 299 300 300 305 306 307 307 307 307 308 309 309 311 314 316 317 317 317 319 317 319 323 322 322 321 320 321 323 322 323 323 323 323 323 324
306 305 304 304 304 303 305 305 302 300 299 300 300 305 306 305 306 307 307 308 308 308 310 313 315 316 317 317 319 322 323 324 322 321 321 319 322 320 322 322 323 323 323 324 323
304 305 304 304 304 302 304 304 302 301 299 300 305 305 306 305 306 306 306 308 309 310 310 311 315 317 318 319 320 320 322 323 323 321 322 322 320 321 321 322 322 323 322 323 323
304 304 304 304 303 301 304 303 302 302 302 303 304 306 305 306 305 306 307 308 311 311 310 312 315 317 318 319 321 319 317 320 323 323 323 324 323 322 322 323 323 322 322 323 323
304 304 303 303 303 301 303 306 307 306 304 304 304 304 304 307 307 307 308 310 311 311 314 309 315 318 317 317 316 316 317 319 320 322 324 323 323 322 322 322 322 322 322 322 323
303 303 303 303 303 303 303 306 305 304 305 304 304 304 304 307 307 306 308 305 312 313 312 312 314 316 315 316 316 316 317 320 321 323 323 323 324 322 322 323 322 321 322 322 323
303 303 302 302 302 304 306 304 303 303 308 307 306 307 307 307 307 308 308 306 311 313 314 315 314 315 316 317 317 318 317 318 322 322 322 322 325 322 322 322 321 321 321 322 322
302 303 302 302 305 305 305 302 302 302 309 307 307 307 308 308 309 307 308 307 311 312 313 313 313 316 317 316 316 317 317 318 319 322 322 321 321 322 321 322 321 321 321 320 321
298 302 303 302 305 305 305 303 302 305 316 308 307 305 308 309 308 308 309 309 312 313 312 315 314 316 317 316 315 316 316 318 318 320 317 320 320 317 319 319 320 321 320 320 320
301 303 303 304 305 305 303 302 306 309 312 310 307 308 308 309 309 309 310 311 310 313 311 313 313 316 315 315 315 316 316 316 316 317 320 318 318 317 317 318 317 317 319 319 320
305 306 306 306 306 303 302 307 312 315 307 308 307 308 309 310 309 310 312 313 313 316 314 312 313 314 315 316 315 316 317 319 318 320 320 316 317 318 317 317 316 316 316 316 319
307 306 306 305 304 303 307 308 315 311 310 308 308 309 310 310 310 311 311 313 313 313 314 318 316 315 316 315 315 316 316 317 316 318 317 315 317 316 316 314 314 313 314 313 314
306 306 306 305 305 305 307 314 314 312 309 308 308 310 310 310 310 311 312 314 313 314 317 317 318 314 315 315 315 315 317 313 317 315 318 317 315 315 315 314 313 312 312 312 313
307 308 307 306 305 307 310 312 312 309 310 308 311 309 311 310 311 312 314 313 313 313 313 315 318 316 315 314 314 316 315 315 318 318 314 315 314 315 314 314 313 314 313 313 312
307 309 307 306 306 309 312 313 311 310 308 310 311 310 311 310 311 311 313 313 313 313 313 315 315 317 315 317 316 316 316 316 316 316 318 314 314 314 314 314 314 314 313 313 313
309 310 307 307 309 310 311 312 310 311 311 311 311 311 311 309 310 312 313 314 313 313 314 313 315 315 316 315 315 315 315 316 317 318 315 315 315 313 314 313 312 314 313 314 313
309 308 307 307 313 312 311 312 311 312 312 312 312 311 312 312 312 313 314 312 313 313 314 314 315 317 316 315 314 316 315 315 315 316 318 317 315 313 312 312 312 312 313 314 314
309 308 307 307 308 311 313 313 312 311 311 310 311 312 313 313 313 313 314 313 313 313 310 312 313 315 317 317 315 315 315 315 315 317 315 315 314 314 314 314 314 314 314 314 314
308 311 309 309 310 311 312 313 312 312 312 311 311 312 312 313 313 313 312 313 313 312 312 314 317 313 312 314 315 316 315 315 316 315 316 314 315 315 315 315 314 314 314 314 313
307 308 307 310 310 312 310 313 312 313 313 312 312 311 311 312 312 313 313 313 313 313 313 313 314 312 313 311 312 314 314 314 316 316 316 316 316 314 314 314 312 312 312 312 312
303 305 308 306 310 312 312 311 311 312 312 312 312 313 313 312 311 311 310 312 311 313 314 314 313 313 315 309 310 312 311 312 313 313 313 314 313 311 313 313 313 313 313 312 312

GFSSW_850_thetae_060.txt.gz
Theta_e
309 309 306 310 310 308 306 306 306 306 307 304 303 304 306 307 307 308 309 309 312 314 314 317 318 320 319 324 325 324 327 326 326 326 326 325 325 324 327 331 329 329 332 337 339
306 308 308 306 308 309 307 303 306 306 306 303 303 303 304 305 308 310 310 311 311 315 315 316 319 320 318 323 325 326 327 326 325 325 325 326 325 325 328 328 328 330 336 338 342
307 307 308 307 305 308 308 305 303 306 305 301 303 303 303 305 309 310 311 310 310 312 314 317 318 319 318 320 324 325 325 324 324 326 325 326 325 325 327 328 327 326 335 340 341
307 307 307 306 306 304 308 308 301 304 301 300 302 303 303 308 310 310 308 308 308 310 314 316 318 319 319 321 323 324 324 325 325 324 326 326 325 325 327 326 325 325 328 336 340
306 308 308 306 305 304 304 308 303 305 303 299 300 302 304 309 309 310 307 307 308 310 311 316 318 319 320 318 322 323 323 325 325 325 324 325 324 324 325 324 323 323 325 330 337
306 308 307 305 304 304 303 306 307 301 305 299 299 304 308 308 308 308 308 308 311 309 310 313 317 318 318 319 321 318 320 322 323 324 325 324 324 323 324 324 324 323 324 324 330
306 306 305 305 304 304 303 305 306 302 302 299 299 304 307 307 307 307 307 307 308 310 310 313 314 316 317 318 320 318 319 320 323 323 323 322 323 323 323 323 323 323 323 324 324
306 304 305 305 304 304 303 305 304 303 300 299 300 305 306 306 305 307 307 307 307 309 309 311 312 315 318 318 318 317 317 319 322 323 322 321 323 322 322 321 322 323 323 323 323
305 304 304 304 304 303 302 304 303 301 300 299 304 306 306 306 306 305 306 308 308 309 308 308 310 317 317 319 320 319 317 316 322 322 321 320 321 320 320 321 321 322 323 323 323
304 305 304 303 303 303 302 303 302 301 304 304 305 305 306 306 307 306 307 308 308 310 308 308 312 317 317 318 321 321 320 318 320 322 320 321 320 321 321 321 322 321 322 323 323
306 305 303 303 303 303 302 306 308 307 305 305 304 304 305 306 307 307 308 309 309 310 307 307 313 316 316 317 317 318 318 319 318 321 321 322 321 320 321 322 322 322 322 322 322
304 303 303 303 302 302 304 307 306 306 306 305 305 304 305 307 308 308 308 307 309 311 308 308 314 314 316 317 316 316 317 320 321 322 321 321 322 320 320 321 322 322 322 322 322
302 303 302 301 301 303 305 306 304 304 308 307 306 307 307 308 308 309 308 306 309 310 310 313 315 315 316 316 317 316 315 321 323 323 322 322 322 322 321 321 322 322 322 321 322
300 301 300 302 305 306 306 305 303 303 310 308 308 308 308 308 309 308 308 306 311 311 313 313 312 315 317 317 316 316 315 320 322 322 323 321 318 322 322 321 320 321 321 321 320
299 299 300 303 305 306 306 303 303 306 314 307 307 305 308 309 308 309 308 310 312 312 312 313 313 314 318 316 315 317 317 319 322 320 319 321 319 314 321 320 320 320 321 321 320
301 303 304 303 305 306 303 303 306 309 310 308 307 308 309 309 309 310 310 310 312 312 313 314 313 315 317 315 316 315 316 316 315 316 315 317 317 315 317 317 317 318 320 320 320
306 307 306 305 306 304 303 307 311 312 307 307 307 308 310 309 310 311 311 312 314 311 314 312 313 314 315 316 316 315 316 316 317 314 316 315 316 315 315 315 314 315 315 315 317
307 306 305 306 305 303 306 309 314 309 310 308 308 309 310 310 310 312 310 312 312 312 314 317 315 315 316 316 317 316 316 317 317 315 316 315 316 314 312 313 314 314 315 315 315
306 306 307 305 305 306 308 313 313 311 308 308 309 310 311 310 310 312 312 313 313 314 315 317 316 314 315 315 315 316 315 313 316 314 314 314 314 314 313 311 312 312 312 312 312
307 307 307 305 306 307 310 313 311 310 310 308 310 309 311 310 311 313 314 313 313 314 313 314 318 315 315 315 314 315 313 314 314 314 314 314 314 313 311 311 312 312 313 313 313
307 309 307 306 307 309 312 312 311 310 309 311 312 310 310 310 311 312 314 312 313 314 313 315 315 316 315 317 316 315 316 316 316 314 318 313 311 312 311 311 311 312 314 314 313
308 310 307 306 309 311 312 312 311 311 311 311 311 312 311 310 311 312 314 314 313 313 314 314 314 315 317 315 315 315 315 314 314 315 313 312 312 312 310 311 313 313 313 314 314
308 307 307 307 312 311 312 312 312 311 312 312 312 311 312 311 312 312 313 313 313 314 314 314 314 313 314 314 314 316 315 315 315 314 315 313 312 311 311 311 312 312 312 313 314
308 307 307 307 308 310 312 312 312 311 311 311 312 312 313 312 313 313 313 313 313 313 311 311 314 314 314 315 313 314 314 314 314 312 314 314 313 311 310 311 313 313 313 313 313
309 310 307 308 309 311 313 312 312 312 312 311 312 312 312 313 312 311 312 313 313 311 312 313 315 310 312 314 314 315 313 313 312 313 313 313 312 312 312 310 312 312 313 313 312
308 309 308 310 310 311 311 313 313 313 313 312 312 312 311 312 312 312 312 312 313 313 313 312 312 311 309 311 312 313 313 314 315 315 314 313 313 310 312 312 312 312 312 312 312
307 307 309 310 311 312 312 312 313 312 312 312 312 313 313 312 309 311 311 311 312 312 313 313 309 309 311 309 309 309 310 312 313 313 313 314 311 310 309 311 311 311 311 311 311

GFSSW_850_thetae_063.txt.gz
Theta_e
308 307 308 308 307 307 309 307 302 306 307 305 303 303 303 305 307 307 308 309 309 311 314 316 316 317 320 322 323 324 325 324 323 323 325 325 324 324 327 328 329 331 338 333 333
309 308 307 307 307 306 306 309 304 303 306 305 301 303 302 304 305 307 309 312 311 308 313 315 317 318 319 320 323 324 325 323 322 324 324 324 324 324 327 328 335 337 336 340 336
309 307 309 308 307 305 305 308 309 301 304 301 300 303 303 304 308 310 310 311 311 311 313 315 315 318 319 319 322 323 325 323 324 326 325 324 324 325 327 326 327 335 336 337 338
309 307 309 309 307 306 304 303 308 304 306 303 299 301 303 305 309 309 307 307 308 310 310 314 316 317 319 320 321 324 323 322 325 325 325 324 325 325 326 324 325 330 332 337 339
309 308 308 308 306 305 304 302 307 307 301 305 299 302 305 309 309 308 308 307 308 308 309 314 316 317 318 317 320 322 323 323 323 325 324 324 323 324 323 324 325 329 331 339 339
308 307 306 306 305 304 305 303 306 308 301 303 299 302 307 308 307 308 307 306 310 309 310 311 314 316 318 317 321 321 321 324 322 325 324 324 323 323 324 323 323 324 325 335 338
308 308 305 306 305 305 305 303 306 305 304 300 299 301 305 306 307 307 306 306 306 309 310 309 313 314 316 318 319 320 322 320 323 324 324 323 323 322 323 323 323 323 324 324 330
308 306 305 305 304 304 304 302 303 304 301 299 300 303 306 306 306 305 306 307 307 308 309 310 311 313 316 318 318 320 319 320 320 320 322 322 324 321 322 322 322 323 322 323 323
305 303 305 305 304 303 304 301 303 301 301 299 302 306 306 306 306 306 306 306 309 308 308 309 310 313 317 318 319 318 318 319 317 319 322 321 321 320 321 321 321 322 323 323 323
302 305 305 304 304 303 301 302 301 301 304 305 305 305 305 306 306 306 307 306 308 309 308 309 309 314 316 317 321 319 315 317 318 321 320 322 320 318 320 320 320 321 322 322 323
302 303 304 303 303 303 302 307 307 307 304 305 304 304 304 305 307 307 307 308 307 309 308 308 309 313 314 315 316 317 316 317 318 320 321 322 321 318 319 319 319 320 320 321 322
301 301 303 303 302 300 303 307 306 306 306 305 304 304 305 306 308 307 307 307 309 310 308 309 312 312 313 314 317 318 317 317 317 318 321 320 320 318 318 319 320 321 322 322 321
301 300 301 301 303 304 306 306 305 304 307 307 305 306 306 307 308 308 308 306 308 309 309 312 313 313 315 315 318 317 317 319 321 321 321 320 321 319 319 320 320 320 321 322 322
300 299 300 300 305 305 305 305 303 304 306 306 308 307 307 308 308 308 308 308 310 309 311 313 313 315 315 317 316 316 315 319 322 322 325 319 319 318 319 319 319 320 321 321 321
299 299 300 303 305 306 306 304 302 306 301 305 307 304 307 309 308 310 307 309 310 311 312 312 314 315 318 317 316 318 314 319 320 321 320 322 317 313 317 319 319 319 320 320 321
300 303 304 304 305 305 304 303 306 305 297 302 307 308 309 309 309 310 310 310 312 312 312 313 312 315 316 316 315 315 316 316 316 317 315 318 315 313 317 317 317 318 320 321 320
305 307 306 305 306 303 304 307 309 299 306 305 308 308 309 309 310 310 311 312 313 311 313 312 310 314 315 315 314 313 312 316 317 313 316 313 314 313 313 313 312 312 314 316 317
306 305 305 306 305 303 306 308 303 308 305 307 308 308 310 310 310 309 310 310 312 312 314 315 315 315 314 315 314 314 313 312 318 314 314 312 314 313 311 312 313 312 312 313 313
306 305 304 305 304 306 308 312 311 306 307 308 309 309 310 309 310 311 310 313 313 312 313 317 316 314 314 313 313 314 310 311 312 311 310 312 313 311 309 308 309 311 312 312 312
306 306 306 304 305 307 309 312 310 309 309 308 310 309 310 310 310 312 312 311 313 313 311 313 316 314 315 314 314 314 311 313 307 309 314 313 312 311 309 310 310 310 312 313 313
307 308 306 305 306 308 311 311 311 310 309 310 310 310 309 309 310 312 312 312 312 313 312 313 314 315 313 315 315 314 314 314 312 312 314 311 309 308 310 310 310 311 313 313 313
308 306 306 306 308 309 310 311 310 310 310 310 310 311 311 309 310 312 314 313 312 312 313 313 312 316 315 314 313 314 315 314 312 314 310 308 309 309 308 309 311 312 312 313 313
309 306 306 307 306 309 310 311 312 311 312 312 311 310 311 311 311 313 312 312 313 312 312 312 312 314 313 312 313 315 314 314 313 312 312 309 310 307 308 309 310 310 312 312 312
307 306 306 306 308 309 310 311 312 311 312 312 311 311 312 311 310 312 313 313 313 311 311 311 311 308 310 313 312 314 314 314 311 309 313 313 312 310 309 309 310 312 312 312 312
307 305 306 307 305 307 311 310 311 311 311 310 310 312 312 311 311 312 311 313 312 311 312 311 310 307 311 313 313 313 312 313 311 311 312 312 312 310 309 309 310 310 310 311 310
309 308 306 305 308 308 310 312 311 313 311 311 312 310 310 311 312 311 311 311 312 312 312 309 308 308 306 311 311 312 312 312 312 312 312 312 312 309 309 310 309 309 310 310 310
308 308 309 307 306 307 309 311 312 311 311 310 311 310 311 310 308 310 311 310 311 310 310 310 305 304 307 308 307 307 308 310 312 312 313 314 310 308 307 307 306 307 306 305 306

GFSSW_850_thetae_066.txt.gz
Theta_e
309 309 308 309 307 306 306 306 309 306 302 306 303 303 303 303 304 305 306 307 309 310 309 312 312 316 317 320 319 323 324 323 322 318 324 324 323 325 328 330 330 334 335 334 331
309 309 308 309 310 308 306 305 309 309 302 304 300 301 303 303 303 305 308 310 312 310 308 312 313 316 317 319 320 323 324 322 319 320 322 323 323 326 328 333 337 338 335 335 337
309 310 308 309 309 308 306 305 304 309 304 307 302 299 301 303 305 309 308 309 310 312 309 312 314 316 317 318 320 322 324 322 323 326 324 322 322 326 326 326 333 339 336 333 331
310 310 308 308 308 307 305 305 302 307 307 304 304 299 302 303 307 308 308 307 307 308 309 311 314 317 317 318 319 322 323 322 324 325 324 322 324 325 325 325 329 336 337 332 331
310 309 309 307 305 306 305 305 303 307 308 301 303 299 305 308 308 308 307 306 306 308 309 310 314 316 318 317 317 322 321 322 323 325 324 324 323 323 323 326 328 329 336 339 335
311 309 308 306 305 306 305 305 303 306 307 303 301 299 306 307 307 307 307 306 306 308 308 308 314 315 316 317 315 321 322 322 323 324 324 323 322 323 323 324 328 326 333 338 336
312 308 308 305 305 304 304 305 303 305 305 301 299 299 303 303 307 306 307 306 307 307 309 308 311 314 316 317 318 321 322 321 323 323 325 323 323 322 323 323 324 324 328 335 335
312 307 304 306 305 304 304 304 301 303 303 300 299 302 304 306 306 306 305 306 307 308 309 309 310 311 314 317 319 320 319 322 316 322 323 322 326 321 322 323 322 323 323 324 330
312 305 303 306 304 304 304 301 302 302 301 299 301 305 305 306 306 306 306 305 306 308 308 308 309 311 316 318 320 319 318 320 316 318 322 321 324 320 321 321 321 322 322 323 324
311 304 302 304 304 303 302 302 301 301 304 304 304 304 304 305 306 306 307 307 307 308 308 309 309 312 315 318 320 319 317 316 316 320 319 322 321 319 319 321 321 322 322 322 323
309 302 301 302 303 302 302 307 308 306 304 304 304 305 304 304 306 307 307 306 307 308 308 309 311 314 313 315 315 316 317 318 318 320 321 321 321 319 318 317 318 319 320 321 322
308 301 301 301 301 299 303 306 305 305 306 305 304 303 305 306 306 307 307 308 308 310 308 309 312 311 311 314 316 317 316 317 319 319 319 321 321 318 317 317 319 318 319 320 321
307 301 300 300 304 303 306 305 305 304 306 307 306 306 306 306 306 308 307 307 309 309 309 310 310 311 313 316 318 317 316 317 318 319 320 321 321 320 318 318 319 320 319 320 321
304 301 299 302 305 304 305 305 303 303 298 303 307 307 306 307 308 308 308 308 308 310 311 312 312 312 314 316 315 318 316 319 319 321 321 320 320 315 319 318 317 319 320 320 321
302 299 301 303 305 306 305 304 302 306 297 302 306 305 307 309 308 310 308 308 309 310 312 312 314 314 314 316 315 316 315 319 320 320 321 321 319 313 315 318 317 317 319 320 321
301 302 302 304 305 306 305 303 306 298 296 301 306 307 308 309 309 307 309 310 311 311 312 313 313 312 316 315 315 315 314 315 317 318 321 320 317 312 315 317 316 317 319 319 320
300 306 305 304 305 303 303 306 300 297 302 303 307 307 308 309 310 310 311 312 311 311 313 313 312 314 315 315 315 315 315 317 319 319 319 314 314 312 311 312 314 312 313 316 319
306 306 305 306 303 303 306 305 298 303 303 305 307 307 309 309 310 309 309 312 312 312 311 315 316 315 314 314 315 314 313 315 319 316 315 312 314 312 309 308 310 310 311 312 313
305 305 305 306 303 305 307 302 303 302 305 307 308 309 309 309 310 310 310 313 313 311 313 314 316 314 314 313 313 314 314 312 312 309 310 311 312 310 306 308 309 310 312 312 312
305 305 304 304 304 307 306 310 308 307 308 308 309 308 309 309 310 311 311 311 312 312 311 312 315 314 314 313 312 311 311 312 310 311 315 313 312 311 310 310 310 309 311 312 312
306 306 305 304 306 308 305 310 310 309 309 309 308 309 309 308 309 312 311 311 312 312 311 311 311 314 311 314 314 312 312 312 310 311 312 311 309 306 308 308 309 310 311 312 313
307 304 305 305 306 308 309 311 310 309 309 309 309 310 309 308 310 312 313 312 312 311 312 311 311 313 314 312 313 314 314 311 308 311 308 305 309 307 308 308 309 308 311 312 312
307 306 305 306 308 308 310 312 311 310 310 310 310 310 310 311 311 312 312 312 313 311 312 311 310 306 310 310 312 315 314 313 312 310 312 309 309 305 306 307 309 310 311 312 312
306 306 306 306 306 308 310 312 312 311 311 311 311 310 310 310 309 312 313 313 312 310 311 310 309 308 309 310 312 313 314 313 311 310 312 312 310 309 308 309 308 310 310 311 310
306 303 306 306 306 305 308 309 311 311 310 310 310 311 311 310 310 311 312 313 311 311 311 309 308 306 310 311 312 312 313 312 311 311 313 312 311 310 309 307 308 309 310 310 310
307 305 305 303 306 305 309 309 310 311 309 310 310 310 309 310 309 310 311 311 311 310 310 307 306 307 305 308 308 311 311 311 312 311 312 311 311 308 308 307 308 306 304 303 303
308 307 307 305 303 306 309 310 311 309 309 309 310 309 309 308 308 309 310 310 310 310 309 308 305 303 308 305 306 308 308 310 311 310 311 313 309 307 306 304 305 302 302 301 301

GFSSW_850_thetae_069.txt.gz
Theta_e
314 310 311 308 310 310 309 307 305 310 308 303 303 301 301 304 303 303 304 305 307 308 310 310 309 312 315 318 319 320 323 325 322 320 319 321 322 325 329 328 331 328 329 332 330
316 312 312 309 309 309 308 307 306 305 309 306 307 303 299 301 302 303 307 311 312 311 314 308 310 313 314 316 317 319 321 321 319 317 318 322 321 326 330 333 334 332 330 332 328
319 314 311 309 308 308 308 306 305 303 307 308 306 305 299 301 304 306 308 308 308 308 309 309 310 311 313 316 317 318 321 321 321 323 325 322 322 325 329 329 333 335 334 331 331
321 316 311 310 307 305 306 306 305 303 307 309 303 304 299 303 303 307 307 306 306 308 309 310 311 310 313 315 317 320 320 321 321 324 323 321 323 325 326 328 332 336 336 331 329
320 317 312 310 307 305 307 306 305 303 308 308 303 301 301 307 306 307 307 306 306 308 308 308 310 311 315 314 317 319 320 322 323 324 324 323 323 323 324 328 330 335 337 336 335
319 318 312 309 305 305 305 305 305 304 306 307 304 300 301 306 306 307 307 306 306 306 308 307 311 313 315 316 316 318 317 321 323 324 324 323 321 323 323 331 328 334 334 334 334
321 317 312 305 304 306 304 304 304 303 304 306 304 299 301 300 304 306 306 306 305 307 308 308 309 312 313 316 316 318 318 322 323 323 324 322 324 322 323 331 331 331 334 334 333
320 317 313 304 304 305 305 304 303 301 303 302 303 301 302 304 306 306 306 305 305 307 309 308 308 309 313 316 316 316 313 323 318 320 323 322 325 321 321 327 324 327 332 333 334
318 318 313 302 303 305 304 301 302 302 301 303 301 304 304 305 305 306 305 306 305 307 308 307 309 311 314 316 318 315 316 320 318 318 320 321 324 320 320 321 321 322 323 325 333
317 317 309 301 301 303 301 302 301 301 302 303 303 304 304 305 305 305 306 306 306 307 308 309 309 312 314 318 320 317 315 319 320 319 319 320 319 319 319 319 320 321 322 322 323
317 315 307 301 301 303 302 305 305 304 304 304 304 304 303 303 304 305 307 306 307 307 309 309 312 311 314 312 314 315 316 318 318 319 319 319 322 320 319 317 318 320 320 322 322
319 316 304 301 301 301 303 306 305 306 305 305 305 303 303 304 305 307 307 307 307 309 308 309 313 311 311 313 315 317 317 318 319 319 319 319 321 320 320 318 317 318 320 320 321
320 314 302 300 301 302 304 306 305 303 305 306 306 305 306 306 306 308 307 307 308 309 309 309 311 311 312 311 315 316 316 316 318 319 319 320 321 320 319 317 318 318 319 319 318
320 314 301 300 303 303 305 305 303 303 294 302 306 307 306 307 308 308 308 307 308 309 308 311 311 313 311 310 315 316 315 316 319 318 319 319 321 316 319 317 316 318 318 319 319
315 310 300 300 305 304 304 303 302 305 294 299 305 305 307 308 308 309 308 308 309 310 311 313 312 312 312 313 315 316 318 317 318 319 320 320 321 315 314 316 316 316 319 320 320
313 304 301 302 305 306 304 302 304 297 293 300 306 306 308 308 308 306 308 309 310 312 313 313 312 312 313 315 315 315 317 317 317 318 321 320 320 313 314 316 315 315 317 319 320
310 304 302 304 305 305 303 305 298 297 300 302 306 306 309 309 310 310 311 312 313 312 313 313 312 312 315 314 314 316 315 319 318 320 320 316 319 316 309 308 313 313 312 315 317
306 304 303 305 305 304 305 302 296 300 301 304 306 307 309 309 309 309 310 313 312 311 313 315 315 312 314 314 316 315 313 315 318 319 316 314 319 312 306 306 307 308 310 311 312
305 304 304 306 304 303 307 300 300 300 304 307 307 308 308 308 310 310 311 313 313 311 313 315 315 314 314 313 313 315 313 312 310 309 314 312 311 309 308 307 308 309 311 311 311
305 305 305 305 304 306 307 306 307 304 307 307 308 307 309 308 310 310 311 311 312 312 310 312 316 313 314 312 311 312 310 314 311 314 314 312 312 311 309 309 308 307 310 311 312
305 305 305 304 305 307 307 304 308 308 308 306 307 308 308 308 309 311 311 311 311 311 310 310 310 312 311 314 314 311 312 311 310 311 313 312 310 306 307 308 306 306 310 311 312
306 306 305 305 306 306 306 308 309 308 308 309 308 309 307 307 310 312 312 311 311 311 312 310 309 312 314 312 312 313 313 309 308 311 306 306 310 303 306 307 307 308 309 310 310
306 305 304 305 306 306 309 311 309 308 309 309 309 309 309 309 312 312 312 311 311 310 311 310 307 304 306 308 311 314 314 311 309 307 309 306 308 306 306 306 308 309 309 309 310
305 306 305 306 306 307 311 311 310 310 309 310 309 309 309 309 308 312 313 312 311 310 311 309 307 306 307 308 310 314 314 311 309 306 311 310 309 309 308 307 307 308 309 308 307
305 304 305 306 306 307 308 311 311 311 309 310 310 310 308 309 310 311 313 312 310 310 309 307 307 305 308 310 311 311 313 312 310 311 311 311 309 309 308 307 307 306 304 305 305
306 303 305 304 305 306 308 309 311 310 308 309 309 309 308 308 308 309 311 310 311 309 309 305 305 305 304 305 307 311 310 311 311 311 311 310 311 307 306 306 303 302 303 303 303
307 305 306 305 302 306 307 308 309 308 309 309 308 308 308 308 308 308 309 309 309 310 308 306 304 302 306 304 306 307 306 309 310 307 309 311 309 306 302 302 303 302 302 301 301

GFSSW_850_thetae_072.txt.gz
Theta_e
323 321 319 314 312 310 309 309 308 307 305 310 308 307 305 299 302 302 302 303 306 309 310 310 310 308 308 314 316 318 320 321 322 322 320 318 319 324 325 326 325 326 325 327 330
323 322 320 316 312 309 308 308 308 306 305 308 309 307 308 299 301 301 303 309 311 309 310 312 312 310 311 314 315 316 319 319 318 318 318 319 319 324 329 328 331 326 327 328 329
322 323 319 316 314 309 306 307 306 306 304 306 309 305 306 299 303 304 308 308 308 306 307 309 308 309 311 312 314 315 317 317 320 319 320 319 321 323 328 329 331 327 330 328 328
322 323 319 317 314 309 306 307 307 306 303 306 308 306 302 302 301 307 307 307 307 305 307 309 309 310 311 311 312 315 315 318 319 319 322 322 321 323 329 328 331 328 328 327 326
322 322 320 317 315 307 305 306 306 306 303 307 308 306 301 305 304 305 307 306 306 306 306 308 308 310 310 311 312 315 315 317 319 321 322 323 323 322 325 326 330 331 330 327 329
321 321 320 316 314 305 304 305 306 306 304 305 307 306 300 303 303 306 307 306 306 305 307 307 308 311 309 311 312 312 314 317 320 320 322 323 322 320 323 330 332 331 332 331 328
321 322 320 316 311 303 306 305 304 304 302 303 306 304 300 299 300 305 306 306 305 305 306 307 308 308 309 312 311 312 316 316 319 321 323 322 323 322 321 331 331 333 333 332 332
319 321 319 316 311 303 305 305 305 303 301 304 304 302 300 300 305 306 306 305 305 305 306 308 307 307 309 312 314 314 316 319 318 321 322 321 324 321 321 330 332 331 332 331 330
317 321 319 316 307 302 304 304 302 303 303 303 303 301 303 305 304 305 305 305 305 306 306 308 306 310 312 311 316 316 315 315 316 319 320 321 324 320 319 322 322 323 330 332 332
316 318 320 315 307 302 303 302 302 302 301 302 302 304 303 303 304 304 305 306 306 306 307 308 308 312 311 311 316 317 313 315 316 320 318 317 319 320 319 319 320 320 321 326 332
315 316 317 316 304 302 302 304 302 303 304 303 303 303 303 302 304 306 306 306 306 307 308 309 311 313 310 308 315 313 315 314 318 319 320 318 317 318 319 318 316 319 320 321 324
312 314 316 308 305 301 301 306 306 306 304 303 304 304 304 304 306 306 306 306 306 308 308 310 313 310 311 313 316 315 315 315 317 319 319 319 317 315 319 319 318 317 317 319 322
307 312 313 308 301 301 300 305 305 303 305 306 306 305 305 306 307 307 306 306 307 308 309 310 311 311 312 313 317 316 316 316 314 316 318 319 319 317 319 318 318 318 318 318 318
305 310 311 304 302 303 302 305 304 304 295 301 305 306 306 307 308 308 308 306 307 309 309 310 311 311 311 312 314 318 315 316 317 316 318 317 323 318 319 320 319 318 317 318 319
302 309 310 303 303 303 305 305 303 306 296 298 304 305 306 308 308 309 308 307 309 309 311 312 312 313 312 312 314 316 315 316 317 319 319 319 319 317 315 318 320 317 317 318 320
303 309 306 301 304 304 304 303 304 298 294 298 305 306 308 309 308 307 308 308 309 312 312 313 311 312 310 310 312 314 315 317 317 318 319 319 318 314 313 314 315 315 316 318 318
306 308 304 303 303 305 303 304 298 299 299 302 305 306 309 309 311 310 311 311 313 310 313 312 313 312 313 316 315 315 316 319 320 320 319 315 319 316 307 305 308 307 308 313 315
307 306 304 302 304 305 303 302 299 299 300 303 305 307 308 308 310 311 312 313 311 311 314 310 308 313 313 314 316 313 313 315 318 319 318 317 319 310 305 306 306 307 308 309 310
307 304 303 304 305 304 306 298 301 300 303 305 306 307 307 307 309 310 311 314 313 310 312 316 315 313 312 312 313 315 313 311 310 310 315 314 310 308 307 307 307 308 310 310 311
304 304 303 305 305 304 303 305 306 302 305 305 307 306 308 308 309 310 310 310 313 311 310 312 316 313 313 312 311 312 311 312 310 312 315 312 311 310 309 308 307 306 308 310 311
303 304 304 304 304 306 303 303 307 306 307 306 306 306 307 308 309 310 310 311 311 310 309 309 311 313 310 313 313 311 312 310 309 309 314 315 311 306 307 308 306 305 307 308 309
303 304 305 304 307 306 306 306 308 307 308 308 306 308 306 307 310 311 312 311 310 310 311 309 308 313 314 311 311 312 312 307 308 311 305 308 310 303 305 305 306 306 307 308 308
302 303 305 305 307 306 306 309 307 307 308 308 308 308 308 308 311 311 312 311 309 309 310 309 305 303 306 307 309 313 313 309 306 305 307 308 309 306 306 306 307 307 308 307 307
303 304 304 305 306 304 308 309 308 309 308 308 308 308 309 309 308 311 312 311 310 310 310 308 305 305 306 307 309 313 313 310 307 304 309 307 308 308 308 306 306 306 305 305 304
303 304 306 306 306 305 307 309 309 310 308 309 309 309 308 309 309 311 312 310 310 309 308 306 307 304 305 309 310 311 312 311 307 309 309 309 308 307 306 305 305 304 304 304 304
304 303 305 304 304 306 308 309 309 308 308 309 309 309 308 308 308 310 310 310 310 307 307 304 304 305 304 304 306 311 310 310 311 310 309 306 309 305 305 305 303 302 303 303 303
305 304 304 305 302 306 307 308 309 307 308 308 307 307 308 308 307 307 308 307 307 309 306 305 304 301 306 303 305 307 307 309 309 307 309 310 308 303 302 304 302 302 302 302 302

GFSSW_850_thetae_075.txt.gz
Theta_e
322 323 322 322 320 319 314 307 309 309 308 306 308 310 308 308 305 300 300 302 303 309 312 313 311 311 308 309 314 316 318 319 318 320 321 319 319 319 321 325 325 326 325 324 324
320 322 324 322 320 318 315 307 308 308 306 306 307 309 308 307 303 299 301 303 310 310 307 309 310 311 311 311 311 315 316 316 316 318 320 318 319 320 323 325 326 326 326 325 322
319 320 321 322 320 317 314 307 305 308 307 304 307 308 308 305 299 304 307 308 310 306 305 306 308 308 309 310 313 314 316 314 315 317 318 319 320 320 324 326 327 326 327 330 329
318 319 321 323 320 317 314 306 305 308 308 304 307 308 307 302 300 307 307 310 308 305 305 307 308 309 310 310 310 313 314 314 315 316 319 320 319 320 321 323 325 326 326 329 329
319 318 319 321 322 317 313 304 304 306 306 305 307 308 306 301 300 302 304 308 306 305 305 306 307 309 310 310 310 312 312 314 314 315 319 321 322 321 321 321 324 328 326 328 328
317 319 317 321 321 317 313 304 305 306 307 305 306 307 304 300 300 303 305 306 306 306 305 306 306 308 308 309 310 310 311 312 313 315 318 320 321 321 320 321 321 329 327 329 328
313 316 318 320 320 317 310 306 306 305 305 304 305 307 304 301 299 301 305 306 306 305 305 305 306 308 308 308 309 310 312 311 313 315 319 320 322 323 321 321 323 328 329 329 328
306 314 317 318 318 317 310 303 305 304 302 303 306 305 300 299 301 304 305 306 305 305 305 305 307 308 307 308 310 311 311 312 312 316 318 319 323 322 321 321 322 326 328 330 330
302 311 314 317 318 313 306 304 303 302 303 304 305 303 300 303 304 303 304 305 304 305 306 306 307 307 308 309 311 313 313 311 317 318 320 321 321 320 320 321 322 324 328 326 328
300 302 312 315 316 315 303 303 302 302 303 306 304 303 302 302 302 303 305 305 305 306 306 307 307 308 311 312 316 314 316 316 317 318 317 317 320 320 319 319 320 321 324 329 329
298 298 311 313 314 308 303 302 303 302 303 304 302 302 303 303 304 305 307 306 306 306 307 308 310 311 312 310 308 312 314 315 317 317 317 315 316 318 319 318 318 319 320 323 325
300 299 307 311 310 307 303 302 304 305 303 302 303 303 304 304 305 306 306 306 305 306 307 308 311 310 310 309 309 313 315 317 315 318 318 317 316 316 317 319 318 318 319 319 321
301 300 306 310 307 307 303 302 304 305 304 305 305 305 305 305 306 306 306 306 307 307 309 310 310 310 310 307 314 315 315 316 315 315 315 318 318 316 319 319 318 318 318 318 319
301 301 305 308 305 306 302 302 305 303 300 302 304 305 306 306 308 307 308 306 307 308 309 310 311 311 312 314 315 317 315 314 315 316 318 315 322 317 318 319 319 319 318 317 318
301 301 301 305 306 303 304 303 304 305 304 298 303 305 306 307 308 308 308 306 309 309 309 311 312 312 311 313 314 316 315 316 316 317 317 318 320 316 317 318 319 319 318 318 318
300 301 302 305 305 303 304 305 303 302 300 298 305 305 308 309 309 307 308 307 309 310 311 312 311 312 310 310 311 314 316 316 316 318 319 319 318 316 312 312 314 316 315 316 318
301 303 303 305 304 303 303 303 303 302 299 302 305 305 308 309 310 310 309 310 311 308 313 311 312 313 309 316 315 315 316 318 318 317 320 317 319 311 307 305 307 312 308 311 313
301 303 305 305 303 303 303 303 304 300 300 302 305 306 308 309 310 311 312 314 311 310 312 307 312 313 313 314 316 314 314 314 320 319 322 318 315 312 307 306 306 306 309 310 311
305 304 305 302 303 304 304 307 303 301 302 305 306 307 307 307 310 310 311 313 312 311 311 316 316 313 312 312 313 315 314 310 313 313 318 313 309 308 308 308 307 307 307 307 309
305 303 303 302 304 304 305 307 305 301 304 305 306 306 307 308 309 309 309 310 313 311 310 312 317 313 313 311 311 312 310 312 313 318 319 313 311 309 310 309 307 306 305 306 308
303 302 301 303 304 304 306 304 306 304 306 305 305 305 306 307 309 309 310 311 310 310 309 308 311 314 310 312 312 311 311 309 309 311 317 316 310 305 307 307 306 304 306 307 308
303 304 303 303 304 305 305 304 307 306 307 307 306 306 306 306 310 311 311 310 309 309 310 309 310 312 313 309 309 311 311 306 312 311 306 309 310 304 303 304 304 305 305 305 306
301 302 303 304 307 307 306 307 306 307 307 307 308 308 307 308 310 310 311 310 309 309 309 308 306 305 310 309 309 312 311 307 305 305 307 310 310 305 305 305 305 305 304 304 304
302 303 302 304 305 304 308 307 307 308 308 307 307 307 307 308 307 311 311 310 309 310 309 306 305 306 308 309 309 313 312 308 307 308 309 308 308 307 306 306 305 304 303 303 304
302 304 304 305 306 304 306 307 308 309 308 308 308 307 307 309 308 311 310 309 309 308 306 305 307 303 304 306 310 311 312 311 308 308 309 308 308 307 307 305 305 303 303 303 303
303 303 304 304 304 304 307 307 308 307 308 308 308 308 306 307 307 309 310 309 309 306 306 303 304 304 303 304 307 310 309 310 310 309 308 306 309 305 305 305 302 302 302 302 302
304 304 304 304 303 305 308 307 308 306 307 306 306 306 306 307 307 307 308 306 305 307 305 304 303 301 306 302 305 307 306 309 309 307 307 309 307 303 303 304 302 301 301 301 301

GFSSW_850_thetae_078.txt.gz
Theta_e
320 320 320 321 322 321 319 318 314 308 308 308 306 306 310 309 307 306 301 301 302 306 311 312 312 313 311 311 313 316 319 319 317 317 317 318 321 321 321 321 322 324 326 328 328
319 319 320 321 321 322 321 318 314 305 307 308 305 307 309 308 307 305 303 300 307 311 309 311 311 311 312 312 310 314 316 316 315 316 317 317 320 321 321 321 323 325 326 327 326
318 319 319 318 320 322 321 319 316 305 308 308 306 308 308 307 305 303 307 308 310 307 305 305 308 310 310 311 312 310 314 313 314 315 315 316 319 319 321 322 322 324 327 331 329
313 316 319 319 319 321 321 318 314 304 308 308 305 308 308 307 305 307 308 310 309 305 305 308 309 309 309 310 311 313 311 310 312 314 315 317 317 320 320 320 321 323 326 330 331
308 312 315 318 318 320 320 318 313 304 307 307 305 307 308 306 305 304 305 310 307 305 307 307 308 308 309 308 309 311 311 312 311 313 315 317 318 319 320 320 319 321 324 330 331
307 307 312 314 316 319 319 317 309 305 306 307 304 306 307 306 302 300 303 306 307 306 307 307 307 307 308 308 309 309 311 311 311 313 314 316 318 319 319 319 321 321 323 329 331
304 305 309 314 316 319 317 311 308 304 305 305 303 306 307 306 301 300 303 305 306 306 307 307 307 307 308 308 308 309 311 311 311 311 315 314 318 321 320 321 321 321 323 328 330
304 305 307 313 317 317 315 314 305 305 303 302 303 307 306 300 300 300 303 304 305 305 305 306 307 307 308 308 308 310 309 314 312 312 312 316 319 317 320 321 321 321 323 325 329
303 302 301 312 315 315 314 306 304 303 302 304 305 305 304 301 302 304 304 305 305 305 305 307 307 308 308 309 310 311 315 313 312 311 313 317 318 319 320 322 321 321 323 324 327
302 302 298 309 314 314 312 305 303 302 303 304 305 303 301 303 302 302 303 305 306 307 307 307 308 309 308 311 313 317 313 312 312 313 314 317 318 321 321 321 322 323 324 323 322
302 301 300 307 312 311 310 304 303 303 305 305 305 303 302 302 304 304 306 306 307 307 308 308 309 310 310 310 312 310 314 315 311 312 316 317 319 316 316 321 322 322 323 325 327
302 302 301 307 309 309 306 303 303 305 305 303 304 303 303 304 306 306 306 307 307 308 308 309 310 309 310 311 312 312 314 318 317 317 317 317 318 315 315 319 321 321 321 324 326
301 301 301 303 308 307 307 304 303 305 306 305 303 303 305 305 307 307 307 307 308 308 308 310 310 310 312 310 313 312 317 317 317 316 316 318 319 315 315 318 320 318 318 319 322
300 301 301 302 306 307 306 303 303 304 308 306 306 306 306 307 308 307 307 307 308 308 309 309 310 311 313 311 314 316 315 314 313 316 323 316 322 315 313 321 320 320 319 318 318
300 300 300 301 304 305 306 303 304 304 312 304 306 306 306 308 309 308 308 306 309 309 308 313 312 313 314 312 315 317 315 314 315 317 320 318 322 316 318 321 321 320 318 318 317
300 300 301 302 302 304 304 304 303 308 309 303 306 307 308 309 309 307 308 307 308 309 310 311 312 313 312 312 314 315 317 317 317 318 323 320 322 317 312 311 317 315 314 316 318
301 301 301 302 302 303 304 303 309 310 301 305 307 307 310 309 311 310 310 310 312 314 317 313 313 310 309 316 315 316 318 321 322 324 324 318 318 314 311 309 311 312 308 313 311
300 302 301 302 303 304 303 306 310 306 304 304 307 308 311 311 308 310 311 311 311 312 313 315 318 311 313 315 318 317 316 319 321 325 323 316 318 313 310 309 309 309 308 309 312
305 304 302 303 304 303 304 310 310 306 304 307 308 310 310 310 311 310 310 313 312 312 315 318 316 313 313 314 315 317 317 313 319 318 318 316 312 312 311 311 309 309 308 307 307
303 303 303 301 304 302 306 309 307 302 305 308 310 309 311 311 312 312 312 311 313 313 311 314 317 315 314 312 313 314 312 318 319 321 320 317 315 315 313 311 310 309 307 307 307
303 301 303 302 302 303 308 308 307 304 306 307 308 309 310 311 312 312 312 311 311 312 311 312 314 316 314 316 316 315 315 313 314 315 318 318 315 312 313 312 310 308 307 306 305
303 304 300 303 303 304 308 307 307 308 308 308 309 308 310 311 313 313 314 312 310 311 313 312 315 317 316 312 311 314 314 312 317 314 312 315 313 308 310 310 309 308 306 303 302
301 302 303 303 307 307 308 308 307 308 308 309 310 310 308 311 313 313 313 311 311 312 312 311 314 318 317 315 313 316 313 311 311 313 312 316 314 308 309 309 309 307 305 304 303
303 304 301 302 305 307 309 308 308 308 309 308 309 309 310 311 312 313 313 312 310 311 308 309 311 312 316 314 314 316 314 312 313 317 314 313 312 310 310 310 309 306 305 304 303
303 303 303 307 307 306 307 308 308 309 309 308 310 310 310 312 312 313 312 311 310 308 309 311 313 309 310 310 313 314 314 314 314 311 314 312 313 312 311 311 310 306 304 304 303
303 305 303 306 306 305 308 308 309 309 309 310 310 309 310 310 310 312 312 311 312 311 310 309 313 309 313 309 312 313 313 313 313 312 312 311 312 311 310 308 306 305 304 303 303
304 304 305 305 306 308 309 309 309 309 308 307 309 310 310 308 308 308 309 308 308 311 310 310 311 313 314 308 310 314 309 312 312 311 311 313 311 309 309 308 306 304 303 303 301

GFSSW_850_thetae_081.txt.gz
Theta_e
316 318 320 320 320 321 321 322 321 318 314 306 307 305 308 309 309 310 309 306 306 304 309 314 313 313 312 311 311 314 318 318 316 316 316 316 318 318 319 321 321 322 322 324 329
313 314 317 319 319 319 319 322 321 318 314 306 308 305 308 309 309 308 308 304 301 310 312 313 312 312 313 312 311 313 316 315 314 315 316 316 316 317 319 320 322 322 322 324 330
309 310 311 314 318 319 320 321 321 318 315 308 308 306 308 307 308 305 306 303 310 308 309 309 310 310 311 311 312 311 312 312 313 313 314 315 316 316 318 320 321 322 323 325 332
306 307 310 311 315 318 321 320 320 318 313 306 308 306 308 308 309 308 308 311 312 308 308 308 308 309 309 310 311 312 312 312 311 311 313 316 316 316 317 318 319 321 322 325 330
305 306 307 309 313 316 319 320 320 317 310 305 307 305 308 309 308 306 306 310 310 308 307 306 307 308 309 308 308 310 310 310 311 313 311 313 315 316 317 318 318 320 321 324 327
304 305 305 306 311 316 317 318 318 312 306 306 307 304 308 309 306 304 305 306 308 308 307 307 307 307 307 308 309 308 308 309 310 310 312 312 313 315 317 317 318 320 320 321 323
304 304 304 303 311 315 318 318 315 312 305 306 306 306 307 308 305 305 302 306 307 307 307 307 307 307 307 307 307 308 309 309 310 310 311 313 315 315 315 317 319 318 321 321 322
303 304 305 301 311 315 316 316 313 306 305 304 304 307 308 306 303 303 302 304 305 306 307 307 306 307 307 307 308 309 309 311 311 312 312 313 317 314 314 317 319 320 320 319 320
302 302 301 301 308 313 316 312 308 305 303 304 306 308 308 302 302 304 306 306 306 306 306 306 307 308 308 309 309 310 311 312 312 312 313 313 316 315 315 316 319 320 321 321 323
301 301 302 301 307 312 311 310 305 303 305 307 306 307 304 305 305 304 305 306 307 307 307 308 308 308 309 309 310 312 315 313 314 313 313 314 315 318 319 320 318 320 321 322 325
301 302 302 301 306 310 309 305 305 305 306 307 308 305 303 304 304 306 307 308 308 307 308 308 309 311 310 310 310 311 313 314 314 313 313 313 315 316 317 318 321 320 321 324 325
301 300 301 301 302 307 306 306 307 306 307 306 305 304 305 305 307 307 307 308 307 308 308 309 310 309 310 310 311 311 313 315 314 313 314 313 317 316 318 316 318 322 322 324 325
300 300 300 301 302 306 307 305 305 306 308 307 305 305 306 306 308 308 308 308 308 308 308 310 310 309 311 312 314 313 312 314 315 316 315 317 319 318 317 316 318 321 321 324 326
299 299 300 301 303 306 306 306 305 305 311 309 307 306 307 308 308 309 308 309 309 309 310 310 310 312 313 311 311 313 313 314 316 319 321 318 322 317 316 316 320 320 320 320 322
299 299 300 300 303 302 306 305 304 305 317 308 307 306 308 308 309 309 308 308 310 310 309 313 312 314 315 313 315 316 315 316 315 319 319 319 321 317 313 319 322 320 320 319 319
300 300 300 301 302 302 304 303 303 310 315 306 306 308 309 309 310 309 309 308 309 310 310 310 312 313 313 314 315 314 315 316 317 321 323 321 321 318 315 312 312 315 313 314 315
301 301 301 301 302 303 303 302 310 315 304 306 308 309 310 310 311 309 309 311 313 315 312 313 313 310 310 314 314 317 318 323 327 327 324 318 318 316 312 310 309 312 312 312 313
301 301 302 302 301 303 302 304 314 310 305 306 309 310 312 311 309 311 311 313 311 312 315 318 319 313 313 316 318 319 317 321 326 327 322 317 318 315 310 311 310 309 309 309 311
305 303 302 301 301 303 302 310 313 308 305 309 310 311 312 312 312 311 313 313 313 313 317 318 317 313 315 315 316 318 319 316 320 318 320 318 316 313 312 310 310 309 308 308 309
304 304 302 302 303 303 304 311 307 305 308 310 312 311 312 313 314 314 314 313 314 314 313 315 319 316 315 314 315 315 314 320 321 323 322 318 318 318 316 312 311 310 308 307 307
303 303 303 303 302 302 310 309 306 306 309 310 310 311 312 313 313 314 313 313 312 313 312 313 316 316 316 317 317 317 316 315 316 317 320 320 317 314 314 314 313 311 309 307 306
303 302 302 302 302 304 309 309 307 309 309 310 310 311 312 312 313 314 315 314 312 313 314 313 316 318 317 314 313 316 314 314 319 318 317 319 316 312 313 312 311 308 306 304 304
301 300 301 303 308 309 309 308 309 309 310 310 311 311 311 313 315 314 314 312 312 313 314 312 316 321 319 317 316 316 315 315 315 317 315 319 316 312 312 312 310 308 306 305 305
304 304 303 303 306 309 309 308 309 310 311 310 311 311 312 314 314 315 315 313 312 312 309 311 313 315 319 317 316 317 315 314 316 319 315 315 314 313 313 312 311 308 307 306 305
304 305 304 308 308 310 309 309 310 311 311 311 311 311 312 314 314 314 314 313 312 310 311 314 314 313 313 313 315 315 315 315 315 314 315 314 314 313 313 313 311 309 307 307 306
306 307 306 306 306 310 309 309 310 311 311 311 311 311 312 313 314 314 312 313 313 313 312 313 315 312 316 312 314 314 314 315 314 314 313 313 314 313 313 312 310 308 307 307 305
305 305 307 307 309 310 309 309 310 311 310 310 311 312 312 311 311 311 311 310 311 312 312 313 314 317 316 312 312 315 310 313 314 313 313 314 313 313 312 311 310 309 307 306 305

GFSSW_850_thetae_084.txt.gz
Theta_e
310 312 314 316 319 319 320 320 320 321 319 316 311 307 304 306 308 309 312 310 308 305 303 311 313 313 313 312 311 313 316 317 316 315 315 315 315 315 316 319 319 320 321 322 327
307 308 309 310 314 318 319 319 320 321 320 317 311 307 306 307 307 310 309 309 306 301 308 314 312 312 313 312 311 312 314 315 314 313 313 314 314 315 315 316 319 320 321 322 327
306 306 307 307 308 313 316 318 321 321 320 319 311 307 306 308 310 311 307 304 302 308 310 310 311 311 311 312 312 312 313 312 311 311 312 313 313 314 315 315 317 320 321 321 322
306 305 306 305 307 310 314 317 320 320 320 318 308 306 306 309 311 311 306 309 310 310 308 308 308 309 310 310 311 312 311 311 311 311 312 311 311 313 315 316 316 318 319 321 324
305 305 304 306 305 307 310 316 319 319 318 316 306 306 306 310 309 308 305 310 307 308 307 307 306 307 308 308 308 309 310 309 310 310 311 311 312 311 313 315 316 318 318 320 323
305 305 304 305 304 307 310 315 318 317 317 314 306 306 308 308 307 307 306 309 309 309 307 307 307 307 307 307 308 308 308 308 308 308 309 311 311 312 311 314 315 317 318 319 320
304 304 303 304 304 307 313 317 317 317 315 309 306 305 308 308 305 305 305 306 307 308 307 307 307 307 307 307 308 308 309 309 309 308 308 309 311 312 312 312 313 316 317 318 320
303 303 302 302 301 304 312 316 316 315 310 307 306 307 308 308 308 305 304 304 305 306 306 307 307 307 307 307 307 308 309 309 308 309 309 309 311 312 313 313 313 315 318 319 318
302 303 301 302 303 306 312 312 314 311 305 303 306 307 309 307 303 303 303 305 306 306 306 306 306 306 307 308 309 308 309 309 310 310 311 310 310 311 311 313 313 314 318 319 320
302 301 302 302 302 308 311 309 307 307 305 307 307 307 307 305 305 305 306 306 306 307 306 307 307 308 309 309 309 308 310 312 313 312 313 312 311 311 314 316 319 314 317 320 321
301 300 300 302 302 304 309 305 307 306 307 308 307 306 305 305 304 306 307 308 308 307 307 308 309 308 308 308 308 308 309 311 311 311 313 314 313 312 314 318 318 320 321 319 321
301 300 300 300 302 301 306 306 306 306 308 307 306 305 305 306 308 308 308 308 308 308 308 309 311 308 308 310 311 310 311 312 312 312 313 314 313 313 314 316 316 319 321 322 323
300 300 299 300 301 302 302 306 305 306 308 308 307 306 305 306 308 309 308 308 308 308 308 310 309 309 309 311 313 311 312 314 313 312 314 314 313 314 316 317 316 318 320 322 322
300 300 299 299 301 304 305 305 305 305 309 308 307 306 307 308 309 309 309 309 309 309 311 311 310 310 311 313 312 313 312 313 313 314 315 314 312 316 315 315 316 320 321 321 323
300 299 299 300 303 303 304 305 305 305 312 309 307 307 307 309 309 309 308 307 309 310 310 309 311 312 315 314 312 313 315 311 315 317 318 318 320 315 314 316 313 320 320 319 319
301 301 300 300 301 302 302 304 304 308 313 306 307 308 309 309 310 310 309 308 309 310 310 311 309 312 313 313 314 314 316 315 315 318 319 319 320 317 314 312 311 314 314 315 315
301 302 301 301 303 304 302 303 307 311 305 306 307 308 310 310 310 309 309 310 313 314 312 313 313 312 311 314 315 316 318 321 321 321 321 318 317 314 312 310 311 313 312 312 314
303 302 301 302 303 303 303 304 309 306 307 307 309 310 311 311 310 312 312 312 312 311 315 316 318 313 313 312 319 316 317 320 324 324 320 316 317 315 310 311 309 310 309 310 312
304 302 302 302 302 303 302 306 310 308 307 309 310 312 312 311 311 311 312 314 313 313 315 317 317 314 313 315 315 317 319 316 322 318 320 318 314 312 310 311 310 309 309 308 309
303 302 301 302 301 303 303 309 306 305 308 310 311 312 312 312 313 313 314 312 313 314 312 315 318 316 315 315 316 315 314 318 321 325 323 320 319 320 314 312 311 309 308 306 306
303 303 302 301 303 303 307 308 305 307 309 310 311 312 313 313 314 315 313 313 313 313 312 313 317 317 316 316 316 316 315 314 314 315 319 320 318 314 315 313 312 309 307 305 305
303 303 302 302 303 303 307 308 307 309 310 310 310 312 313 313 314 315 315 314 313 313 314 313 315 317 316 314 314 314 314 313 315 316 315 314 313 311 311 310 308 306 305 304 304
301 301 302 303 308 307 308 309 310 310 311 311 311 311 312 313 315 314 314 312 313 313 312 312 313 317 316 315 315 315 313 314 315 316 313 315 312 310 310 308 307 306 305 305 305
304 304 303 304 306 307 309 310 310 311 311 311 311 312 313 314 314 314 314 313 312 312 310 311 312 313 314 315 314 314 313 313 314 312 313 313 311 311 310 309 307 307 306 305 305
306 306 305 308 309 310 309 311 312 311 311 311 311 311 312 314 314 314 313 313 312 311 311 313 312 309 312 314 314 314 314 313 312 311 312 311 312 311 310 309 308 308 307 306 305
307 307 306 307 308 309 308 311 311 311 311 311 312 312 312 313 313 313 313 312 312 312 312 312 311 312 309 312 312 311 311 313 313 313 312 312 312 310 312 312 309 308 307 306 305
306 306 308 308 309 308 309 310 311 311 310 310 311 311 311 310 311 311 311 310 310 311 311 312 311 310 312 311 311 312 309 310 313 312 311 313 312 310 310 310 309 308 307 307 305

GFSSW_850_thetae_087.txt.gz
Theta_e
307 307 308 308 312 315 318 319 319 322 319 320 319 315 309 305 308 308 309 309 309 307 303 311 312 313 313 310 311 311 314 315 315 315 315 314 312 314 313 314 315 315 318 321 324
306 306 306 307 307 309 313 317 319 318 320 318 320 316 307 307 308 307 309 311 309 306 303 313 312 312 312 312 311 310 310 313 313 312 312 311 311 310 311 312 314 315 316 320 323
306 306 305 306 306 307 308 313 316 317 320 320 319 316 306 307 308 310 309 311 309 305 311 310 311 312 312 312 312 311 311 310 311 311 311 311 311 311 310 311 313 315 315 319 322
306 306 306 305 306 305 306 308 314 315 319 319 319 314 306 308 311 310 305 303 303 308 309 309 309 309 309 308 310 311 311 311 311 310 310 310 310 310 311 310 311 312 314 315 322
305 305 305 305 304 306 306 305 312 315 317 318 317 308 305 308 309 308 305 309 309 306 307 307 306 307 307 307 307 307 309 309 309 308 308 309 309 309 310 311 312 311 314 315 319
305 304 304 305 304 304 304 306 310 316 315 317 315 307 306 309 309 309 306 306 307 305 306 306 306 307 307 306 306 307 307 307 307 307 307 308 308 308 309 310 311 311 312 314 316
304 304 303 302 303 302 302 309 314 316 315 316 313 307 305 308 306 306 307 306 308 309 307 307 307 306 306 306 306 307 307 307 306 308 308 308 307 307 308 310 310 312 312 312 315
303 303 302 302 302 303 306 311 313 315 316 313 307 307 307 307 306 305 303 305 307 307 307 307 307 307 306 306 306 306 306 306 307 308 308 308 308 306 308 310 310 311 312 312 314
302 302 302 301 302 303 310 313 311 311 313 308 306 307 308 308 308 306 303 303 305 305 306 306 306 306 306 306 305 307 301 306 307 309 310 310 309 307 307 308 310 311 311 312 313
302 301 302 300 301 304 311 311 308 305 304 306 305 306 305 305 304 303 303 305 306 306 306 306 306 307 307 306 302 301 302 307 309 309 310 311 310 310 309 310 309 310 311 312 313
302 301 301 301 300 302 304 305 305 304 308 309 307 307 306 305 305 305 305 305 306 306 305 307 306 307 305 306 306 306 306 307 307 308 311 311 313 312 310 311 312 313 315 313 316
301 301 301 300 300 301 302 304 304 305 307 308 307 305 305 305 306 306 307 308 307 306 306 308 307 306 306 307 308 309 311 309 309 309 312 312 313 312 311 311 313 316 318 320 321
301 301 300 299 300 302 302 304 303 305 307 308 307 306 305 306 308 308 307 308 307 307 307 306 307 308 308 308 310 310 312 310 310 311 311 312 314 312 312 315 316 316 318 319 321
301 301 300 299 301 303 303 303 304 306 308 308 307 306 306 306 309 308 308 308 309 309 309 309 310 310 310 310 311 314 312 312 313 315 312 312 306 313 313 313 312 317 319 318 320
300 300 299 299 302 303 303 304 304 304 309 307 307 306 306 309 309 309 308 307 308 309 309 306 310 310 312 313 312 313 312 314 313 314 317 314 318 315 314 314 311 315 319 318 318
302 300 300 300 301 301 302 304 305 305 307 307 307 308 308 309 310 309 309 308 308 309 309 309 309 309 312 312 312 313 315 314 315 317 317 311 316 315 314 312 312 314 315 315 316
302 302 301 301 303 303 302 305 299 302 304 307 307 308 309 310 309 308 309 308 309 313 311 310 312 312 311 312 314 314 315 319 319 318 321 316 315 313 312 311 311 313 311 313 314
303 302 301 303 303 302 304 300 306 307 305 306 308 309 310 311 310 310 310 309 309 311 312 313 308 313 313 312 316 317 316 317 322 320 319 316 315 315 310 310 311 310 309 311 311
302 302 302 302 302 302 303 304 307 306 307 309 310 311 311 311 309 310 310 313 313 312 315 314 315 315 313 314 315 315 318 315 320 318 320 317 314 310 308 310 310 310 308 308 309
301 301 302 302 302 303 302 308 306 304 308 310 310 310 310 311 310 311 313 312 313 313 311 315 316 314 315 315 315 314 314 316 317 322 323 320 318 318 311 310 309 308 307 306 306
302 301 302 301 303 303 304 307 307 309 309 311 310 311 309 312 312 314 311 312 312 313 312 312 316 316 315 315 315 315 314 313 314 315 318 317 318 315 314 311 309 307 305 305 304
302 302 302 303 304 303 306 306 306 310 310 310 309 311 311 312 313 314 314 314 313 312 313 312 313 311 315 313 312 313 313 311 312 314 311 312 315 312 311 309 307 305 304 304 305
302 302 302 303 302 304 307 309 310 310 310 310 311 310 311 313 313 313 313 312 312 312 311 310 311 311 312 310 311 313 311 311 313 309 311 311 313 308 306 306 306 305 304 304 304
303 303 303 305 305 305 307 309 310 310 310 310 310 311 311 313 312 313 313 312 312 311 310 310 309 310 310 312 312 313 312 311 309 308 310 310 310 308 306 305 304 304 305 305 304
305 301 304 301 305 305 307 310 310 311 310 309 309 310 311 313 312 312 312 312 311 311 310 309 309 306 310 313 311 310 311 311 311 310 309 310 311 309 307 305 305 305 305 305 305
305 305 306 305 307 307 307 309 310 310 309 310 310 309 309 309 309 311 311 310 311 309 311 309 307 310 306 310 309 308 308 310 311 311 309 309 311 308 309 308 306 306 306 305 305
306 306 307 307 305 305 307 309 310 310 309 309 309 309 309 308 307 308 310 309 309 309 308 310 307 304 307 309 310 308 307 309 311 309 311 312 310 308 308 307 306 307 306 306 305

GFSSW_850_thetae_090.txt.gz
Theta_e
306 306 306 306 308 308 310 314 318 318 318 321 319 318 316 308 305 306 306 308 308 306 303 305 307 309 309 311 311 311 312 313 314 315 314 313 310 311 311 311 311 313 314 326 325
306 308 306 305 305 307 306 309 313 317 319 320 318 319 315 308 306 307 308 310 311 307 303 312 311 312 311 311 310 309 308 311 311 311 310 310 310 310 310 310 310 311 312 314 317
307 306 307 306 306 304 306 306 309 314 317 317 319 318 315 306 306 308 307 312 313 308 305 311 312 312 312 312 311 310 309 309 310 310 311 311 310 310 310 310 310 311 311 311 313
306 306 306 306 306 306 305 306 306 312 316 317 318 317 313 306 308 310 308 313 311 306 310 309 310 309 308 308 309 310 310 311 311 311 310 309 309 309 309 309 309 310 311 312 312
304 305 306 305 305 304 305 305 305 308 315 317 317 317 308 307 307 308 305 307 307 307 308 307 307 308 307 306 306 306 307 308 307 307 307 307 307 307 307 308 309 309 310 311 312
304 305 305 304 304 304 303 304 305 307 314 317 315 310 307 308 308 309 307 308 308 305 306 306 306 307 307 306 306 306 306 306 306 306 307 307 307 306 307 307 308 308 309 310 311
303 303 303 303 304 303 303 302 302 308 314 316 315 309 306 309 309 310 306 306 307 305 306 307 307 306 306 305 306 306 305 305 305 306 306 307 307 306 306 306 306 307 309 309 310
301 302 302 302 302 301 301 306 305 311 314 315 314 307 306 306 307 306 308 306 308 308 307 307 306 307 306 306 305 305 304 306 305 307 306 307 307 306 308 307 305 306 308 309 310
303 302 302 302 300 301 308 312 312 313 314 312 306 307 307 307 305 305 304 305 306 307 306 306 306 305 305 305 301 304 300 305 306 307 307 308 309 308 309 309 307 306 306 307 311
302 302 302 302 300 302 307 311 312 311 309 307 307 308 305 306 305 306 303 304 305 305 306 306 306 304 304 305 299 301 305 304 306 308 307 307 308 308 309 310 309 308 310 311 309
302 302 302 301 301 302 303 304 308 305 307 308 307 307 306 305 306 304 303 305 306 306 304 307 304 306 304 304 303 303 304 306 306 306 308 308 309 310 310 310 309 309 311 312 311
301 301 301 300 299 301 302 301 304 305 304 308 306 305 304 304 305 305 305 306 307 305 305 307 307 305 305 305 306 306 308 308 308 308 311 312 311 309 310 309 310 311 313 316 319
301 301 301 299 299 303 302 301 304 304 307 306 306 305 305 307 307 306 307 307 307 306 305 304 305 306 306 306 307 308 309 310 310 310 310 310 311 310 311 311 314 316 316 317 318
301 301 300 299 302 303 303 303 303 305 308 308 306 306 305 307 309 308 307 308 308 307 307 306 307 307 307 309 309 312 310 312 314 313 314 311 305 311 311 312 311 316 317 318 321
301 300 299 300 302 303 304 302 304 305 309 306 306 305 305 309 308 308 308 308 307 308 307 303 309 309 311 310 311 312 312 314 314 313 313 313 315 311 311 313 311 313 315 316 318
301 300 300 299 300 302 302 304 304 304 307 308 306 307 308 309 310 308 307 307 308 308 307 307 308 309 310 312 312 312 313 315 314 315 315 308 312 312 313 312 312 313 313 313 316
302 301 300 301 302 302 304 305 300 302 304 306 309 306 309 310 309 308 309 307 308 310 308 309 311 311 311 312 313 313 315 317 318 313 318 316 315 313 311 311 311 313 311 311 312
302 301 302 302 302 303 304 299 299 306 304 306 308 308 309 310 309 308 309 307 307 310 312 314 310 313 312 313 315 316 314 318 321 320 315 316 315 314 311 310 311 310 309 309 310
300 301 301 302 302 302 302 301 302 305 307 308 310 310 310 311 308 309 309 312 312 312 313 315 313 312 313 313 314 316 318 315 320 316 314 316 314 310 309 310 309 309 307 308 307
302 301 301 302 303 303 300 305 305 306 308 309 310 308 309 310 309 309 311 311 313 313 311 314 316 314 314 314 314 315 314 317 317 320 321 318 318 316 311 309 307 308 306 305 305
301 301 301 302 303 304 304 306 307 309 309 310 310 309 308 311 311 312 310 311 311 312 310 311 315 313 315 315 315 315 315 314 313 316 320 316 316 313 310 307 306 305 306 305 304
301 301 302 304 303 302 306 306 306 308 309 309 308 310 310 310 312 313 313 311 312 312 313 311 311 311 314 312 312 312 313 310 313 313 309 310 313 312 311 309 307 305 304 304 304
302 302 303 304 300 301 305 308 308 309 309 310 310 310 310 312 312 312 312 312 312 311 311 309 310 311 311 308 310 311 310 310 310 307 309 309 312 307 308 307 307 305 304 304 303
303 299 304 305 305 304 305 308 309 310 309 309 310 310 311 312 311 312 312 312 311 311 310 309 308 309 307 311 310 311 310 310 308 306 310 309 309 307 305 305 304 304 304 304 304
304 298 303 302 304 304 304 308 309 309 309 309 309 309 311 312 311 311 310 311 311 310 310 308 309 305 309 311 309 308 309 310 308 309 309 310 309 307 305 303 303 304 304 304 304
305 305 305 305 306 304 305 308 309 309 308 309 309 308 307 308 307 309 308 309 310 308 309 307 306 308 305 309 307 307 307 309 309 309 309 309 311 307 307 305 304 304 304 304 304
306 307 307 305 303 305 307 309 309 309 308 307 308 308 308 307 307 308 308 307 307 309 307 308 305 303 305 307 308 306 306 309 310 309 309 311 309 306 307 305 305 305 305 305 305

GFSSW_850_thetae_093.txt.gz
Theta_e
305 306 308 309 305 305 308 308 312 315 319 318 321 320 318 316 309 306 305 306 306 306 303 306 307 308 308 312 312 312 311 310 313 314 313 311 309 310 310 310 310 311 312 312 312
307 307 307 308 307 306 305 304 307 311 315 318 317 319 319 317 309 307 306 306 307 306 302 308 311 311 310 310 310 309 308 310 311 311 310 309 310 310 310 310 309 310 311 311 312
304 305 306 307 306 307 307 306 305 307 310 317 317 319 318 317 308 308 306 309 312 306 310 311 311 311 311 311 310 308 308 308 309 310 310 310 309 309 309 308 310 309 309 310 311
305 304 305 306 306 306 305 305 306 306 309 315 317 317 317 313 310 309 307 311 313 308 304 310 311 310 307 308 308 310 310 310 310 309 308 308 308 307 307 308 308 308 308 309 310
304 304 304 306 306 305 304 303 304 305 307 314 317 317 315 309 310 308 311 314 311 306 310 308 309 308 307 306 306 306 306 306 306 306 306 306 306 306 306 307 307 307 307 308 309
302 303 304 305 305 303 304 304 303 305 307 314 316 316 313 309 309 306 306 308 306 308 307 306 306 306 306 305 305 305 306 305 305 305 305 305 305 306 306 306 306 306 306 306 307
302 302 302 303 303 303 304 301 303 300 307 313 315 314 308 309 308 308 307 308 307 305 306 306 306 306 306 305 305 305 304 304 304 304 305 305 305 305 305 305 305 306 307 307 305
302 302 302 302 302 302 300 305 304 300 305 313 313 311 308 313 311 308 307 307 307 306 306 306 306 306 306 305 304 304 303 304 304 306 306 304 304 304 306 306 307 308 308 308 307
302 303 302 303 302 301 301 308 310 303 308 313 312 309 306 311 310 307 307 307 307 307 307 306 306 305 305 302 298 301 301 304 305 305 306 306 307 306 307 307 307 308 309 308 306
301 302 303 302 302 301 301 306 311 312 311 308 307 309 305 307 307 306 306 305 306 306 306 306 305 302 302 300 296 298 299 304 304 306 305 305 305 306 307 308 309 310 310 310 309
302 302 302 302 301 300 300 302 307 306 306 306 306 307 306 305 305 304 303 304 305 305 303 306 302 301 302 302 302 300 301 304 305 305 306 307 307 307 308 309 308 309 309 309 311
302 301 301 300 299 301 301 300 302 304 306 306 306 304 304 305 305 303 303 305 305 305 304 303 302 303 303 304 304 305 305 306 306 307 310 310 310 309 308 308 310 310 312 313 316
302 301 301 299 301 302 300 300 301 305 304 304 305 304 305 304 305 305 305 306 306 305 304 303 303 306 305 305 306 305 307 307 307 309 310 311 311 308 310 311 313 315 315 316 318
301 301 300 299 303 303 302 301 303 306 307 305 305 305 306 308 308 306 306 307 306 306 305 305 304 306 306 307 307 310 309 309 310 314 310 310 305 307 310 312 309 313 315 315 316
300 300 299 301 303 303 302 302 304 305 307 305 306 305 306 309 308 308 307 308 307 308 308 304 307 308 309 309 309 311 311 312 314 315 313 311 308 307 309 310 310 313 313 314 316
301 299 299 301 302 302 303 304 304 303 308 308 305 307 309 309 309 308 307 307 308 307 307 306 307 308 308 310 311 311 312 313 314 315 315 307 306 305 312 311 311 312 311 311 313
301 299 301 301 302 303 304 304 300 301 304 309 308 307 309 309 308 307 308 306 307 310 305 309 310 309 309 312 312 312 313 310 313 315 313 314 311 309 311 311 312 312 310 309 309
302 302 301 302 302 304 303 300 305 307 305 306 306 307 308 309 308 308 307 308 306 309 311 314 306 313 312 313 315 314 315 317 319 317 314 316 317 313 309 310 311 309 308 308 308
301 302 302 302 302 302 302 303 302 306 306 307 309 308 309 310 308 308 309 311 311 309 314 314 312 311 312 312 313 317 318 315 318 316 312 314 315 311 310 310 309 308 306 305 306
301 301 302 303 303 303 301 306 305 306 307 308 308 307 309 309 308 309 309 310 313 312 311 314 315 312 313 313 314 315 315 318 317 321 319 317 318 317 311 309 306 305 304 305 306
301 302 304 304 304 305 305 307 307 308 309 310 309 308 308 309 310 311 310 310 310 312 310 311 314 312 314 315 314 315 315 315 314 317 320 317 315 314 310 306 305 306 304 305 305
302 298 305 306 303 304 307 307 307 308 309 309 308 308 309 310 311 312 311 310 311 311 312 310 310 310 313 311 310 312 313 310 311 312 309 311 315 312 310 307 307 306 305 305 305
303 303 306 306 300 304 305 307 307 308 308 309 309 309 310 311 312 311 311 311 311 310 311 309 308 309 308 307 309 311 309 309 308 306 309 310 312 309 308 308 306 305 305 305 303
304 299 306 307 304 304 304 307 308 309 308 308 309 309 310 311 309 312 312 311 311 310 310 308 306 308 306 310 310 310 308 308 306 305 309 308 310 307 306 308 306 304 303 303 303
304 299 303 302 304 303 304 307 308 308 308 308 308 307 309 310 309 308 308 308 310 309 309 306 308 304 308 308 309 307 307 308 307 308 308 309 310 307 304 303 304 304 304 304 304
306 305 305 304 304 304 305 307 308 308 307 309 308 307 306 308 307 309 307 308 309 307 308 305 305 308 304 307 306 308 305 308 309 309 309 309 310 307 306 304 303 304 304 304 304
306 307 307 304 302 305 306 307 308 308 307 307 307 307 307 307 307 307 307 307 305 307 306 307 304 303 304 305 306 305 306 308 309 309 309 310 309 305 305 303 304 304 304 305 305

GFSSW_850_thetae_096.txt.gz
Theta_e
307 304 308 309 308 308 307 306 306 308 312 318 319 320 319 318 316 311 306 305 306 307 304 305 306 308 313 314 313 313 308 309 311 312 312 310 308 309 310 310 309 310 311 311 311
307 306 305 306 308 308 308 307 306 304 308 311 317 318 320 319 315 315 308 306 306 305 303 306 308 307 308 310 310 309 305 307 309 310 310 309 309 309 309 309 308 308 309 310 311
306 306 306 306 305 307 307 307 306 306 305 308 312 317 318 318 314 312 310 307 313 303 306 309 310 310 310 309 309 307 307 307 309 309 308 309 308 309 308 307 308 309 309 309 309
304 305 305 303 304 307 307 307 305 305 305 306 310 315 317 316 313 310 307 314 313 304 311 311 311 310 307 307 307 309 309 308 308 306 306 306 307 306 307 307 307 307 307 307 307
303 303 304 303 304 306 307 306 305 305 302 307 311 315 316 313 310 307 308 315 311 307 308 309 310 308 305 305 305 305 305 306 306 305 305 306 305 305 305 306 305 306 306 306 306
302 303 303 303 304 305 306 304 305 305 304 305 311 313 315 312 311 313 310 313 308 307 308 308 307 306 305 304 304 304 305 304 304 304 304 304 304 304 304 304 304 304 304 304 305
303 302 301 302 303 303 303 304 303 301 304 302 311 314 311 310 310 311 309 308 307 307 306 305 306 305 305 304 305 304 303 302 303 303 304 303 302 304 303 304 304 306 307 307 308
303 303 302 302 303 302 302 301 302 301 301 300 311 312 309 311 311 309 310 307 305 305 304 306 306 306 305 305 302 303 302 302 302 304 305 304 303 303 307 307 307 307 307 307 309
303 301 302 303 303 303 302 301 310 307 301 303 311 311 310 310 311 309 307 307 306 306 306 306 306 305 304 301 296 299 298 303 304 304 305 305 305 305 307 306 305 306 307 309 309
303 301 302 303 302 302 300 301 307 308 306 310 308 309 308 310 308 307 307 307 306 306 305 305 305 302 301 299 296 299 298 302 303 304 304 304 305 305 305 306 306 307 308 309 310
303 301 302 301 302 300 300 302 304 307 307 306 307 307 307 307 308 307 305 305 305 305 303 305 301 299 301 301 298 298 301 302 304 304 306 305 306 306 307 307 307 308 307 310 311
303 301 301 300 299 302 300 301 300 303 304 304 305 305 306 305 304 303 304 305 305 304 304 301 303 303 303 303 303 304 305 306 305 306 309 309 310 309 307 307 309 312 313 314 315
302 301 300 299 302 301 300 300 301 305 302 302 304 305 305 305 304 304 304 305 304 304 303 302 303 304 305 304 305 306 306 306 308 308 309 309 308 305 309 310 311 313 314 315 315
301 301 299 302 302 301 302 301 302 306 305 304 305 304 305 305 307 305 306 306 305 305 304 304 304 305 306 307 307 308 307 308 309 313 313 309 309 305 308 310 308 311 312 314 314
300 299 302 303 303 302 303 303 305 305 307 304 305 305 308 308 307 307 307 307 306 308 306 302 306 307 308 308 308 309 310 310 311 313 314 311 311 305 308 309 309 310 311 311 313
299 299 300 302 302 302 303 304 304 304 307 307 306 307 308 309 308 307 307 307 307 307 306 305 307 307 308 308 309 310 311 312 313 315 314 308 311 303 311 311 311 311 310 310 310
300 301 301 302 303 304 304 303 302 304 304 308 307 308 308 308 307 307 307 306 306 308 300 308 309 309 308 311 311 312 314 313 308 310 309 313 311 306 310 309 311 311 309 308 308
301 302 302 303 303 304 303 299 304 307 307 306 306 307 308 308 307 307 307 306 305 308 309 310 305 311 311 312 315 315 315 314 311 317 316 315 317 312 310 310 310 309 307 307 307
301 302 302 303 303 303 302 304 301 304 306 306 308 307 308 308 307 307 309 310 310 309 313 313 312 310 311 312 313 316 317 315 317 318 316 312 315 312 310 308 307 306 305 306 306
301 303 304 305 305 304 303 307 306 306 307 308 308 307 309 309 307 307 307 309 312 310 310 313 315 311 313 312 313 315 314 319 317 318 320 317 316 318 311 309 305 304 302 305 305
302 304 306 306 307 306 306 307 308 309 308 309 308 307 307 309 308 309 309 308 310 312 310 311 313 311 313 314 314 314 314 315 315 317 319 317 317 314 311 308 307 304 304 305 304
305 300 307 308 304 304 306 307 307 308 308 308 308 308 309 309 311 312 311 309 310 311 312 310 310 310 311 310 309 311 312 310 310 311 309 310 314 311 309 307 306 305 305 305 305
304 306 308 309 302 302 304 307 307 308 307 308 309 309 309 310 312 310 310 310 311 309 310 309 308 306 307 306 308 310 309 308 307 305 309 308 310 308 308 308 306 306 306 305 303
305 300 307 307 304 303 304 306 308 308 308 307 307 308 310 310 309 311 311 310 310 310 310 308 306 308 307 309 309 309 306 306 306 304 308 307 310 309 308 308 306 305 304 303 303
306 301 303 300 304 302 304 306 308 308 307 308 307 306 307 310 308 308 307 307 309 308 309 306 306 304 305 305 307 307 306 307 307 307 306 308 308 308 305 304 305 305 303 303 303
307 306 305 303 303 303 304 306 307 307 307 308 308 307 305 307 307 308 307 306 308 306 308 304 305 307 303 307 306 307 306 307 308 308 308 308 309 306 306 305 304 304 303 303 304
307 307 306 303 302 304 304 306 306 306 307 307 306 306 307 307 306 307 307 306 304 305 305 305 304 302 305 303 304 305 305 308 308 307 308 309 307 305 304 302 304 304 304 304 304

GFSSW_850_thetae_099.txt.gz
Theta_e
307 308 307 307 308 309 309 308 307 305 305 310 315 318 318 319 317 315 309 306 306 308 304 304 306 308 313 313 313 313 309 309 310 312 311 309 309 309 309 309 309 310 310 311 310
305 306 308 307 306 306 308 309 308 307 305 304 311 316 317 319 318 315 310 306 307 306 304 305 306 308 310 311 311 308 305 306 309 310 310 308 309 309 309 308 307 307 306 307 308
306 305 305 305 305 303 306 308 308 308 306 305 307 311 317 318 314 312 311 306 311 304 304 307 306 306 308 309 308 307 308 307 308 308 306 308 308 308 308 308 307 307 308 307 307
304 303 304 305 305 305 305 307 308 308 306 306 308 310 316 317 315 310 307 314 311 304 308 309 309 309 307 307 307 308 308 307 308 307 305 306 306 306 306 306 305 305 306 306 306
304 304 303 304 304 303 306 307 307 306 306 303 308 311 314 314 311 308 313 315 307 308 310 310 309 307 306 304 305 305 305 305 305 305 305 305 305 305 305 304 304 304 305 304 304
302 302 302 301 302 304 304 305 306 307 306 304 309 313 314 313 312 312 315 315 308 305 308 309 308 306 305 304 303 304 304 304 303 303 303 303 303 303 304 303 303 303 304 305 306
304 304 303 302 302 303 303 302 303 303 304 306 307 311 312 311 312 315 315 312 306 307 307 306 306 304 304 303 304 303 303 303 302 303 304 303 303 303 303 305 305 306 307 307 307
305 303 301 303 303 302 302 302 301 302 301 302 307 312 310 311 311 309 312 306 306 306 305 305 305 304 304 304 301 302 301 303 302 303 304 304 307 303 304 306 307 307 306 308 308
305 303 302 302 303 303 302 300 302 305 302 302 308 310 310 309 310 311 307 306 305 305 305 305 304 304 303 302 299 300 302 304 304 304 305 306 307 305 306 306 305 305 306 308 309
303 301 302 303 302 301 300 301 308 307 307 304 308 308 308 310 308 308 306 305 306 305 304 304 304 303 302 301 302 302 302 303 304 304 304 305 306 306 306 306 306 306 307 309 311
302 302 301 301 300 301 301 303 304 305 306 307 307 306 309 307 306 307 307 305 305 304 305 304 304 302 301 301 298 298 302 303 303 304 305 306 307 308 308 307 307 309 311 313 315
301 301 300 299 302 301 302 302 302 302 302 305 306 307 306 306 305 305 305 305 305 305 304 302 304 303 302 302 303 304 304 305 305 305 308 309 309 308 308 309 311 312 313 314 314
301 300 299 302 301 302 302 303 303 303 301 300 303 305 305 304 304 304 305 305 304 304 303 302 304 303 304 304 305 305 306 305 307 308 309 309 309 306 308 309 309 310 311 313 314
299 299 301 302 302 303 303 303 304 305 305 302 304 304 305 305 306 305 306 306 305 304 303 304 303 305 305 305 306 307 306 307 309 311 314 310 316 308 307 309 308 310 310 311 313
301 302 303 302 303 304 304 304 305 305 306 304 305 305 307 307 305 306 307 307 306 306 303 303 305 307 308 307 307 308 308 310 311 313 313 313 313 309 308 310 310 311 310 309 309
300 300 302 302 303 304 305 304 303 303 306 305 306 308 308 308 307 307 307 306 307 306 306 305 305 306 307 307 308 308 310 312 312 314 316 308 311 310 311 311 310 311 310 308 308
302 302 303 303 304 304 303 303 304 304 304 306 309 308 307 307 306 306 306 305 306 301 299 305 308 308 308 310 311 311 313 310 308 314 312 311 311 311 310 309 310 311 308 307 307
301 303 303 303 303 302 302 300 306 307 306 306 307 307 308 306 306 306 306 306 305 307 308 306 306 309 309 311 315 314 315 314 313 314 315 313 314 315 310 310 309 307 307 306 306
302 303 304 305 304 303 303 304 303 303 306 307 307 306 308 307 306 306 307 309 309 307 310 309 306 309 310 312 313 316 315 314 316 315 318 315 315 313 310 309 305 303 304 305 305
305 306 306 306 306 305 303 307 306 305 306 307 307 306 307 308 306 307 307 308 312 308 309 312 315 310 312 311 312 314 313 317 317 317 319 316 316 317 311 309 305 303 302 303 301
307 306 308 308 308 306 305 306 308 308 308 308 307 306 306 308 306 308 309 308 309 311 310 311 313 309 312 314 313 314 313 313 314 316 318 317 316 313 309 307 306 304 304 303 302
308 302 309 309 305 302 306 307 307 307 308 308 307 307 308 308 309 311 311 309 309 311 311 309 310 310 310 309 308 310 310 309 311 311 310 311 314 310 309 308 305 306 305 304 305
306 307 308 310 303 297 303 306 307 306 306 307 308 308 308 309 311 310 310 309 310 309 310 308 308 307 306 305 307 309 308 307 306 305 309 310 312 308 308 307 306 306 306 304 303
307 301 308 307 303 303 304 305 307 307 307 306 306 307 309 308 308 310 309 309 310 310 310 308 305 307 306 307 308 309 307 306 305 306 308 307 310 309 310 309 307 306 306 305 303
307 302 303 301 303 301 303 305 307 307 307 307 306 305 307 309 308 307 307 306 308 307 308 305 306 303 305 304 306 307 307 306 304 305 306 307 308 309 307 307 307 306 304 303 303
307 306 304 303 302 303 303 304 306 306 306 307 307 306 306 307 307 308 307 306 307 304 306 303 306 307 304 305 305 306 305 304 307 307 307 307 307 304 306 306 306 307 304 304 304
307 306 305 302 302 303 304 306 306 305 307 306 306 305 307 307 306 307 306 306 305 305 304 304 303 302 305 302 303 305 303 305 307 306 306 309 307 304 304 303 304 306 305 305 305

GFSSW_850_thetae_102.txt.gz
Theta_e
307 306 306 308 308 305 308 309 308 308 305 305 310 313 319 319 319 317 312 308 306 306 304 304 306 313 313 313 313 310 310 313 313 313 314 312 313 311 310 311 311 311 311 312 310
307 306 305 307 308 307 305 307 309 308 307 305 306 311 316 318 318 316 311 306 307 307 304 308 309 312 312 312 312 311 311 311 312 313 313 312 312 311 310 310 310 309 309 308 309
305 304 305 306 305 306 306 306 308 309 308 307 306 308 313 317 318 314 311 309 312 305 304 305 307 309 310 311 311 311 311 310 311 311 310 310 309 309 309 310 309 309 308 307 308
305 304 303 303 305 305 305 304 306 308 308 306 306 309 312 317 317 311 309 315 311 304 304 308 308 309 309 310 309 310 309 310 310 309 309 309 307 307 307 307 307 306 306 306 306
304 304 304 304 303 303 303 305 307 307 308 307 305 310 314 314 313 308 313 316 306 308 309 309 309 309 310 309 308 309 309 308 308 307 306 306 306 306 306 306 305 305 305 306 306
305 304 304 303 301 302 304 305 305 306 308 306 306 310 313 312 312 312 316 314 306 309 309 309 309 308 307 307 307 307 307 306 305 305 304 304 305 304 306 305 305 306 306 307 307
305 304 304 303 302 301 304 304 303 305 306 307 308 311 311 313 313 314 316 311 306 306 308 307 306 306 306 307 305 305 306 306 305 305 306 306 308 306 306 306 307 308 308 309 308
305 305 303 302 303 302 302 302 302 302 302 306 307 310 311 313 314 314 312 306 307 307 305 305 304 304 306 305 304 306 306 309 305 307 306 308 312 309 306 309 309 309 309 309 309
305 305 302 303 303 303 303 301 300 302 303 302 306 310 311 311 311 310 306 306 305 305 304 304 303 306 305 307 308 307 311 308 309 307 308 309 312 311 310 309 310 310 310 309 310
302 302 302 303 302 301 300 305 308 305 306 303 307 307 309 308 307 307 306 305 305 305 304 304 306 307 306 307 314 309 310 308 309 308 308 310 311 312 311 311 312 312 313 314 315
302 301 301 301 300 300 302 306 305 305 306 303 304 308 307 306 306 306 306 305 305 306 308 306 308 308 306 305 305 306 308 308 308 308 308 312 313 313 312 312 313 312 313 314 315
301 300 301 301 302 301 303 303 303 304 302 306 305 306 306 306 306 306 305 306 306 307 306 307 308 305 305 305 307 308 309 311 310 308 310 313 314 314 312 313 312 313 312 314 316
299 301 302 302 303 302 303 303 303 304 301 301 302 303 305 305 305 306 306 305 306 306 305 308 307 305 306 307 309 310 310 310 311 311 313 313 316 312 311 312 311 312 312 311 313
302 302 302 302 303 303 303 303 304 305 307 303 303 303 304 305 305 305 306 306 306 306 307 308 305 306 307 309 309 312 309 310 311 313 316 312 318 315 311 312 312 312 311 311 310
300 302 303 303 304 304 304 304 305 305 309 305 305 304 305 306 304 307 307 307 308 307 308 309 308 309 310 309 309 312 309 311 312 313 314 314 315 316 311 313 313 311 311 310 309
302 301 304 305 305 305 304 304 303 311 309 307 306 307 308 307 307 307 307 307 307 308 308 308 306 308 310 309 309 310 311 313 314 313 317 315 315 317 314 313 312 311 310 309 307
302 303 303 303 304 303 303 303 312 311 305 309 310 308 307 308 308 307 308 308 310 313 312 309 310 309 309 312 312 311 312 318 318 316 320 313 313 316 312 312 311 310 308 307 306
303 304 304 304 303 303 302 307 309 307 308 307 308 308 308 308 308 308 309 311 308 310 311 315 317 311 311 313 314 313 315 318 320 320 319 313 317 318 311 309 307 306 306 306 305
304 305 305 305 304 303 305 309 308 308 308 309 308 310 309 309 309 310 311 312 311 310 313 315 317 311 311 313 313 315 318 314 317 315 318 319 317 313 311 309 306 304 304 303 303
306 306 306 306 305 305 310 307 308 307 307 308 309 309 310 310 310 310 311 310 312 310 311 312 317 312 314 313 314 314 314 317 317 320 320 320 319 319 312 309 307 305 304 302 303
308 309 308 308 308 308 311 310 309 308 308 309 309 309 309 310 310 312 311 310 311 312 311 313 314 314 313 316 316 316 315 314 314 315 320 319 320 314 311 308 307 305 303 303 303
308 312 309 309 311 307 310 309 308 308 308 309 309 310 311 311 312 313 313 312 311 313 314 312 312 314 315 311 311 313 313 311 315 316 315 315 317 312 310 308 306 306 304 303 304
308 308 309 310 314 311 307 309 308 309 308 310 311 311 310 312 313 312 312 310 311 312 313 312 313 315 311 310 310 312 311 310 310 311 315 316 317 312 310 307 307 306 306 307 305
307 313 308 307 303 308 310 310 310 307 308 307 309 309 311 311 311 312 312 311 310 311 310 310 311 313 314 312 312 313 311 309 311 315 314 314 314 313 312 310 308 308 308 307 306
307 307 304 312 309 307 308 308 310 311 309 308 309 309 310 312 310 310 309 309 310 309 310 310 313 310 310 310 310 311 311 310 310 311 313 312 313 315 314 312 310 310 309 306 305
307 307 304 305 303 308 308 309 309 309 309 310 310 308 309 310 310 310 309 308 309 307 309 307 313 309 310 309 309 310 310 310 310 310 311 310 311 311 313 312 311 310 308 305 305
306 306 306 304 307 308 308 307 308 307 307 307 307 308 309 309 308 308 307 307 307 308 308 309 310 311 313 306 307 310 309 309 310 310 311 312 312 310 310 310 310 310 309 307 305

GFSSW_850_thetae_105.txt.gz
Theta_e
310 309 307 306 307 308 306 308 310 309 308 305 308 311 316 319 319 319 314 312 311 306 306 309 312 313 315 316 316 313 314 316 316 315 316 313 314 313 313 312 313 313 313 313 312
306 307 307 306 306 308 307 305 307 310 308 308 305 309 313 318 319 319 314 308 307 306 310 309 312 313 313 314 313 312 313 315 314 315 315 314 313 312 311 312 312 312 311 311 310
305 305 305 306 306 306 306 305 305 309 309 308 308 305 311 316 318 317 315 306 311 307 310 309 311 311 312 312 312 312 315 312 313 313 312 311 311 311 311 312 312 311 310 309 309
304 304 304 304 304 305 305 305 305 307 309 308 308 308 313 317 319 316 312 315 308 309 310 309 310 309 312 313 311 313 311 311 312 311 310 310 309 309 309 309 309 308 308 308 308
305 304 304 304 304 303 303 304 305 307 308 308 308 308 312 316 313 311 315 316 306 309 310 309 309 310 311 311 310 311 311 310 310 309 308 307 308 308 308 308 308 307 307 307 308
305 304 303 302 301 301 303 305 306 307 307 308 305 308 313 314 310 310 317 315 308 310 310 310 310 310 310 310 311 310 309 308 307 307 307 307 307 307 309 307 308 309 309 309 310
306 305 304 304 303 301 303 304 303 305 306 308 307 309 311 313 314 315 316 309 309 309 309 309 309 309 309 309 307 307 309 309 308 307 308 307 311 310 309 308 310 311 311 311 311
306 305 304 302 302 302 303 303 303 303 305 307 307 309 312 312 314 314 311 308 307 308 308 307 307 307 308 307 307 309 308 312 308 308 309 309 313 312 309 311 312 312 312 312 312
305 305 303 302 303 303 303 302 302 303 306 305 307 310 311 311 312 311 308 307 307 306 305 306 307 307 307 310 312 309 318 312 311 309 310 311 314 314 313 313 313 314 314 314 315
303 303 302 303 303 303 301 301 304 303 306 306 308 308 309 306 307 307 307 307 307 306 305 306 307 309 309 310 319 315 313 311 312 312 311 312 313 314 314 314 313 315 314 315 315
301 301 301 301 300 300 305 306 306 305 306 307 304 307 307 305 307 307 307 306 306 306 309 308 311 312 310 308 308 309 310 312 312 311 312 315 315 315 315 314 315 314 314 314 314
301 301 301 302 301 303 305 305 305 304 303 302 306 305 305 306 307 306 306 306 307 309 307 309 311 307 306 307 309 310 312 315 313 311 312 315 316 316 315 314 314 314 314 313 312
302 302 302 303 301 303 304 304 304 304 302 301 303 304 306 307 307 306 307 307 308 308 308 311 308 307 308 309 311 312 313 313 314 314 315 316 318 316 313 314 314 313 313 313 312
303 304 302 303 303 303 304 304 304 305 309 303 304 304 306 306 306 308 308 307 308 308 310 309 307 308 308 310 311 314 311 312 313 314 319 315 321 317 315 314 314 313 312 312 310
304 304 303 304 304 304 304 305 305 305 311 305 306 304 305 307 306 308 307 309 309 308 311 311 309 310 311 312 310 314 311 313 314 313 313 316 316 319 314 314 314 313 312 311 309
303 305 304 304 305 304 305 305 304 311 311 308 307 308 308 307 307 308 308 309 309 310 310 310 308 310 312 311 311 311 313 314 313 313 318 317 318 318 317 315 314 312 310 309 307
304 304 304 305 306 305 305 305 312 312 306 310 310 309 308 308 308 309 310 311 313 315 313 312 312 311 310 313 312 312 314 321 321 320 322 316 316 316 315 312 311 309 308 307 306
304 305 304 304 303 303 303 309 312 309 309 309 308 308 309 309 309 310 311 313 311 313 314 317 318 313 312 314 315 314 315 320 321 322 321 315 317 320 313 311 308 307 305 306 305
306 306 305 304 304 304 307 312 311 309 309 309 310 310 311 310 311 312 313 313 313 312 314 316 317 312 313 314 315 315 318 315 318 316 317 319 319 317 312 310 307 305 305 304 303
307 308 307 307 307 307 311 310 310 308 309 309 311 311 312 311 313 313 313 313 313 312 312 315 318 315 315 314 315 315 314 318 318 320 322 323 321 322 316 313 309 306 305 303 304
309 311 308 309 311 310 313 312 310 309 310 311 311 311 312 312 313 314 313 312 313 313 313 314 316 316 315 317 317 316 315 315 314 316 320 321 324 316 314 311 309 307 305 304 303
311 314 309 311 314 312 313 311 309 310 310 311 312 312 313 313 315 315 315 314 313 314 315 314 315 317 316 315 314 315 315 313 316 319 317 317 319 314 312 310 308 307 306 304 305
311 312 310 312 317 315 311 311 310 311 311 312 313 313 313 314 314 314 313 312 312 313 314 313 316 318 315 313 312 314 314 313 312 313 316 318 318 314 312 310 308 307 307 306 307
312 316 313 310 309 313 313 313 312 310 310 310 312 312 313 313 313 313 313 312 312 313 310 311 314 314 317 314 313 313 313 311 312 317 316 315 314 316 314 312 309 308 308 309 309
310 311 309 315 311 312 312 312 313 313 311 310 311 312 312 313 312 312 312 311 312 311 311 312 314 313 312 311 311 311 312 313 312 313 313 314 313 313 315 314 311 310 310 309 309
311 311 308 309 308 311 310 312 312 311 312 312 311 310 311 312 311 312 311 310 311 310 311 311 314 312 312 311 310 311 311 311 312 312 312 312 312 313 312 314 312 311 311 311 309
306 306 308 308 310 311 311 310 311 310 310 309 310 311 311 310 309 310 310 310 310 310 310 310 312 312 313 310 310 310 310 310 311 311 311 312 313 312 312 314 313 312 312 311 309

GFSSW_850_thetae_108.txt.gz
Theta_e
308 309 307 309 308 307 307 307 309 310 308 306 305 313 317 319 319 319 316 313 311 306 307 310 313 315 318 318 317 314 315 316 316 315 315 314 315 313 313 312 313 313 313 313 311
305 306 307 308 308 306 308 307 306 310 309 308 308 306 313 315 319 319 317 313 310 305 310 311 313 313 313 315 314 313 313 315 314 314 314 314 313 312 311 312 312 312 312 311 310
304 305 305 305 305 306 308 307 305 307 309 309 308 309 311 316 315 318 317 311 307 309 310 310 313 313 313 313 312 312 315 314 313 313 311 312 311 311 311 311 312 310 310 309 309
305 304 305 304 305 306 306 306 305 306 309 309 308 309 309 316 317 317 315 308 307 310 310 310 311 311 313 313 312 312 312 312 312 311 310 310 309 309 309 309 309 309 308 308 308
305 304 304 305 304 304 304 304 305 306 307 307 309 309 313 315 314 312 317 314 306 310 310 310 310 310 313 312 311 311 312 311 310 309 308 307 307 307 308 308 308 308 308 308 309
305 304 303 302 302 301 303 304 306 307 308 308 308 309 310 315 312 313 318 314 309 310 310 310 310 311 311 311 311 311 311 310 308 308 307 307 307 307 309 308 309 311 312 311 311
305 304 304 304 303 301 304 304 305 306 307 308 306 309 311 313 311 315 316 310 310 310 311 310 310 310 310 310 309 308 309 309 309 308 309 308 310 309 309 309 309 312 312 312 312
305 305 303 302 302 302 304 303 303 304 306 307 307 309 312 311 311 313 309 309 309 309 309 308 308 309 310 308 308 309 308 311 308 309 309 310 310 311 309 311 313 313 314 314 315
305 304 302 303 304 302 302 302 302 305 307 305 309 309 310 312 312 309 309 308 307 307 306 306 308 307 307 310 312 309 317 313 311 309 310 311 312 313 313 313 314 314 315 315 315
302 302 303 303 303 303 303 301 301 306 307 306 308 309 309 310 309 309 307 308 307 305 304 305 308 308 308 311 317 314 312 311 310 312 310 311 311 311 313 314 314 314 314 314 315
301 300 300 301 301 305 306 304 305 305 304 306 305 307 307 307 308 307 308 307 306 306 309 308 311 312 309 308 309 309 310 312 312 312 311 312 313 313 314 315 314 315 314 314 313
302 302 303 302 301 306 305 305 305 304 303 304 306 306 307 307 307 307 306 307 307 310 307 310 312 308 307 308 309 310 312 314 313 312 312 312 314 314 314 314 314 314 314 313 313
303 303 303 303 302 305 305 304 304 304 303 302 303 304 306 308 307 307 307 307 309 309 309 312 308 307 309 309 311 311 312 313 313 314 314 314 315 314 313 315 314 313 313 312 311
304 303 303 301 303 304 304 304 305 306 308 303 304 304 306 307 308 308 308 308 308 309 310 309 307 308 309 311 311 314 311 312 314 313 313 312 312 316 313 314 313 313 312 311 309
304 303 303 303 303 304 304 305 306 305 310 305 306 305 306 308 306 307 308 310 308 309 311 310 308 309 311 312 311 314 312 313 314 313 313 315 311 314 313 313 313 312 311 310 308
304 304 304 305 304 304 305 305 305 310 311 307 307 308 308 308 308 308 309 309 309 311 310 310 309 310 312 311 311 311 313 314 313 313 315 315 314 314 315 315 313 312 309 308 307
304 305 305 306 305 305 305 304 310 311 306 310 311 309 308 308 309 309 310 311 313 312 311 312 312 311 311 313 312 312 313 317 317 317 313 316 314 313 314 312 311 309 308 307 307
305 305 305 306 305 306 303 308 311 310 309 309 309 309 310 310 310 310 311 311 311 313 313 314 312 313 312 314 315 314 314 317 315 321 319 315 313 314 312 310 309 307 306 306 305
307 307 305 304 304 304 307 311 311 310 309 309 310 311 311 310 311 312 312 313 312 312 314 315 314 313 313 313 314 314 317 315 314 315 313 313 316 314 312 311 308 306 305 305 304
309 309 309 309 308 309 311 310 310 309 309 310 311 311 312 312 313 313 313 313 313 312 313 314 316 314 314 314 314 315 314 317 316 319 320 318 320 319 314 312 310 307 306 304 304
311 312 310 312 311 311 313 311 310 310 311 311 311 312 312 313 313 313 313 313 313 313 313 314 316 315 315 316 316 315 315 314 314 316 318 318 318 316 313 311 309 307 306 304 304
312 313 310 313 315 313 313 312 310 311 311 312 313 313 313 314 314 315 315 314 314 314 314 313 314 314 316 315 313 314 315 313 312 318 314 314 313 314 311 309 308 307 306 305 305
312 313 312 314 317 314 312 311 311 312 312 313 314 313 313 314 314 314 313 312 313 313 313 312 314 312 314 312 312 312 313 313 311 311 311 313 314 312 310 309 308 308 307 306 306
313 311 314 312 311 313 314 313 313 311 311 311 312 313 313 313 313 313 313 313 312 313 310 311 313 312 312 313 312 313 312 312 310 310 313 313 313 313 311 309 308 308 307 307 307
312 311 310 317 312 312 313 313 313 313 311 311 312 312 312 312 312 312 312 311 312 312 311 311 312 311 311 311 310 310 310 311 310 310 311 311 310 309 312 310 309 309 308 308 308
312 311 309 310 309 311 311 312 313 312 311 311 311 310 311 312 311 312 311 310 311 310 310 310 310 311 305 309 310 309 309 310 310 311 310 310 310 309 310 313 311 310 309 309 310
307 308 309 308 311 311 310 311 311 311 310 310 310 310 311 310 309 309 309 310 310 309 309 309 309 308 309 311 309 307 308 308 309 309 310 311 310 309 311 311 312 311 311 311 310

GFSSW_850_thetae_111.txt.gz
Theta_e
306 307 311 310 309 309 308 308 307 310 309 306 309 317 317 319 319 318 316 314 311 306 307 310 315 317 318 319 318 312 310 312 313 315 313 313 313 313 312 312 312 312 312 311 310
306 305 307 307 307 308 307 308 307 310 310 309 306 310 317 318 318 318 317 314 312 307 309 312 315 314 315 316 313 310 309 313 311 311 312 312 311 311 311 311 311 311 311 310 310
306 305 305 305 305 306 307 308 306 308 309 309 309 309 311 315 316 317 318 316 309 310 311 312 312 313 313 313 312 311 311 311 313 311 310 310 310 309 310 309 309 308 309 309 310
306 304 304 304 304 306 307 307 306 306 308 309 309 309 311 315 313 315 316 310 307 310 309 312 312 312 311 311 311 310 311 311 311 310 309 309 308 307 308 309 309 308 308 308 308
305 303 304 304 304 304 305 305 305 305 308 308 309 310 313 313 313 316 315 314 308 309 310 311 310 311 310 310 310 310 310 310 310 308 308 307 306 306 307 307 307 308 311 311 311
305 303 303 302 301 302 303 305 305 306 306 307 308 310 313 314 313 314 318 309 309 310 310 310 310 311 311 310 309 311 310 309 307 307 307 307 306 307 308 308 308 310 312 312 312
305 304 304 303 301 304 304 305 307 307 308 308 307 309 312 313 313 314 312 310 311 311 310 310 310 310 310 308 308 307 308 307 307 307 307 307 307 307 307 308 310 312 313 313 315
305 303 302 302 301 303 304 303 303 305 307 306 307 309 311 312 314 315 309 310 310 310 310 309 309 309 309 307 307 308 306 307 307 307 308 308 304 310 309 310 312 313 314 315 316
303 303 303 303 302 302 303 302 305 306 306 308 309 309 310 311 312 309 309 309 309 309 309 308 309 307 307 306 304 306 309 309 308 308 309 309 308 309 309 311 312 313 314 314 315
301 302 302 303 302 303 302 302 306 306 307 308 307 308 309 310 309 308 307 307 306 305 304 305 307 305 305 307 304 308 307 310 309 309 309 309 308 308 310 312 313 313 314 314 314
302 301 301 301 304 303 301 305 305 306 304 306 307 307 308 307 308 308 307 306 305 306 305 308 306 305 306 307 307 308 309 310 311 310 310 309 310 310 311 313 312 313 313 313 313
303 303 301 303 305 304 304 305 304 305 303 305 306 307 307 307 306 307 307 307 307 307 306 307 306 306 307 308 309 309 311 312 313 312 311 311 312 312 311 313 313 313 313 313 312
304 303 302 300 305 305 305 305 304 304 302 303 304 305 307 307 307 307 308 307 307 307 307 306 307 307 309 308 310 310 311 312 311 312 312 311 311 313 313 313 313 312 312 311 311
303 303 302 302 304 304 304 305 306 306 304 303 305 306 307 307 308 308 308 308 307 307 308 306 306 308 309 310 310 312 311 312 313 309 308 310 307 310 312 312 313 311 311 311 310
303 303 302 303 304 304 304 305 305 306 302 305 306 305 307 307 307 306 309 309 308 309 308 306 307 308 310 311 310 312 311 312 313 312 308 310 306 309 312 312 312 310 310 309 308
304 304 305 305 305 305 305 306 305 300 307 307 307 308 308 308 308 307 309 309 309 309 308 308 308 309 311 310 310 311 312 312 313 312 307 310 309 310 312 312 312 309 309 308 307
305 305 305 305 305 306 305 304 303 305 306 309 310 308 308 309 309 310 310 310 310 304 306 311 310 310 310 312 311 311 309 306 307 307 307 313 311 310 312 311 310 309 308 307 306
304 305 305 305 305 305 305 304 307 310 310 309 309 309 310 309 310 310 310 309 310 311 306 306 304 311 310 313 311 314 313 306 306 310 308 312 311 311 311 310 309 308 307 306 306
308 307 305 304 305 305 305 308 306 308 309 309 309 310 310 310 311 311 312 312 311 311 309 310 311 312 310 313 314 313 315 314 309 310 306 307 311 313 311 309 308 307 307 306 305
310 309 310 309 308 308 304 306 308 309 309 309 310 310 310 311 312 312 311 311 312 311 311 313 312 313 313 313 313 315 313 315 311 310 316 310 313 314 312 311 309 307 307 306 305
312 311 310 312 310 310 303 307 310 310 310 310 311 310 310 311 310 312 311 312 312 312 312 313 314 314 313 313 314 314 313 313 312 315 315 313 312 314 311 309 308 307 307 306 305
311 306 311 312 309 309 303 310 310 311 311 311 311 311 312 312 313 313 313 313 313 313 313 311 312 310 313 312 312 311 311 311 309 314 313 311 312 313 310 308 308 307 307 305 305
313 312 311 313 306 302 310 310 310 311 310 311 312 312 312 312 313 312 312 312 313 312 312 311 311 306 309 308 310 311 311 311 309 307 308 309 311 310 309 308 308 307 307 306 306
312 304 312 312 311 310 311 312 311 311 310 311 311 311 312 312 311 312 312 311 312 312 311 310 310 309 311 311 310 311 311 310 309 305 307 309 309 311 309 308 307 307 308 307 307
310 307 310 304 308 308 310 310 312 311 311 311 310 310 310 311 311 311 311 310 311 312 310 309 309 309 309 309 309 309 309 309 309 309 309 308 308 308 309 308 309 310 308 308 307
311 310 309 309 309 309 308 310 311 311 310 310 309 309 308 309 309 310 309 309 310 309 310 308 307 308 304 307 308 308 307 308 308 310 309 309 309 308 309 308 309 310 309 308 308
307 308 310 307 307 307 307 308 310 310 310 309 309 308 309 309 308 308 308 308 308 307 307 308 306 304 305 306 306 304 305 307 308 307 309 309 309 306 307 308 309 310 310 310 309

GFSSW_850_thetae_114.txt.gz
Theta_e
308 307 307 309 310 308 309 309 308 310 307 307 312 315 317 317 319 317 313 313 309 308 308 310 316 318 318 319 316 312 309 311 313 314 313 312 312 312 311 312 312 311 311 309 309
307 306 307 308 309 309 308 308 308 309 308 306 311 315 318 316 318 317 314 312 309 309 312 315 317 318 317 316 313 309 309 312 311 311 311 311 310 310 310 310 311 310 309 308 309
306 305 305 306 305 305 307 308 307 308 309 308 308 312 317 317 315 317 317 315 311 310 312 315 313 313 313 311 311 311 311 311 312 310 310 310 309 309 309 309 308 308 308 309 309
305 304 304 305 305 306 306 307 307 307 309 308 309 309 315 315 315 314 317 311 307 311 311 312 312 312 310 309 311 310 310 311 311 309 309 308 308 307 308 309 308 308 308 308 309
303 304 305 304 305 306 307 306 307 306 308 309 309 309 313 312 312 315 315 311 309 309 310 312 311 311 309 309 309 309 309 310 309 307 307 307 306 306 306 307 307 307 311 311 311
303 303 301 301 301 303 304 305 307 306 306 306 308 311 313 312 314 316 317 308 310 310 310 310 309 310 310 308 308 310 309 308 307 307 306 306 306 306 307 308 308 311 311 311 312
304 303 302 301 304 305 305 306 306 306 307 307 308 312 313 312 313 315 309 309 310 310 310 309 310 310 309 307 308 308 306 306 306 307 307 307 306 306 307 308 308 311 312 314 315
303 302 302 301 303 304 303 305 307 307 307 307 308 310 312 312 314 313 309 309 310 310 310 309 310 309 308 307 306 306 304 306 307 307 308 307 304 309 307 308 309 311 314 315 315
303 303 303 302 303 303 303 303 305 307 306 307 309 310 310 311 311 310 309 308 309 310 309 309 309 307 307 304 302 303 304 307 308 307 309 308 306 308 307 309 310 311 314 314 314
301 302 303 302 302 302 305 305 306 307 308 308 309 309 309 310 309 311 309 307 307 308 308 307 307 304 303 303 302 305 306 309 309 309 308 308 307 307 309 309 311 311 313 314 313
301 300 302 303 302 301 306 306 306 306 305 307 307 308 308 307 307 307 307 305 305 306 304 308 304 304 306 307 307 306 308 309 310 310 309 308 308 307 310 310 310 311 313 313 312
303 300 304 303 302 302 305 305 305 306 304 306 307 306 307 307 307 307 307 307 308 305 306 304 305 306 307 308 308 309 309 311 312 311 311 311 311 310 310 310 311 312 312 312 312
303 301 303 304 305 305 305 305 305 305 303 304 305 306 307 306 307 308 307 307 307 307 307 305 306 307 308 308 309 309 309 312 309 311 311 309 308 312 313 312 312 312 312 311 311
303 302 301 304 304 304 305 305 305 306 302 303 305 305 307 307 308 307 308 308 307 307 306 305 306 308 308 310 309 310 311 311 313 308 306 309 305 308 311 312 311 311 310 310 310
301 301 302 304 304 305 306 305 305 306 303 304 306 306 307 307 306 308 309 309 309 309 306 304 306 308 310 310 310 311 311 312 312 310 307 309 305 309 311 311 310 309 310 310 309
304 303 304 304 304 305 305 305 304 299 306 308 308 308 308 307 307 308 308 309 309 308 307 306 307 309 310 309 310 310 311 311 310 307 304 308 308 310 311 311 310 309 309 309 308
305 305 305 305 305 305 305 304 302 305 305 310 309 308 308 308 309 309 309 310 310 304 303 309 309 309 310 311 310 310 305 301 305 309 305 310 310 310 309 311 309 309 309 308 306
305 305 305 305 305 305 305 302 306 309 310 308 309 309 309 309 310 310 309 308 309 307 304 302 304 310 310 311 310 312 307 303 307 310 307 309 310 310 310 310 310 309 308 307 306
309 306 305 305 304 305 305 306 305 307 309 310 309 310 310 310 310 310 310 311 310 309 308 307 308 311 309 313 312 310 308 311 307 308 308 305 307 309 310 308 308 307 306 306 306
311 310 310 309 308 307 303 306 308 308 308 308 309 310 311 311 311 311 311 311 311 311 310 310 310 312 312 312 313 313 311 311 308 310 312 307 309 312 311 311 308 306 307 307 306
312 311 311 312 309 309 301 306 309 310 310 310 310 310 309 310 310 311 310 311 311 311 311 311 310 313 313 313 312 313 312 312 309 308 309 312 309 309 311 309 308 308 309 307 306
311 306 312 312 308 305 302 309 310 310 310 310 310 311 311 311 312 312 312 311 312 312 313 311 310 309 313 310 310 310 310 309 308 310 309 309 310 309 309 309 309 308 308 307 307
312 312 311 311 306 301 309 310 310 310 309 310 311 311 311 312 312 312 311 311 312 312 311 310 310 305 309 308 309 312 310 309 307 306 308 308 308 309 309 308 309 308 308 308 308
312 304 311 311 310 308 310 311 311 310 310 310 310 310 310 310 309 311 311 311 312 311 310 310 309 308 307 309 308 310 309 310 309 304 307 308 307 306 309 307 308 309 308 308 308
309 306 310 303 307 308 308 310 311 310 310 310 309 308 309 310 310 310 311 310 311 311 310 308 308 307 307 307 308 309 309 309 309 311 308 307 307 308 305 305 309 312 310 308 308
310 308 308 307 308 308 306 309 310 310 309 310 309 308 308 309 309 309 308 308 309 309 308 306 306 306 303 306 306 307 306 308 308 309 309 309 309 309 309 307 307 309 309 309 309
307 308 309 305 305 305 305 308 309 309 309 309 308 308 309 308 308 307 307 307 307 307 306 307 305 303 305 304 305 303 305 307 306 305 308 309 309 307 306 305 306 308 309 309 310

GFSSW_850_thetae_117.txt.gz
Theta_e
307 308 307 307 308 309 310 310 309 310 307 308 312 313 315 319 319 316 310 313 310 308 310 312 316 320 319 318 314 311 308 310 312 313 313 312 311 311 311 311 311 310 311 309 309
307 306 307 308 309 310 306 305 309 310 306 307 311 316 315 317 319 315 312 312 308 309 310 313 317 318 318 314 311 309 309 312 311 310 310 310 310 309 310 310 309 308 308 308 308
304 305 305 307 306 306 307 308 307 309 307 306 311 314 315 318 317 316 313 313 311 310 312 315 315 315 313 311 310 310 311 311 311 309 310 309 308 308 308 308 308 308 308 308 309
304 304 304 305 305 306 307 306 307 309 309 308 308 312 316 316 313 313 316 315 310 311 313 313 312 311 309 309 310 309 310 311 310 309 309 307 307 307 307 308 308 308 308 310 310
303 304 304 304 305 305 306 307 308 307 309 308 309 310 315 313 313 314 315 312 308 310 311 312 311 310 309 308 309 308 309 310 308 307 307 307 305 305 306 307 307 307 310 311 310
303 302 301 301 303 304 306 306 307 306 308 308 310 311 313 311 313 313 317 310 310 309 311 312 309 310 308 307 307 309 308 307 306 306 306 305 305 306 306 307 307 310 311 311 311
302 302 301 304 304 304 305 306 307 306 306 306 310 312 312 312 314 310 309 309 309 310 311 310 310 309 309 306 307 306 306 306 306 306 306 306 305 305 306 307 309 310 311 312 313
304 304 303 303 303 304 304 307 307 307 307 307 311 311 311 312 312 311 307 309 310 309 310 310 309 309 307 306 306 304 303 304 306 306 307 305 303 306 307 307 307 310 313 314 314
303 303 301 303 303 303 303 305 306 306 307 308 310 310 310 311 312 309 308 307 309 309 309 309 309 306 306 303 301 302 302 307 307 306 308 307 304 307 307 306 309 309 313 315 314
302 302 302 302 302 305 306 307 307 307 308 309 309 309 309 309 310 310 309 306 307 308 308 308 306 303 303 301 303 304 306 307 308 308 307 308 306 305 308 306 308 309 311 314 313
300 302 303 302 303 306 305 306 307 306 305 307 308 308 307 307 309 310 308 306 306 305 305 306 303 302 306 306 303 303 306 308 309 309 309 307 307 306 308 308 308 309 310 313 312
300 304 302 301 303 305 306 305 306 305 305 306 307 307 307 307 306 307 308 308 305 305 306 303 304 305 306 306 306 306 307 309 311 310 311 309 309 308 308 309 310 310 310 312 311
301 304 304 304 304 305 305 306 306 306 303 304 305 306 307 307 307 307 307 307 307 306 305 304 305 306 307 307 308 308 309 310 307 310 310 307 305 310 312 311 310 310 312 311 311
302 301 304 304 304 305 305 305 305 306 303 303 306 306 307 308 307 307 308 307 307 306 305 305 305 307 308 309 307 309 310 311 312 306 304 307 305 307 310 312 310 310 311 311 310
301 301 304 304 305 306 305 305 304 306 307 305 306 306 307 307 307 309 308 309 309 308 304 304 306 308 309 309 309 309 310 311 311 308 305 308 304 308 309 310 310 309 310 310 310
303 303 303 304 305 305 305 305 305 300 307 308 308 308 308 307 307 308 309 309 308 307 306 306 306 308 309 309 309 309 310 306 307 305 303 307 307 309 309 310 310 309 310 310 309
305 305 305 305 305 305 305 305 301 304 304 307 310 308 308 308 309 309 309 310 308 304 302 306 308 309 310 310 309 307 305 299 301 304 304 307 309 310 308 307 308 309 310 310 309
305 305 305 305 305 305 305 301 308 309 309 307 309 309 309 309 309 309 308 309 308 307 303 301 302 309 309 310 309 311 306 301 301 308 306 307 310 310 308 309 310 310 310 309 308
310 309 308 306 304 305 304 302 303 307 308 309 309 309 309 310 309 310 309 309 309 307 306 305 305 310 309 311 310 310 306 308 305 305 309 304 306 307 309 309 308 309 309 308 308
311 310 310 310 308 306 303 305 308 307 308 308 309 309 310 310 311 310 310 310 310 310 308 308 309 311 311 312 312 311 309 308 306 308 312 305 306 310 309 311 309 307 308 309 308
311 310 312 310 309 309 301 306 309 309 310 309 310 309 310 311 310 310 310 310 310 310 311 308 308 312 312 312 311 312 311 310 307 306 307 311 307 305 308 309 308 308 310 310 308
311 306 311 310 308 303 301 309 309 309 309 309 309 310 311 309 311 311 311 310 311 311 312 309 308 308 311 310 309 309 310 308 307 308 308 307 309 306 309 308 309 309 309 309 308
312 312 311 310 305 300 308 309 309 309 309 310 311 310 310 311 311 311 311 311 312 310 310 309 308 304 308 308 309 311 309 308 305 305 308 308 306 306 307 308 309 309 309 309 309
311 304 310 310 308 307 309 310 310 310 309 309 309 309 309 309 308 311 310 310 311 311 310 308 307 307 305 307 307 310 309 308 308 304 307 307 306 306 306 308 309 310 311 310 309
308 306 308 303 306 307 307 309 310 310 309 308 308 308 309 309 309 310 310 309 310 310 309 306 307 305 305 305 307 308 308 307 308 310 309 306 306 306 305 304 306 308 309 310 310
309 307 307 306 307 307 305 309 309 309 309 309 307 308 307 308 307 307 308 308 308 308 308 305 306 305 302 305 305 307 306 307 307 309 310 310 310 309 309 308 306 307 308 308 309
307 308 308 303 304 304 304 307 308 308 308 308 307 307 308 307 307 307 307 306 306 307 306 305 304 303 304 302 303 303 303 305 306 305 308 309 309 306 305 304 307 308 308 308 309